<?xml version='1.0' encoding='UTF-8'?>
<gpx version="1.1" creator="https://www.komoot.de" xmlns="http://www.topografix.com/GPX/1/1" xmlns:xsi="http://www.w3.org/2001/XMLSchema-instance" xsi:schemaLocation="http://www.topografix.com/GPX/1/1 http://www.topografix.com/GPX/1/1/gpx.xsd">
  <metadata>
    <name>BFUTR 52</name>
    <author>
      <link href="https://www.komoot.de">
        <text>komoot</text>
        <type>text/html</type>
      </link>
    </author>
  </metadata>
  <wpt lat="47.926624" lon="8.001645">
    <name>Höfener Hütte und Blick ins Dreisamtal</name>
    <sym>Fishing Hot Spot Facility</sym>
  </wpt>
  <wpt lat="47.872547" lon="8.039964">
    <name>Raimartihof</name>
    <sym>Fishing Hot Spot Facility</sym>
  </wpt>
  <wpt lat="47.894291" lon="7.951205">
    <name>Feldberg Wanderweg</name>
    <sym>Flag, Blue</sym>
  </wpt>
  <trk>
    <name>BFUTR 52</name>
    <type>jogging</type>
    <trkseg>
      <trkpt lat="47.958672" lon="7.956474">
        <ele>394.108454</ele>
        <time>2026-07-15T08:42:53.848Z</time>
      </trkpt>
      <trkpt lat="47.958620" lon="7.956558">
        <ele>394.108454</ele>
        <time>2026-07-15T08:42:57.585Z</time>
      </trkpt>
      <trkpt lat="47.958585" lon="7.956601">
        <ele>394.108454</ele>
        <time>2026-07-15T08:42:59.837Z</time>
      </trkpt>
      <trkpt lat="47.958510" lon="7.956692">
        <ele>394.108454</ele>
        <time>2026-07-15T08:43:04.589Z</time>
      </trkpt>
      <trkpt lat="47.958366" lon="7.956850">
        <ele>394.108454</ele>
        <time>2026-07-15T08:43:12.099Z</time>
      </trkpt>
      <trkpt lat="47.958090" lon="7.957025">
        <ele>394.108454</ele>
        <time>2026-07-15T08:43:24.720Z</time>
      </trkpt>
      <trkpt lat="47.957510" lon="7.957284">
        <ele>394.519646</ele>
        <time>2026-07-15T08:43:50.350Z</time>
      </trkpt>
      <trkpt lat="47.958005" lon="7.959658">
        <ele>396.833065</ele>
        <time>2026-07-15T08:45:13.962Z</time>
      </trkpt>
      <trkpt lat="47.958019" lon="7.959848">
        <ele>397.255685</ele>
        <time>2026-07-15T08:45:20.559Z</time>
      </trkpt>
      <trkpt lat="47.957935" lon="7.961212">
        <ele>400.284182</ele>
        <time>2026-07-15T08:46:09.240Z</time>
      </trkpt>
      <trkpt lat="47.957975" lon="7.961333">
        <ele>400.582531</ele>
        <time>2026-07-15T08:46:14.443Z</time>
      </trkpt>
      <trkpt lat="47.958432" lon="7.961575">
        <ele>402.867334</ele>
        <time>2026-07-15T08:46:39.567Z</time>
      </trkpt>
      <trkpt lat="47.958103" lon="7.961651">
        <ele>406.454276</ele>
        <time>2026-07-15T08:46:58.270Z</time>
      </trkpt>
      <trkpt lat="47.957027" lon="7.962090">
        <ele>418.472472</ele>
        <time>2026-07-15T08:48:16.961Z</time>
      </trkpt>
      <trkpt lat="47.956857" lon="7.962214">
        <ele>420.510967</ele>
        <time>2026-07-15T08:48:32.088Z</time>
      </trkpt>
      <trkpt lat="47.956911" lon="7.963188">
        <ele>430.667411</ele>
        <time>2026-07-15T08:49:35.703Z</time>
      </trkpt>
      <trkpt lat="47.956980" lon="7.963334">
        <ele>432.591916</ele>
        <time>2026-07-15T08:49:47.800Z</time>
      </trkpt>
      <trkpt lat="47.957104" lon="7.963367">
        <ele>434.617482</ele>
        <time>2026-07-15T08:50:00.574Z</time>
      </trkpt>
      <trkpt lat="47.957164" lon="7.963340">
        <ele>435.625252</ele>
        <time>2026-07-15T08:50:07.071Z</time>
      </trkpt>
      <trkpt lat="47.957197" lon="7.964074">
        <ele>443.548042</ele>
        <time>2026-07-15T08:50:57.506Z</time>
      </trkpt>
      <trkpt lat="47.957124" lon="7.964284">
        <ele>446.096229</ele>
        <time>2026-07-15T08:51:13.508Z</time>
      </trkpt>
      <trkpt lat="47.956939" lon="7.964371">
        <ele>449.215416</ele>
        <time>2026-07-15T08:51:33.055Z</time>
      </trkpt>
      <trkpt lat="47.956887" lon="7.964430">
        <ele>450.252248</ele>
        <time>2026-07-15T08:51:39.576Z</time>
      </trkpt>
      <trkpt lat="47.956865" lon="7.964595">
        <ele>451.758685</ele>
        <time>2026-07-15T08:51:50.774Z</time>
      </trkpt>
      <trkpt lat="47.956937" lon="7.964824">
        <ele>454.023930</ele>
        <time>2026-07-15T08:52:07.424Z</time>
      </trkpt>
      <trkpt lat="47.957231" lon="7.965335">
        <ele>460.056202</ele>
        <time>2026-07-15T08:52:50.741Z</time>
      </trkpt>
      <trkpt lat="47.957267" lon="7.965467">
        <ele>461.332399</ele>
        <time>2026-07-15T08:52:59.396Z</time>
      </trkpt>
      <trkpt lat="47.957236" lon="7.965985">
        <ele>465.989112</ele>
        <time>2026-07-15T08:53:29.545Z</time>
      </trkpt>
      <trkpt lat="47.957012" lon="7.966597">
        <ele>472.234093</ele>
        <time>2026-07-15T08:54:06.679Z</time>
      </trkpt>
      <trkpt lat="47.956823" lon="7.966790">
        <ele>475.249382</ele>
        <time>2026-07-15T08:54:24.058Z</time>
      </trkpt>
      <trkpt lat="47.956347" lon="7.967163">
        <ele>482.124086</ele>
        <time>2026-07-15T08:55:07.726Z</time>
      </trkpt>
      <trkpt lat="47.956261" lon="7.967223">
        <ele>483.338037</ele>
        <time>2026-07-15T08:55:15.663Z</time>
      </trkpt>
      <trkpt lat="47.955996" lon="7.967300">
        <ele>486.790597</ele>
        <time>2026-07-15T08:55:39.345Z</time>
      </trkpt>
      <trkpt lat="47.955823" lon="7.967384">
        <ele>489.117064</ele>
        <time>2026-07-15T08:55:55.765Z</time>
      </trkpt>
      <trkpt lat="47.955712" lon="7.967524">
        <ele>490.975236</ele>
        <time>2026-07-15T08:56:09.158Z</time>
      </trkpt>
      <trkpt lat="47.955585" lon="7.967923">
        <ele>494.758852</ele>
        <time>2026-07-15T08:56:36.689Z</time>
      </trkpt>
      <trkpt lat="47.955525" lon="7.968224">
        <ele>497.436832</ele>
        <time>2026-07-15T08:56:56.591Z</time>
      </trkpt>
      <trkpt lat="47.955329" lon="7.968479">
        <ele>500.576617</ele>
        <time>2026-07-15T08:57:21.240Z</time>
      </trkpt>
      <trkpt lat="47.955428" lon="7.968893">
        <ele>504.132388</ele>
        <time>2026-07-15T08:57:48.767Z</time>
      </trkpt>
      <trkpt lat="47.954954" lon="7.968994">
        <ele>509.915287</ele>
        <time>2026-07-15T08:58:30.168Z</time>
      </trkpt>
      <trkpt lat="47.954326" lon="7.969529">
        <ele>518.647854</ele>
        <time>2026-07-15T08:59:24.277Z</time>
      </trkpt>
      <trkpt lat="47.954105" lon="7.969841">
        <ele>522.024725</ele>
        <time>2026-07-15T08:59:46.742Z</time>
      </trkpt>
      <trkpt lat="47.953751" lon="7.970537">
        <ele>528.470265</ele>
        <time>2026-07-15T09:00:32.513Z</time>
      </trkpt>
      <trkpt lat="47.953564" lon="7.970691">
        <ele>530.821973</ele>
        <time>2026-07-15T09:00:50.274Z</time>
      </trkpt>
      <trkpt lat="47.953548" lon="7.971432">
        <ele>536.289803</ele>
        <time>2026-07-15T09:01:32.460Z</time>
      </trkpt>
      <trkpt lat="47.953520" lon="7.971595">
        <ele>537.530867</ele>
        <time>2026-07-15T09:01:42.113Z</time>
      </trkpt>
      <trkpt lat="47.953459" lon="7.971717">
        <ele>538.653728</ele>
        <time>2026-07-15T09:01:50.772Z</time>
      </trkpt>
      <trkpt lat="47.953118" lon="7.972049">
        <ele>543.514571</ele>
        <time>2026-07-15T09:02:25.712Z</time>
      </trkpt>
      <trkpt lat="47.952692" lon="7.972702">
        <ele>550.819350</ele>
        <time>2026-07-15T09:03:18.111Z</time>
      </trkpt>
      <trkpt lat="47.952566" lon="7.972788">
        <ele>552.476950</ele>
        <time>2026-07-15T09:03:29.957Z</time>
      </trkpt>
      <trkpt lat="47.952267" lon="7.972687">
        <ele>556.144809</ele>
        <time>2026-07-15T09:03:56.028Z</time>
      </trkpt>
      <trkpt lat="47.952182" lon="7.972595">
        <ele>557.400913</ele>
        <time>2026-07-15T09:04:04.796Z</time>
      </trkpt>
      <trkpt lat="47.951925" lon="7.972423">
        <ele>560.855352</ele>
        <time>2026-07-15T09:04:27.949Z</time>
      </trkpt>
      <trkpt lat="47.951588" lon="7.972329">
        <ele>565.677344</ele>
        <time>2026-07-15T09:04:55.110Z</time>
      </trkpt>
      <trkpt lat="47.951444" lon="7.972254">
        <ele>567.822432</ele>
        <time>2026-07-15T09:05:07.642Z</time>
      </trkpt>
      <trkpt lat="47.951266" lon="7.972102">
        <ele>570.706596</ele>
        <time>2026-07-15T09:05:24.965Z</time>
      </trkpt>
      <trkpt lat="47.950872" lon="7.971969">
        <ele>576.388172</ele>
        <time>2026-07-15T09:06:00.599Z</time>
      </trkpt>
      <trkpt lat="47.950618" lon="7.971937">
        <ele>579.973441</ele>
        <time>2026-07-15T09:06:24.924Z</time>
      </trkpt>
      <trkpt lat="47.950585" lon="7.971882">
        <ele>580.669066</ele>
        <time>2026-07-15T09:06:29.088Z</time>
      </trkpt>
      <trkpt lat="47.950457" lon="7.971881">
        <ele>582.469442</ele>
        <time>2026-07-15T09:06:40.020Z</time>
      </trkpt>
      <trkpt lat="47.950030" lon="7.972647">
        <ele>594.967140</ele>
        <time>2026-07-15T09:07:42.797Z</time>
      </trkpt>
      <trkpt lat="47.949610" lon="7.973239">
        <ele>607.118868</ele>
        <time>2026-07-15T09:08:47.231Z</time>
      </trkpt>
      <trkpt lat="47.949515" lon="7.973306">
        <ele>609.329278</ele>
        <time>2026-07-15T09:08:59.384Z</time>
      </trkpt>
      <trkpt lat="47.949190" lon="7.973407">
        <ele>616.313291</ele>
        <time>2026-07-15T09:09:38.052Z</time>
      </trkpt>
      <trkpt lat="47.948660" lon="7.973880">
        <ele>627.572779</ele>
        <time>2026-07-15T09:10:41.828Z</time>
      </trkpt>
      <trkpt lat="47.948492" lon="7.973988">
        <ele>630.287473</ele>
        <time>2026-07-15T09:10:57.633Z</time>
      </trkpt>
      <trkpt lat="47.948412" lon="7.974136">
        <ele>632.178053</ele>
        <time>2026-07-15T09:11:08.165Z</time>
      </trkpt>
      <trkpt lat="47.948370" lon="7.974288">
        <ele>633.812589</ele>
        <time>2026-07-15T09:11:16.816Z</time>
      </trkpt>
      <trkpt lat="47.948255" lon="7.974688">
        <ele>638.139760</ele>
        <time>2026-07-15T09:11:39.909Z</time>
      </trkpt>
      <trkpt lat="47.948195" lon="7.974783">
        <ele>639.437772</ele>
        <time>2026-07-15T09:11:46.834Z</time>
      </trkpt>
      <trkpt lat="47.947638" lon="7.975467">
        <ele>650.132985</ele>
        <time>2026-07-15T09:12:39.228Z</time>
      </trkpt>
      <trkpt lat="47.947291" lon="7.975827">
        <ele>653.712351</ele>
        <time>2026-07-15T09:13:03.806Z</time>
      </trkpt>
      <trkpt lat="47.947124" lon="7.975969">
        <ele>655.340314</ele>
        <time>2026-07-15T09:13:14.381Z</time>
      </trkpt>
      <trkpt lat="47.947030" lon="7.976098">
        <ele>656.421855</ele>
        <time>2026-07-15T09:13:21.318Z</time>
      </trkpt>
      <trkpt lat="47.946726" lon="7.976731">
        <ele>660.841184</ele>
        <time>2026-07-15T09:13:51.740Z</time>
      </trkpt>
      <trkpt lat="47.946427" lon="7.977430">
        <ele>665.544212</ele>
        <time>2026-07-15T09:14:24.364Z</time>
      </trkpt>
      <trkpt lat="47.946265" lon="7.978125">
        <ele>669.658752</ele>
        <time>2026-07-15T09:14:54.871Z</time>
      </trkpt>
      <trkpt lat="47.946097" lon="7.979245">
        <ele>676.076155</ele>
        <time>2026-07-15T09:15:43.486Z</time>
      </trkpt>
      <trkpt lat="47.945862" lon="7.979562">
        <ele>678.719954</ele>
        <time>2026-07-15T09:16:02.619Z</time>
      </trkpt>
      <trkpt lat="47.945685" lon="7.979903">
        <ele>680.659187</ele>
        <time>2026-07-15T09:16:18.871Z</time>
      </trkpt>
      <trkpt lat="47.945445" lon="7.980507">
        <ele>682.145017</ele>
        <time>2026-07-15T09:16:41.913Z</time>
      </trkpt>
      <trkpt lat="47.945302" lon="7.981191">
        <ele>683.661032</ele>
        <time>2026-07-15T09:17:02.889Z</time>
      </trkpt>
      <trkpt lat="47.945065" lon="7.981805">
        <ele>685.160351</ele>
        <time>2026-07-15T09:17:23.266Z</time>
      </trkpt>
      <trkpt lat="47.944811" lon="7.982655">
        <ele>687.663887</ele>
        <time>2026-07-15T09:17:50.853Z</time>
      </trkpt>
      <trkpt lat="47.944583" lon="7.982977">
        <ele>689.146997</ele>
        <time>2026-07-15T09:18:05.523Z</time>
      </trkpt>
      <trkpt lat="47.944203" lon="7.983280">
        <ele>691.182743</ele>
        <time>2026-07-15T09:18:27.249Z</time>
      </trkpt>
      <trkpt lat="47.943958" lon="7.983563">
        <ele>692.646568</ele>
        <time>2026-07-15T09:18:43.703Z</time>
      </trkpt>
      <trkpt lat="47.943517" lon="7.984438">
        <ele>696.007594</ele>
        <time>2026-07-15T09:19:24.837Z</time>
      </trkpt>
      <trkpt lat="47.943147" lon="7.985299">
        <ele>699.027610</ele>
        <time>2026-07-15T09:20:02.397Z</time>
      </trkpt>
      <trkpt lat="47.942988" lon="7.985620">
        <ele>700.206242</ele>
        <time>2026-07-15T09:20:14.910Z</time>
      </trkpt>
      <trkpt lat="47.942858" lon="7.985811">
        <ele>701.010133</ele>
        <time>2026-07-15T09:20:22.853Z</time>
      </trkpt>
      <trkpt lat="47.942753" lon="7.985955">
        <ele>701.638535</ele>
        <time>2026-07-15T09:20:28.836Z</time>
      </trkpt>
      <trkpt lat="47.942684" lon="7.986004">
        <ele>701.975293</ele>
        <time>2026-07-15T09:20:32.006Z</time>
      </trkpt>
      <trkpt lat="47.942611" lon="7.986018">
        <ele>702.299668</ele>
        <time>2026-07-15T09:20:35.012Z</time>
      </trkpt>
      <trkpt lat="47.942528" lon="7.985985">
        <ele>702.487347</ele>
        <time>2026-07-15T09:20:38.545Z</time>
      </trkpt>
      <trkpt lat="47.941908" lon="7.985642">
        <ele>702.610016</ele>
        <time>2026-07-15T09:21:05.582Z</time>
      </trkpt>
      <trkpt lat="47.941766" lon="7.985627">
        <ele>702.636426</ele>
        <time>2026-07-15T09:21:11.535Z</time>
      </trkpt>
      <trkpt lat="47.941668" lon="7.985669">
        <ele>702.655342</ele>
        <time>2026-07-15T09:21:15.961Z</time>
      </trkpt>
      <trkpt lat="47.941280" lon="7.986174">
        <ele>702.750843</ele>
        <time>2026-07-15T09:21:37.287Z</time>
      </trkpt>
      <trkpt lat="47.940998" lon="7.986659">
        <ele>702.715191</ele>
        <time>2026-07-15T09:21:54.801Z</time>
      </trkpt>
      <trkpt lat="47.940895" lon="7.986833">
        <ele>702.559021</ele>
        <time>2026-07-15T09:22:01.092Z</time>
      </trkpt>
      <trkpt lat="47.940295" lon="7.987106">
        <ele>701.929268</ele>
        <time>2026-07-15T09:22:26.622Z</time>
      </trkpt>
      <trkpt lat="47.940152" lon="7.987239">
        <ele>701.760112</ele>
        <time>2026-07-15T09:22:33.411Z</time>
      </trkpt>
      <trkpt lat="47.939870" lon="7.987624">
        <ele>701.376431</ele>
        <time>2026-07-15T09:22:48.261Z</time>
      </trkpt>
      <trkpt lat="47.939346" lon="7.988540">
        <ele>701.713667</ele>
        <time>2026-07-15T09:23:19.904Z</time>
      </trkpt>
      <trkpt lat="47.939232" lon="7.988679">
        <ele>701.950777</ele>
        <time>2026-07-15T09:23:25.968Z</time>
      </trkpt>
      <trkpt lat="47.938644" lon="7.989136">
        <ele>703.018640</ele>
        <time>2026-07-15T09:23:55.298Z</time>
      </trkpt>
      <trkpt lat="47.938276" lon="7.989352">
        <ele>703.655607</ele>
        <time>2026-07-15T09:24:13.669Z</time>
      </trkpt>
      <trkpt lat="47.937341" lon="7.990289">
        <ele>710.963832</ele>
        <time>2026-07-15T09:25:12.840Z</time>
      </trkpt>
      <trkpt lat="47.937080" lon="7.990647">
        <ele>713.538621</ele>
        <time>2026-07-15T09:25:34.420Z</time>
      </trkpt>
      <trkpt lat="47.936406" lon="7.991340">
        <ele>722.357576</ele>
        <time>2026-07-15T09:26:25.773Z</time>
      </trkpt>
      <trkpt lat="47.936149" lon="7.991458">
        <ele>726.543255</ele>
        <time>2026-07-15T09:26:45.111Z</time>
      </trkpt>
      <trkpt lat="47.936106" lon="7.991578">
        <ele>727.962519</ele>
        <time>2026-07-15T09:26:51.856Z</time>
      </trkpt>
      <trkpt lat="47.936051" lon="7.991657">
        <ele>729.150734</ele>
        <time>2026-07-15T09:26:57.611Z</time>
      </trkpt>
      <trkpt lat="47.935882" lon="7.991657">
        <ele>731.781532</ele>
        <time>2026-07-15T09:27:15.647Z</time>
      </trkpt>
      <trkpt lat="47.934859" lon="7.992048">
        <ele>749.797183</ele>
        <time>2026-07-15T09:29:16.102Z</time>
      </trkpt>
      <trkpt lat="47.934182" lon="7.991814">
        <ele>765.860947</ele>
        <time>2026-07-15T09:30:53.950Z</time>
      </trkpt>
      <trkpt lat="47.933855" lon="7.991605">
        <ele>774.083817</ele>
        <time>2026-07-15T09:31:43.515Z</time>
      </trkpt>
      <trkpt lat="47.933733" lon="7.991576">
        <ele>776.939528</ele>
        <time>2026-07-15T09:32:00.619Z</time>
      </trkpt>
      <trkpt lat="47.933588" lon="7.991646">
        <ele>780.462336</ele>
        <time>2026-07-15T09:32:21.130Z</time>
      </trkpt>
      <trkpt lat="47.933379" lon="7.991832">
        <ele>786.087250</ele>
        <time>2026-07-15T09:32:52.989Z</time>
      </trkpt>
      <trkpt lat="47.933122" lon="7.991996">
        <ele>791.076883</ele>
        <time>2026-07-15T09:33:26.853Z</time>
      </trkpt>
      <trkpt lat="47.932579" lon="7.992096">
        <ele>800.623641</ele>
        <time>2026-07-15T09:34:28.513Z</time>
      </trkpt>
      <trkpt lat="47.932481" lon="7.992209">
        <ele>802.784529</ele>
        <time>2026-07-15T09:34:41.197Z</time>
      </trkpt>
      <trkpt lat="47.932420" lon="7.992367">
        <ele>804.916441</ele>
        <time>2026-07-15T09:34:53.697Z</time>
      </trkpt>
      <trkpt lat="47.932168" lon="7.992706">
        <ele>810.836145</ele>
        <time>2026-07-15T09:35:26.187Z</time>
      </trkpt>
      <trkpt lat="47.932068" lon="7.992769">
        <ele>812.730144</ele>
        <time>2026-07-15T09:35:36.626Z</time>
      </trkpt>
      <trkpt lat="47.932063" lon="7.993046">
        <ele>815.969766</ele>
        <time>2026-07-15T09:35:53.431Z</time>
      </trkpt>
      <trkpt lat="47.931868" lon="7.993784">
        <ele>822.377507</ele>
        <time>2026-07-15T09:36:39.668Z</time>
      </trkpt>
      <trkpt lat="47.931909" lon="7.994099">
        <ele>824.658383</ele>
        <time>2026-07-15T09:36:57.205Z</time>
      </trkpt>
      <trkpt lat="47.931745" lon="7.994499">
        <ele>827.991672</ele>
        <time>2026-07-15T09:37:19.909Z</time>
      </trkpt>
      <trkpt lat="47.931618" lon="7.995069">
        <ele>832.261391</ele>
        <time>2026-07-15T09:37:48.398Z</time>
      </trkpt>
      <trkpt lat="47.931583" lon="7.995582">
        <ele>835.926669</ele>
        <time>2026-07-15T09:38:13.984Z</time>
      </trkpt>
      <trkpt lat="47.931579" lon="7.996065">
        <ele>840.088061</ele>
        <time>2026-07-15T09:38:38.947Z</time>
      </trkpt>
      <trkpt lat="47.931509" lon="7.997380">
        <ele>852.371938</ele>
        <time>2026-07-15T09:39:52.847Z</time>
      </trkpt>
      <trkpt lat="47.931581" lon="7.998088">
        <ele>859.040347</ele>
        <time>2026-07-15T09:40:41.073Z</time>
      </trkpt>
      <trkpt lat="47.931573" lon="7.998533">
        <ele>863.819032</ele>
        <time>2026-07-15T09:41:14.809Z</time>
      </trkpt>
      <trkpt lat="47.931564" lon="7.998632">
        <ele>865.250639</ele>
        <time>2026-07-15T09:41:21.534Z</time>
      </trkpt>
      <trkpt lat="47.931504" lon="7.999126">
        <ele>872.444720</ele>
        <time>2026-07-15T09:42:02.712Z</time>
      </trkpt>
      <trkpt lat="47.931411" lon="7.999355">
        <ele>876.281872</ele>
        <time>2026-07-15T09:42:25.502Z</time>
      </trkpt>
      <trkpt lat="47.931086" lon="7.999581">
        <ele>883.949917</ele>
        <time>2026-07-15T09:43:12.499Z</time>
      </trkpt>
      <trkpt lat="47.930804" lon="7.999723">
        <ele>890.314937</ele>
        <time>2026-07-15T09:43:52.678Z</time>
      </trkpt>
      <trkpt lat="47.929824" lon="8.000006">
        <ele>910.402278</ele>
        <time>2026-07-15T09:45:57.424Z</time>
      </trkpt>
      <trkpt lat="47.928692" lon="8.000132">
        <ele>931.943952</ele>
        <time>2026-07-15T09:47:56.953Z</time>
      </trkpt>
      <trkpt lat="47.928450" lon="8.000207">
        <ele>936.184125</ele>
        <time>2026-07-15T09:48:22.678Z</time>
      </trkpt>
      <trkpt lat="47.927805" lon="8.000385">
        <ele>945.863392</ele>
        <time>2026-07-15T09:49:30.704Z</time>
      </trkpt>
      <trkpt lat="47.927168" lon="8.000666">
        <ele>955.665293</ele>
        <time>2026-07-15T09:50:30.765Z</time>
      </trkpt>
      <trkpt lat="47.926912" lon="8.000883">
        <ele>960.009783</ele>
        <time>2026-07-15T09:50:55.397Z</time>
      </trkpt>
      <trkpt lat="47.926831" lon="8.000986">
        <ele>961.534271</ele>
        <time>2026-07-15T09:51:04.197Z</time>
      </trkpt>
      <trkpt lat="47.926578" lon="8.001603">
        <ele>967.921816</ele>
        <time>2026-07-15T09:51:43.100Z</time>
      </trkpt>
      <trkpt lat="47.926550" lon="8.001673">
        <ele>968.641703</ele>
        <time>2026-07-15T09:51:47.487Z</time>
      </trkpt>
      <trkpt lat="47.926470" lon="8.001846">
        <ele>970.497832</ele>
        <time>2026-07-15T09:51:59.193Z</time>
      </trkpt>
      <trkpt lat="47.926375" lon="8.002108">
        <ele>973.128416</ele>
        <time>2026-07-15T09:52:15.943Z</time>
      </trkpt>
      <trkpt lat="47.926350" lon="8.002110">
        <ele>973.458343</ele>
        <time>2026-07-15T09:52:18.192Z</time>
      </trkpt>
      <trkpt lat="47.926313" lon="8.002193">
        <ele>974.338644</ele>
        <time>2026-07-15T09:52:23.906Z</time>
      </trkpt>
      <trkpt lat="47.926122" lon="8.002381">
        <ele>977.353849</ele>
        <time>2026-07-15T09:52:43.694Z</time>
      </trkpt>
      <trkpt lat="47.925918" lon="8.002472">
        <ele>980.159720</ele>
        <time>2026-07-15T09:53:03.208Z</time>
      </trkpt>
      <trkpt lat="47.925449" lon="8.002437">
        <ele>986.671897</ele>
        <time>2026-07-15T09:53:50.421Z</time>
      </trkpt>
      <trkpt lat="47.924955" lon="8.002505">
        <ele>994.627199</ele>
        <time>2026-07-15T09:54:41.663Z</time>
      </trkpt>
      <trkpt lat="47.924883" lon="8.002527">
        <ele>995.805728</ele>
        <time>2026-07-15T09:54:49.275Z</time>
      </trkpt>
      <trkpt lat="47.924720" lon="8.002648">
        <ele>998.725094</ele>
        <time>2026-07-15T09:55:07.671Z</time>
      </trkpt>
      <trkpt lat="47.924532" lon="8.002830">
        <ele>1002.318616</ele>
        <time>2026-07-15T09:55:29.607Z</time>
      </trkpt>
      <trkpt lat="47.924430" lon="8.002968">
        <ele>1004.526414</ele>
        <time>2026-07-15T09:55:42.685Z</time>
      </trkpt>
      <trkpt lat="47.924385" lon="8.003081">
        <ele>1005.938919</ele>
        <time>2026-07-15T09:55:50.911Z</time>
      </trkpt>
      <trkpt lat="47.924147" lon="8.003827">
        <ele>1014.893356</ele>
        <time>2026-07-15T09:56:42.455Z</time>
      </trkpt>
      <trkpt lat="47.923936" lon="8.004336">
        <ele>1021.760873</ele>
        <time>2026-07-15T09:57:21.727Z</time>
      </trkpt>
      <trkpt lat="47.923774" lon="8.004898">
        <ele>1028.780684</ele>
        <time>2026-07-15T09:58:05.049Z</time>
      </trkpt>
      <trkpt lat="47.923708" lon="8.004986">
        <ele>1030.296166</ele>
        <time>2026-07-15T09:58:14.714Z</time>
      </trkpt>
      <trkpt lat="47.923257" lon="8.005360">
        <ele>1039.130790</ele>
        <time>2026-07-15T09:59:10.927Z</time>
      </trkpt>
      <trkpt lat="47.923062" lon="8.005839">
        <ele>1045.407051</ele>
        <time>2026-07-15T09:59:58.047Z</time>
      </trkpt>
      <trkpt lat="47.923006" lon="8.006080">
        <ele>1047.909689</ele>
        <time>2026-07-15T10:00:18.900Z</time>
      </trkpt>
      <trkpt lat="47.922973" lon="8.006290">
        <ele>1050.025956</ele>
        <time>2026-07-15T10:00:36.235Z</time>
      </trkpt>
      <trkpt lat="47.922889" lon="8.007875">
        <ele>1065.625459</ele>
        <time>2026-07-15T10:02:30.149Z</time>
      </trkpt>
      <trkpt lat="47.922808" lon="8.008114">
        <ele>1068.253196</ele>
        <time>2026-07-15T10:02:48.463Z</time>
      </trkpt>
      <trkpt lat="47.922265" lon="8.009140">
        <ele>1079.780402</ele>
        <time>2026-07-15T10:04:19.822Z</time>
      </trkpt>
      <trkpt lat="47.921908" lon="8.009443">
        <ele>1085.031031</ele>
        <time>2026-07-15T10:05:01.603Z</time>
      </trkpt>
      <trkpt lat="47.921732" lon="8.010060">
        <ele>1090.776062</ele>
        <time>2026-07-15T10:05:46.646Z</time>
      </trkpt>
      <trkpt lat="47.921734" lon="8.010507">
        <ele>1094.788748</ele>
        <time>2026-07-15T10:06:17.223Z</time>
      </trkpt>
      <trkpt lat="47.921500" lon="8.011094">
        <ele>1102.008014</ele>
        <time>2026-07-15T10:07:04.985Z</time>
      </trkpt>
      <trkpt lat="47.921323" lon="8.011327">
        <ele>1105.730797</ele>
        <time>2026-07-15T10:07:30.372Z</time>
      </trkpt>
      <trkpt lat="47.921200" lon="8.011405">
        <ele>1107.838732</ele>
        <time>2026-07-15T10:07:45.171Z</time>
      </trkpt>
      <trkpt lat="47.921018" lon="8.011575">
        <ele>1111.225345</ele>
        <time>2026-07-15T10:08:05.727Z</time>
      </trkpt>
      <trkpt lat="47.920943" lon="8.011794">
        <ele>1113.824920</ele>
        <time>2026-07-15T10:08:22.444Z</time>
      </trkpt>
      <trkpt lat="47.920905" lon="8.011989">
        <ele>1115.971449</ele>
        <time>2026-07-15T10:08:36.837Z</time>
      </trkpt>
      <trkpt lat="47.920655" lon="8.012709">
        <ele>1125.165955</ele>
        <time>2026-07-15T10:09:38.371Z</time>
      </trkpt>
      <trkpt lat="47.920027" lon="8.014333">
        <ele>1150.238950</ele>
        <time>2026-07-15T10:12:06.115Z</time>
      </trkpt>
      <trkpt lat="47.919913" lon="8.014764">
        <ele>1156.435197</ele>
        <time>2026-07-15T10:12:43.939Z</time>
      </trkpt>
      <trkpt lat="47.919707" lon="8.015254">
        <ele>1161.464501</ele>
        <time>2026-07-15T10:13:30.551Z</time>
      </trkpt>
      <trkpt lat="47.919266" lon="8.016177">
        <ele>1169.885823</ele>
        <time>2026-07-15T10:14:44.351Z</time>
      </trkpt>
      <trkpt lat="47.919160" lon="8.016732">
        <ele>1174.173184</ele>
        <time>2026-07-15T10:15:10.800Z</time>
      </trkpt>
      <trkpt lat="47.919070" lon="8.016865">
        <ele>1175.577349</ele>
        <time>2026-07-15T10:15:18.108Z</time>
      </trkpt>
      <trkpt lat="47.918985" lon="8.016943">
        <ele>1176.683533</ele>
        <time>2026-07-15T10:15:23.449Z</time>
      </trkpt>
      <trkpt lat="47.918614" lon="8.018306">
        <ele>1169.834668</ele>
        <time>2026-07-15T10:16:04.977Z</time>
      </trkpt>
      <trkpt lat="47.917980" lon="8.019739">
        <ele>1157.684950</ele>
        <time>2026-07-15T10:16:48.394Z</time>
      </trkpt>
      <trkpt lat="47.917677" lon="8.020810">
        <ele>1145.790135</ele>
        <time>2026-07-15T10:17:17.655Z</time>
      </trkpt>
      <trkpt lat="47.917705" lon="8.020933">
        <ele>1144.460982</ele>
        <time>2026-07-15T10:17:20.940Z</time>
      </trkpt>
      <trkpt lat="47.917515" lon="8.021176">
        <ele>1140.640451</ele>
        <time>2026-07-15T10:17:30.356Z</time>
      </trkpt>
      <trkpt lat="47.917248" lon="8.021680">
        <ele>1134.066974</ele>
        <time>2026-07-15T10:17:46.571Z</time>
      </trkpt>
      <trkpt lat="47.917029" lon="8.022402">
        <ele>1130.909184</ele>
        <time>2026-07-15T10:18:06.694Z</time>
      </trkpt>
      <trkpt lat="47.916940" lon="8.022977">
        <ele>1128.811858</ele>
        <time>2026-07-15T10:18:22.332Z</time>
      </trkpt>
      <trkpt lat="47.916885" lon="8.023141">
        <ele>1128.160107</ele>
        <time>2026-07-15T10:18:27.579Z</time>
      </trkpt>
      <trkpt lat="47.916600" lon="8.023716">
        <ele>1125.618433</ele>
        <time>2026-07-15T10:18:49.890Z</time>
      </trkpt>
      <trkpt lat="47.916502" lon="8.023907">
        <ele>1124.763535</ele>
        <time>2026-07-15T10:18:57.013Z</time>
      </trkpt>
      <trkpt lat="47.916360" lon="8.024275">
        <ele>1125.569115</ele>
        <time>2026-07-15T10:19:10.875Z</time>
      </trkpt>
      <trkpt lat="47.916230" lon="8.024564">
        <ele>1128.140449</ele>
        <time>2026-07-15T10:19:23.893Z</time>
      </trkpt>
      <trkpt lat="47.915960" lon="8.025448">
        <ele>1135.317342</ele>
        <time>2026-07-15T10:20:10.324Z</time>
      </trkpt>
      <trkpt lat="47.915914" lon="8.025875">
        <ele>1138.512386</ele>
        <time>2026-07-15T10:20:33.923Z</time>
      </trkpt>
      <trkpt lat="47.915825" lon="8.026402">
        <ele>1142.527412</ele>
        <time>2026-07-15T10:21:03.535Z</time>
      </trkpt>
      <trkpt lat="47.915804" lon="8.026694">
        <ele>1144.736772</ele>
        <time>2026-07-15T10:21:19.240Z</time>
      </trkpt>
      <trkpt lat="47.915817" lon="8.027934">
        <ele>1154.319959</ele>
        <time>2026-07-15T10:22:22.459Z</time>
      </trkpt>
      <trkpt lat="47.915782" lon="8.029010">
        <ele>1162.644464</ele>
        <time>2026-07-15T10:23:09.535Z</time>
      </trkpt>
      <trkpt lat="47.915806" lon="8.029401">
        <ele>1165.264398</ele>
        <time>2026-07-15T10:23:24.627Z</time>
      </trkpt>
      <trkpt lat="47.915551" lon="8.030869">
        <ele>1172.604732</ele>
        <time>2026-07-15T10:24:20.401Z</time>
      </trkpt>
      <trkpt lat="47.915141" lon="8.032594">
        <ele>1179.701985</ele>
        <time>2026-07-15T10:25:29.155Z</time>
      </trkpt>
      <trkpt lat="47.914855" lon="8.033189">
        <ele>1181.646713</ele>
        <time>2026-07-15T10:25:54.268Z</time>
      </trkpt>
      <trkpt lat="47.914317" lon="8.033673">
        <ele>1184.136290</ele>
        <time>2026-07-15T10:26:22.260Z</time>
      </trkpt>
      <trkpt lat="47.913963" lon="8.033937">
        <ele>1184.056504</ele>
        <time>2026-07-15T10:26:38.331Z</time>
      </trkpt>
      <trkpt lat="47.913888" lon="8.033974">
        <ele>1183.862316</ele>
        <time>2026-07-15T10:26:41.444Z</time>
      </trkpt>
      <trkpt lat="47.908738" lon="8.036843">
        <ele>1170.965901</ele>
        <time>2026-07-15T10:30:12.396Z</time>
      </trkpt>
      <trkpt lat="47.908482" lon="8.036986">
        <ele>1171.009064</ele>
        <time>2026-07-15T10:30:23.511Z</time>
      </trkpt>
      <trkpt lat="47.908023" lon="8.036763">
        <ele>1171.085285</ele>
        <time>2026-07-15T10:30:47.305Z</time>
      </trkpt>
      <trkpt lat="47.906381" lon="8.035787">
        <ele>1174.856265</ele>
        <time>2026-07-15T10:32:20.928Z</time>
      </trkpt>
      <trkpt lat="47.905874" lon="8.035337">
        <ele>1176.722208</ele>
        <time>2026-07-15T10:32:53.890Z</time>
      </trkpt>
      <trkpt lat="47.905438" lon="8.034818">
        <ele>1180.270157</ele>
        <time>2026-07-15T10:33:28.417Z</time>
      </trkpt>
      <trkpt lat="47.905342" lon="8.034707">
        <ele>1181.078172</ele>
        <time>2026-07-15T10:33:36.149Z</time>
      </trkpt>
      <trkpt lat="47.904963" lon="8.034508">
        <ele>1183.751078</ele>
        <time>2026-07-15T10:34:01.984Z</time>
      </trkpt>
      <trkpt lat="47.904784" lon="8.034370">
        <ele>1185.091498</ele>
        <time>2026-07-15T10:34:14.824Z</time>
      </trkpt>
      <trkpt lat="47.904204" lon="8.033758">
        <ele>1189.684892</ele>
        <time>2026-07-15T10:35:05.030Z</time>
      </trkpt>
      <trkpt lat="47.903930" lon="8.033639">
        <ele>1191.326844</ele>
        <time>2026-07-15T10:35:24.514Z</time>
      </trkpt>
      <trkpt lat="47.903683" lon="8.033681">
        <ele>1192.757194</ele>
        <time>2026-07-15T10:35:40.565Z</time>
      </trkpt>
      <trkpt lat="47.903198" lon="8.034125">
        <ele>1196.031308</ele>
        <time>2026-07-15T10:36:10.308Z</time>
      </trkpt>
      <trkpt lat="47.901288" lon="8.035477">
        <ele>1205.267744</ele>
        <time>2026-07-15T10:37:49.600Z</time>
      </trkpt>
      <trkpt lat="47.899649" lon="8.036322">
        <ele>1215.108078</ele>
        <time>2026-07-15T10:39:19.355Z</time>
      </trkpt>
      <trkpt lat="47.899337" lon="8.036431">
        <ele>1217.032968</ele>
        <time>2026-07-15T10:39:37.857Z</time>
      </trkpt>
      <trkpt lat="47.898885" lon="8.036492">
        <ele>1220.076818</ele>
        <time>2026-07-15T10:40:04.427Z</time>
      </trkpt>
      <trkpt lat="47.898730" lon="8.036566">
        <ele>1221.168324</ele>
        <time>2026-07-15T10:40:14.073Z</time>
      </trkpt>
      <trkpt lat="47.898547" lon="8.036697">
        <ele>1222.529698</ele>
        <time>2026-07-15T10:40:26.172Z</time>
      </trkpt>
      <trkpt lat="47.897595" lon="8.037890">
        <ele>1229.340901</ele>
        <time>2026-07-15T10:41:32.725Z</time>
      </trkpt>
      <trkpt lat="47.897474" lon="8.037996">
        <ele>1229.537143</ele>
        <time>2026-07-15T10:41:39.124Z</time>
      </trkpt>
      <trkpt lat="47.896911" lon="8.038132">
        <ele>1230.334735</ele>
        <time>2026-07-15T10:42:03.616Z</time>
      </trkpt>
      <trkpt lat="47.896469" lon="8.038236">
        <ele>1230.960498</ele>
        <time>2026-07-15T10:42:24.937Z</time>
      </trkpt>
      <trkpt lat="47.896271" lon="8.038242">
        <ele>1231.237450</ele>
        <time>2026-07-15T10:42:34.209Z</time>
      </trkpt>
      <trkpt lat="47.896002" lon="8.038111">
        <ele>1231.154915</ele>
        <time>2026-07-15T10:42:47.400Z</time>
      </trkpt>
      <trkpt lat="47.895251" lon="8.037637">
        <ele>1229.257006</ele>
        <time>2026-07-15T10:43:25.235Z</time>
      </trkpt>
      <trkpt lat="47.894745" lon="8.037518">
        <ele>1228.064811</ele>
        <time>2026-07-15T10:43:48.710Z</time>
      </trkpt>
      <trkpt lat="47.894009" lon="8.037432">
        <ele>1225.232443</ele>
        <time>2026-07-15T10:44:21.201Z</time>
      </trkpt>
      <trkpt lat="47.893253" lon="8.037392">
        <ele>1221.341863</ele>
        <time>2026-07-15T10:44:53.249Z</time>
      </trkpt>
      <trkpt lat="47.892697" lon="8.037218">
        <ele>1218.420058</ele>
        <time>2026-07-15T10:45:17.210Z</time>
      </trkpt>
      <trkpt lat="47.892444" lon="8.037068">
        <ele>1217.135464</ele>
        <time>2026-07-15T10:45:28.839Z</time>
      </trkpt>
      <trkpt lat="47.892119" lon="8.036752">
        <ele>1215.371502</ele>
        <time>2026-07-15T10:45:45.510Z</time>
      </trkpt>
      <trkpt lat="47.891722" lon="8.036303">
        <ele>1213.106145</ele>
        <time>2026-07-15T10:46:07.128Z</time>
      </trkpt>
      <trkpt lat="47.890901" lon="8.035206">
        <ele>1208.872923</ele>
        <time>2026-07-15T10:46:55.672Z</time>
      </trkpt>
      <trkpt lat="47.890652" lon="8.034787">
        <ele>1207.927667</ele>
        <time>2026-07-15T10:47:12.671Z</time>
      </trkpt>
      <trkpt lat="47.890419" lon="8.034219">
        <ele>1206.803464</ele>
        <time>2026-07-15T10:47:33.156Z</time>
      </trkpt>
      <trkpt lat="47.890145" lon="8.033310">
        <ele>1205.075734</ele>
        <time>2026-07-15T10:48:04.204Z</time>
      </trkpt>
      <trkpt lat="47.889942" lon="8.032730">
        <ele>1203.708710</ele>
        <time>2026-07-15T10:48:24.612Z</time>
      </trkpt>
      <trkpt lat="47.889594" lon="8.032026">
        <ele>1201.881251</ele>
        <time>2026-07-15T10:48:51.320Z</time>
      </trkpt>
      <trkpt lat="47.888875" lon="8.031381">
        <ele>1198.718050</ele>
        <time>2026-07-15T10:49:28.149Z</time>
      </trkpt>
      <trkpt lat="47.887904" lon="8.030393">
        <ele>1190.479988</ele>
        <time>2026-07-15T10:50:16.502Z</time>
      </trkpt>
      <trkpt lat="47.887762" lon="8.030201">
        <ele>1189.136664</ele>
        <time>2026-07-15T10:50:24.091Z</time>
      </trkpt>
      <trkpt lat="47.887706" lon="8.030094">
        <ele>1188.498788</ele>
        <time>2026-07-15T10:50:27.611Z</time>
      </trkpt>
      <trkpt lat="47.887098" lon="8.029407">
        <ele>1185.729051</ele>
        <time>2026-07-15T10:50:58.220Z</time>
      </trkpt>
      <trkpt lat="47.886947" lon="8.029205">
        <ele>1185.235096</ele>
        <time>2026-07-15T10:51:07.044Z</time>
      </trkpt>
      <trkpt lat="47.886874" lon="8.029048">
        <ele>1184.923132</ele>
        <time>2026-07-15T10:51:12.894Z</time>
      </trkpt>
      <trkpt lat="47.886779" lon="8.028976">
        <ele>1184.663644</ele>
        <time>2026-07-15T10:51:17.827Z</time>
      </trkpt>
      <trkpt lat="47.886709" lon="8.028693">
        <ele>1184.171096</ele>
        <time>2026-07-15T10:51:26.236Z</time>
      </trkpt>
      <trkpt lat="47.886321" lon="8.027193">
        <ele>1184.513580</ele>
        <time>2026-07-15T10:52:15.710Z</time>
      </trkpt>
      <trkpt lat="47.886154" lon="8.026771">
        <ele>1185.733914</ele>
        <time>2026-07-15T10:52:32.017Z</time>
      </trkpt>
      <trkpt lat="47.885931" lon="8.026124">
        <ele>1187.545629</ele>
        <time>2026-07-15T10:52:55.425Z</time>
      </trkpt>
      <trkpt lat="47.885799" lon="8.025623">
        <ele>1188.886215</ele>
        <time>2026-07-15T10:53:12.529Z</time>
      </trkpt>
      <trkpt lat="47.885614" lon="8.024570">
        <ele>1191.182919</ele>
        <time>2026-07-15T10:53:48.274Z</time>
      </trkpt>
      <trkpt lat="47.885559" lon="8.024392">
        <ele>1191.578951</ele>
        <time>2026-07-15T10:53:54.798Z</time>
      </trkpt>
      <trkpt lat="47.885391" lon="8.024087">
        <ele>1192.376520</ele>
        <time>2026-07-15T10:54:07.829Z</time>
      </trkpt>
      <trkpt lat="47.885330" lon="8.023977">
        <ele>1192.664953</ele>
        <time>2026-07-15T10:54:12.464Z</time>
      </trkpt>
      <trkpt lat="47.885199" lon="8.023766">
        <ele>1193.245997</ele>
        <time>2026-07-15T10:54:21.445Z</time>
      </trkpt>
      <trkpt lat="47.884969" lon="8.023959">
        <ele>1194.041242</ele>
        <time>2026-07-15T10:54:33.197Z</time>
      </trkpt>
      <trkpt lat="47.884825" lon="8.024014">
        <ele>1194.489157</ele>
        <time>2026-07-15T10:54:39.542Z</time>
      </trkpt>
      <trkpt lat="47.884384" lon="8.024254">
        <ele>1195.010423</ele>
        <time>2026-07-15T10:54:58.687Z</time>
      </trkpt>
      <trkpt lat="47.884248" lon="8.024458">
        <ele>1195.112286</ele>
        <time>2026-07-15T10:55:06.301Z</time>
      </trkpt>
      <trkpt lat="47.884167" lon="8.024767">
        <ele>1195.229773</ele>
        <time>2026-07-15T10:55:15.040Z</time>
      </trkpt>
      <trkpt lat="47.884001" lon="8.024928">
        <ele>1195.334339</ele>
        <time>2026-07-15T10:55:22.973Z</time>
      </trkpt>
      <trkpt lat="47.883615" lon="8.024880">
        <ele>1195.538872</ele>
        <time>2026-07-15T10:55:39.290Z</time>
      </trkpt>
      <trkpt lat="47.883102" lon="8.024765">
        <ele>1195.993998</ele>
        <time>2026-07-15T10:56:02.255Z</time>
      </trkpt>
      <trkpt lat="47.882965" lon="8.024689">
        <ele>1196.400866</ele>
        <time>2026-07-15T10:56:08.915Z</time>
      </trkpt>
      <trkpt lat="47.882690" lon="8.024402">
        <ele>1197.335179</ele>
        <time>2026-07-15T10:56:24.684Z</time>
      </trkpt>
      <trkpt lat="47.882497" lon="8.024326">
        <ele>1197.890804</ele>
        <time>2026-07-15T10:56:34.367Z</time>
      </trkpt>
      <trkpt lat="47.882395" lon="8.024356">
        <ele>1198.180187</ele>
        <time>2026-07-15T10:56:39.407Z</time>
      </trkpt>
      <trkpt lat="47.882315" lon="8.024416">
        <ele>1198.429445</ele>
        <time>2026-07-15T10:56:44.563Z</time>
      </trkpt>
      <trkpt lat="47.882194" lon="8.024623">
        <ele>1198.942036</ele>
        <time>2026-07-15T10:56:53.403Z</time>
      </trkpt>
      <trkpt lat="47.882052" lon="8.024933">
        <ele>1199.642826</ele>
        <time>2026-07-15T10:57:05.451Z</time>
      </trkpt>
      <trkpt lat="47.881997" lon="8.025197">
        <ele>1200.158879</ele>
        <time>2026-07-15T10:57:13.988Z</time>
      </trkpt>
      <trkpt lat="47.881911" lon="8.026189">
        <ele>1200.741150</ele>
        <time>2026-07-15T10:57:42.191Z</time>
      </trkpt>
      <trkpt lat="47.881833" lon="8.026678">
        <ele>1200.714356</ele>
        <time>2026-07-15T10:57:56.248Z</time>
      </trkpt>
      <trkpt lat="47.881838" lon="8.026979">
        <ele>1200.698306</ele>
        <time>2026-07-15T10:58:04.475Z</time>
      </trkpt>
      <trkpt lat="47.881837" lon="8.027500">
        <ele>1200.670534</ele>
        <time>2026-07-15T10:58:18.581Z</time>
      </trkpt>
      <trkpt lat="47.881953" lon="8.028925">
        <ele>1199.832240</ele>
        <time>2026-07-15T10:58:56.833Z</time>
      </trkpt>
      <trkpt lat="47.881916" lon="8.029461">
        <ele>1199.254413</ele>
        <time>2026-07-15T10:59:11.192Z</time>
      </trkpt>
      <trkpt lat="47.881962" lon="8.029772">
        <ele>1198.912891</ele>
        <time>2026-07-15T10:59:19.646Z</time>
      </trkpt>
      <trkpt lat="47.882051" lon="8.030997">
        <ele>1197.843356</ele>
        <time>2026-07-15T10:59:51.938Z</time>
      </trkpt>
      <trkpt lat="47.882001" lon="8.031449">
        <ele>1198.095829</ele>
        <time>2026-07-15T11:00:03.959Z</time>
      </trkpt>
      <trkpt lat="47.882039" lon="8.032065">
        <ele>1198.436755</ele>
        <time>2026-07-15T11:00:20.537Z</time>
      </trkpt>
      <trkpt lat="47.882001" lon="8.032270">
        <ele>1198.553971</ele>
        <time>2026-07-15T11:00:26.429Z</time>
      </trkpt>
      <trkpt lat="47.881870" lon="8.032464">
        <ele>1198.705696</ele>
        <time>2026-07-15T11:00:34.406Z</time>
      </trkpt>
      <trkpt lat="47.881594" lon="8.032562">
        <ele>1198.938845</ele>
        <time>2026-07-15T11:00:47.450Z</time>
      </trkpt>
      <trkpt lat="47.881328" lon="8.032576">
        <ele>1199.157570</ele>
        <time>2026-07-15T11:01:00.370Z</time>
      </trkpt>
      <trkpt lat="47.880902" lon="8.032523">
        <ele>1200.798060</ele>
        <time>2026-07-15T11:01:21.123Z</time>
      </trkpt>
      <trkpt lat="47.880443" lon="8.032468">
        <ele>1202.963952</ele>
        <time>2026-07-15T11:01:44.615Z</time>
      </trkpt>
      <trkpt lat="47.880023" lon="8.032644">
        <ele>1205.015983</ele>
        <time>2026-07-15T11:02:07.398Z</time>
      </trkpt>
      <trkpt lat="47.879615" lon="8.032578">
        <ele>1206.946294</ele>
        <time>2026-07-15T11:02:28.341Z</time>
      </trkpt>
      <trkpt lat="47.879473" lon="8.032620">
        <ele>1207.627214</ele>
        <time>2026-07-15T11:02:35.422Z</time>
      </trkpt>
      <trkpt lat="47.879283" lon="8.032745">
        <ele>1208.034920</ele>
        <time>2026-07-15T11:02:45.156Z</time>
      </trkpt>
      <trkpt lat="47.879163" lon="8.032735">
        <ele>1208.245939</ele>
        <time>2026-07-15T11:02:50.721Z</time>
      </trkpt>
      <trkpt lat="47.878853" lon="8.032606">
        <ele>1208.811023</ele>
        <time>2026-07-15T11:03:05.573Z</time>
      </trkpt>
      <trkpt lat="47.878355" lon="8.032479">
        <ele>1209.698087</ele>
        <time>2026-07-15T11:03:27.802Z</time>
      </trkpt>
      <trkpt lat="47.878181" lon="8.032539">
        <ele>1210.011652</ele>
        <time>2026-07-15T11:03:35.289Z</time>
      </trkpt>
      <trkpt lat="47.877925" lon="8.032736">
        <ele>1210.517462</ele>
        <time>2026-07-15T11:03:47.127Z</time>
      </trkpt>
      <trkpt lat="47.877671" lon="8.033220">
        <ele>1210.883605</ele>
        <time>2026-07-15T11:04:03.829Z</time>
      </trkpt>
      <trkpt lat="47.877471" lon="8.033757">
        <ele>1210.939038</ele>
        <time>2026-07-15T11:04:20.311Z</time>
      </trkpt>
      <trkpt lat="47.877105" lon="8.034921">
        <ele>1211.055058</ele>
        <time>2026-07-15T11:04:56.011Z</time>
      </trkpt>
      <trkpt lat="47.876919" lon="8.036111">
        <ele>1209.877105</ele>
        <time>2026-07-15T11:05:31.373Z</time>
      </trkpt>
      <trkpt lat="47.876755" lon="8.036603">
        <ele>1209.006135</ele>
        <time>2026-07-15T11:05:48.930Z</time>
      </trkpt>
      <trkpt lat="47.876679" lon="8.036926">
        <ele>1208.463493</ele>
        <time>2026-07-15T11:05:59.388Z</time>
      </trkpt>
      <trkpt lat="47.876615" lon="8.037288">
        <ele>1207.870016</ele>
        <time>2026-07-15T11:06:10.441Z</time>
      </trkpt>
      <trkpt lat="47.876509" lon="8.038183">
        <ele>1204.720440</ele>
        <time>2026-07-15T11:06:36.138Z</time>
      </trkpt>
      <trkpt lat="47.876340" lon="8.038732">
        <ele>1199.825092</ele>
        <time>2026-07-15T11:06:52.307Z</time>
      </trkpt>
      <trkpt lat="47.876286" lon="8.038949">
        <ele>1197.949367</ele>
        <time>2026-07-15T11:06:58.336Z</time>
      </trkpt>
      <trkpt lat="47.876241" lon="8.039340">
        <ele>1194.734346</ele>
        <time>2026-07-15T11:07:08.435Z</time>
      </trkpt>
      <trkpt lat="47.876104" lon="8.039597">
        <ele>1192.073911</ele>
        <time>2026-07-15T11:07:16.777Z</time>
      </trkpt>
      <trkpt lat="47.875736" lon="8.039954">
        <ele>1186.769143</ele>
        <time>2026-07-15T11:07:33.283Z</time>
      </trkpt>
      <trkpt lat="47.875636" lon="8.040253">
        <ele>1183.259199</ele>
        <time>2026-07-15T11:07:41.686Z</time>
      </trkpt>
      <trkpt lat="47.875603" lon="8.040466">
        <ele>1180.135558</ele>
        <time>2026-07-15T11:07:47.180Z</time>
      </trkpt>
      <trkpt lat="47.875282" lon="8.040728">
        <ele>1172.339628</ele>
        <time>2026-07-15T11:08:00.792Z</time>
      </trkpt>
      <trkpt lat="47.874804" lon="8.040942">
        <ele>1161.707620</ele>
        <time>2026-07-15T11:08:19.548Z</time>
      </trkpt>
      <trkpt lat="47.874778" lon="8.040940">
        <ele>1161.153007</ele>
        <time>2026-07-15T11:08:20.518Z</time>
      </trkpt>
      <trkpt lat="47.874624" lon="8.040928">
        <ele>1157.867880</ele>
        <time>2026-07-15T11:08:26.355Z</time>
      </trkpt>
      <trkpt lat="47.874128" lon="8.040627">
        <ele>1146.517120</ele>
        <time>2026-07-15T11:08:46.539Z</time>
      </trkpt>
      <trkpt lat="47.873744" lon="8.040270">
        <ele>1138.518327</ele>
        <time>2026-07-15T11:09:03.358Z</time>
      </trkpt>
      <trkpt lat="47.873308" lon="8.039723">
        <ele>1128.446334</ele>
        <time>2026-07-15T11:09:24.631Z</time>
      </trkpt>
      <trkpt lat="47.872946" lon="8.039206">
        <ele>1119.585717</ele>
        <time>2026-07-15T11:09:43.530Z</time>
      </trkpt>
      <trkpt lat="47.872860" lon="8.039143">
        <ele>1117.892059</ele>
        <time>2026-07-15T11:09:47.159Z</time>
      </trkpt>
      <trkpt lat="47.872641" lon="8.038839">
        <ele>1114.056237</ele>
        <time>2026-07-15T11:09:58.498Z</time>
      </trkpt>
      <trkpt lat="47.872792" lon="8.039453">
        <ele>1110.993206</ele>
        <time>2026-07-15T11:10:12.747Z</time>
      </trkpt>
      <trkpt lat="47.872867" lon="8.039891">
        <ele>1108.875926</ele>
        <time>2026-07-15T11:10:23.116Z</time>
      </trkpt>
      <trkpt lat="47.872908" lon="8.040369">
        <ele>1106.618856</ele>
        <time>2026-07-15T11:10:34.832Z</time>
      </trkpt>
      <trkpt lat="47.872814" lon="8.040318">
        <ele>1105.920377</ele>
        <time>2026-07-15T11:10:38.642Z</time>
      </trkpt>
      <trkpt lat="47.872638" lon="8.040164">
        <ele>1104.495400</ele>
        <time>2026-07-15T11:10:46.483Z</time>
      </trkpt>
      <trkpt lat="47.872532" lon="8.039983">
        <ele>1103.369995</ele>
        <time>2026-07-15T11:10:52.739Z</time>
      </trkpt>
      <trkpt lat="47.872294" lon="8.039576">
        <ele>1102.000609</ele>
        <time>2026-07-15T11:11:06.967Z</time>
      </trkpt>
      <trkpt lat="47.872116" lon="8.039402">
        <ele>1101.588124</ele>
        <time>2026-07-15T11:11:15.400Z</time>
      </trkpt>
      <trkpt lat="47.871953" lon="8.038993">
        <ele>1100.969707</ele>
        <time>2026-07-15T11:11:28.239Z</time>
      </trkpt>
      <trkpt lat="47.871915" lon="8.038958">
        <ele>1100.883147</ele>
        <time>2026-07-15T11:11:30.079Z</time>
      </trkpt>
      <trkpt lat="47.871860" lon="8.038922">
        <ele>1100.766743</ele>
        <time>2026-07-15T11:11:32.637Z</time>
      </trkpt>
      <trkpt lat="47.871787" lon="8.038875">
        <ele>1100.612649</ele>
        <time>2026-07-15T11:11:35.937Z</time>
      </trkpt>
      <trkpt lat="47.871701" lon="8.038839">
        <ele>1100.439546</ele>
        <time>2026-07-15T11:11:39.630Z</time>
      </trkpt>
      <trkpt lat="47.871558" lon="8.038870">
        <ele>1100.159515</ele>
        <time>2026-07-15T11:11:45.556Z</time>
      </trkpt>
      <trkpt lat="47.871322" lon="8.039006">
        <ele>1099.669196</ele>
        <time>2026-07-15T11:11:55.668Z</time>
      </trkpt>
      <trkpt lat="47.871107" lon="8.039081">
        <ele>1099.241298</ele>
        <time>2026-07-15T11:12:04.005Z</time>
      </trkpt>
      <trkpt lat="47.870474" lon="8.039487">
        <ele>1098.961423</ele>
        <time>2026-07-15T11:12:28.881Z</time>
      </trkpt>
      <trkpt lat="47.870005" lon="8.039880">
        <ele>1098.962323</ele>
        <time>2026-07-15T11:12:49.882Z</time>
      </trkpt>
      <trkpt lat="47.869774" lon="8.039724">
        <ele>1098.962747</ele>
        <time>2026-07-15T11:13:01.196Z</time>
      </trkpt>
      <trkpt lat="47.869700" lon="8.039589">
        <ele>1098.962943</ele>
        <time>2026-07-15T11:13:06.695Z</time>
      </trkpt>
      <trkpt lat="47.869554" lon="8.039073">
        <ele>1099.293983</ele>
        <time>2026-07-15T11:13:25.309Z</time>
      </trkpt>
      <trkpt lat="47.869461" lon="8.038579">
        <ele>1103.110385</ele>
        <time>2026-07-15T11:13:45.492Z</time>
      </trkpt>
      <trkpt lat="47.869299" lon="8.038362">
        <ele>1105.525311</ele>
        <time>2026-07-15T11:14:00.344Z</time>
      </trkpt>
      <trkpt lat="47.869230" lon="8.038310">
        <ele>1106.382604</ele>
        <time>2026-07-15T11:14:05.907Z</time>
      </trkpt>
      <trkpt lat="47.868907" lon="8.038214">
        <ele>1110.034560</ele>
        <time>2026-07-15T11:14:31.177Z</time>
      </trkpt>
      <trkpt lat="47.868685" lon="8.038098">
        <ele>1112.642966</ele>
        <time>2026-07-15T11:14:49.435Z</time>
      </trkpt>
      <trkpt lat="47.868286" lon="8.038059">
        <ele>1117.076628</ele>
        <time>2026-07-15T11:15:20.098Z</time>
      </trkpt>
      <trkpt lat="47.868209" lon="8.038099">
        <ele>1117.980772</ele>
        <time>2026-07-15T11:15:25.935Z</time>
      </trkpt>
      <trkpt lat="47.868030" lon="8.038259">
        <ele>1120.263978</ele>
        <time>2026-07-15T11:15:41.011Z</time>
      </trkpt>
      <trkpt lat="47.867865" lon="8.038534">
        <ele>1122.946956</ele>
        <time>2026-07-15T11:15:58.441Z</time>
      </trkpt>
      <trkpt lat="47.867698" lon="8.038745">
        <ele>1125.320047</ele>
        <time>2026-07-15T11:16:14.049Z</time>
      </trkpt>
      <trkpt lat="47.867522" lon="8.039358">
        <ele>1130.168926</ele>
        <time>2026-07-15T11:16:45.304Z</time>
      </trkpt>
      <trkpt lat="47.867507" lon="8.039643">
        <ele>1132.247833</ele>
        <time>2026-07-15T11:16:58.525Z</time>
      </trkpt>
      <trkpt lat="47.867621" lon="8.040688">
        <ele>1139.324458</ele>
        <time>2026-07-15T11:17:44.300Z</time>
      </trkpt>
      <trkpt lat="47.867635" lon="8.041286">
        <ele>1141.919572</ele>
        <time>2026-07-15T11:18:08.101Z</time>
      </trkpt>
      <trkpt lat="47.867574" lon="8.041943">
        <ele>1144.796153</ele>
        <time>2026-07-15T11:18:32.888Z</time>
      </trkpt>
      <trkpt lat="47.867457" lon="8.042655">
        <ele>1147.975407</ele>
        <time>2026-07-15T11:18:58.379Z</time>
      </trkpt>
      <trkpt lat="47.867423" lon="8.043011">
        <ele>1149.534958</ele>
        <time>2026-07-15T11:19:10.234Z</time>
      </trkpt>
      <trkpt lat="47.867437" lon="8.043444">
        <ele>1150.640005</ele>
        <time>2026-07-15T11:19:23.639Z</time>
      </trkpt>
      <trkpt lat="47.867401" lon="8.043846">
        <ele>1151.412656</ele>
        <time>2026-07-15T11:19:35.378Z</time>
      </trkpt>
      <trkpt lat="47.867323" lon="8.044018">
        <ele>1151.808182</ele>
        <time>2026-07-15T11:19:41.298Z</time>
      </trkpt>
      <trkpt lat="47.866601" lon="8.044923">
        <ele>1154.487126</ele>
        <time>2026-07-15T11:20:22.748Z</time>
      </trkpt>
      <trkpt lat="47.866533" lon="8.045097">
        <ele>1154.870768</ele>
        <time>2026-07-15T11:20:29.450Z</time>
      </trkpt>
      <trkpt lat="47.866468" lon="8.045492">
        <ele>1156.161539</ele>
        <time>2026-07-15T11:20:43.380Z</time>
      </trkpt>
      <trkpt lat="47.866340" lon="8.045590">
        <ele>1156.987776</ele>
        <time>2026-07-15T11:20:50.896Z</time>
      </trkpt>
      <trkpt lat="47.865499" lon="8.045711">
        <ele>1161.839127</ele>
        <time>2026-07-15T11:21:36.023Z</time>
      </trkpt>
      <trkpt lat="47.865428" lon="8.045758">
        <ele>1162.285193</ele>
        <time>2026-07-15T11:21:40.248Z</time>
      </trkpt>
      <trkpt lat="47.865376" lon="8.045842">
        <ele>1162.725475</ele>
        <time>2026-07-15T11:21:44.502Z</time>
      </trkpt>
      <trkpt lat="47.865368" lon="8.046188">
        <ele>1164.059084</ele>
        <time>2026-07-15T11:21:57.443Z</time>
      </trkpt>
      <trkpt lat="47.865107" lon="8.046635">
        <ele>1166.039902</ele>
        <time>2026-07-15T11:22:18.830Z</time>
      </trkpt>
      <trkpt lat="47.865016" lon="8.046997">
        <ele>1167.014376</ele>
        <time>2026-07-15T11:22:31.793Z</time>
      </trkpt>
      <trkpt lat="47.864981" lon="8.047367">
        <ele>1167.956287</ele>
        <time>2026-07-15T11:22:43.726Z</time>
      </trkpt>
      <trkpt lat="47.864987" lon="8.047831">
        <ele>1169.126141</ele>
        <time>2026-07-15T11:22:58.153Z</time>
      </trkpt>
      <trkpt lat="47.864941" lon="8.048346">
        <ele>1170.435793</ele>
        <time>2026-07-15T11:23:14.157Z</time>
      </trkpt>
      <trkpt lat="47.864807" lon="8.048767">
        <ele>1171.610420</ele>
        <time>2026-07-15T11:23:28.601Z</time>
      </trkpt>
      <trkpt lat="47.864683" lon="8.049053">
        <ele>1172.466522</ele>
        <time>2026-07-15T11:23:39.057Z</time>
      </trkpt>
      <trkpt lat="47.864601" lon="8.049141">
        <ele>1172.842586</ele>
        <time>2026-07-15T11:23:43.579Z</time>
      </trkpt>
      <trkpt lat="47.864316" lon="8.049264">
        <ele>1173.946884</ele>
        <time>2026-07-15T11:23:56.692Z</time>
      </trkpt>
      <trkpt lat="47.863672" lon="8.049717">
        <ele>1176.597256</ele>
        <time>2026-07-15T11:24:29.366Z</time>
      </trkpt>
      <trkpt lat="47.863246" lon="8.050189">
        <ele>1178.572833</ele>
        <time>2026-07-15T11:24:56.233Z</time>
      </trkpt>
      <trkpt lat="47.863067" lon="8.050267">
        <ele>1179.689798</ele>
        <time>2026-07-15T11:25:06.175Z</time>
      </trkpt>
      <trkpt lat="47.862881" lon="8.050281">
        <ele>1181.229838</ele>
        <time>2026-07-15T11:25:16.270Z</time>
      </trkpt>
      <trkpt lat="47.862636" lon="8.050136">
        <ele>1183.409671</ele>
        <time>2026-07-15T11:25:30.537Z</time>
      </trkpt>
      <trkpt lat="47.862543" lon="8.050097">
        <ele>1184.208569</ele>
        <time>2026-07-15T11:25:35.840Z</time>
      </trkpt>
      <trkpt lat="47.862465" lon="8.050104">
        <ele>1184.854738</ele>
        <time>2026-07-15T11:25:40.213Z</time>
      </trkpt>
      <trkpt lat="47.862253" lon="8.050165">
        <ele>1186.640185</ele>
        <time>2026-07-15T11:25:52.683Z</time>
      </trkpt>
      <trkpt lat="47.861924" lon="8.050455">
        <ele>1189.800909</ele>
        <time>2026-07-15T11:26:16.712Z</time>
      </trkpt>
      <trkpt lat="47.861724" lon="8.050496">
        <ele>1191.470328</ele>
        <time>2026-07-15T11:26:30.395Z</time>
      </trkpt>
      <trkpt lat="47.861475" lon="8.050474">
        <ele>1193.532985</ele>
        <time>2026-07-15T11:26:47.597Z</time>
      </trkpt>
      <trkpt lat="47.861310" lon="8.050425">
        <ele>1195.093986</ele>
        <time>2026-07-15T11:26:59.167Z</time>
      </trkpt>
      <trkpt lat="47.861130" lon="8.050267">
        <ele>1197.080905</ele>
        <time>2026-07-15T11:27:13.274Z</time>
      </trkpt>
      <trkpt lat="47.860819" lon="8.050062">
        <ele>1200.315366</ele>
        <time>2026-07-15T11:27:35.834Z</time>
      </trkpt>
      <trkpt lat="47.861399" lon="8.049494">
        <ele>1206.916319</ele>
        <time>2026-07-15T11:28:20.017Z</time>
      </trkpt>
      <trkpt lat="47.861486" lon="8.049290">
        <ele>1208.458892</ele>
        <time>2026-07-15T11:28:30.131Z</time>
      </trkpt>
      <trkpt lat="47.861593" lon="8.049154">
        <ele>1209.796431</ele>
        <time>2026-07-15T11:28:38.571Z</time>
      </trkpt>
      <trkpt lat="47.861797" lon="8.049020">
        <ele>1211.908897</ele>
        <time>2026-07-15T11:28:51.233Z</time>
      </trkpt>
      <trkpt lat="47.862002" lon="8.048655">
        <ele>1214.922723</ele>
        <time>2026-07-15T11:29:09.439Z</time>
      </trkpt>
      <trkpt lat="47.862283" lon="8.047739">
        <ele>1221.299774</ele>
        <time>2026-07-15T11:29:49.093Z</time>
      </trkpt>
      <trkpt lat="47.862353" lon="8.047599">
        <ele>1222.405244</ele>
        <time>2026-07-15T11:29:56.391Z</time>
      </trkpt>
      <trkpt lat="47.862467" lon="8.047517">
        <ele>1223.599776</ele>
        <time>2026-07-15T11:30:04.575Z</time>
      </trkpt>
      <trkpt lat="47.862648" lon="8.047491">
        <ele>1225.315775</ele>
        <time>2026-07-15T11:30:17.008Z</time>
      </trkpt>
      <trkpt lat="47.862923" lon="8.047396">
        <ele>1228.036424</ele>
        <time>2026-07-15T11:30:37.272Z</time>
      </trkpt>
      <trkpt lat="47.863183" lon="8.047225">
        <ele>1232.181433</ele>
        <time>2026-07-15T11:30:58.441Z</time>
      </trkpt>
      <trkpt lat="47.863368" lon="8.047239">
        <ele>1234.883233</ele>
        <time>2026-07-15T11:31:12.792Z</time>
      </trkpt>
      <trkpt lat="47.863549" lon="8.047168">
        <ele>1237.613107</ele>
        <time>2026-07-15T11:31:27.588Z</time>
      </trkpt>
      <trkpt lat="47.863618" lon="8.047052">
        <ele>1239.130115</ele>
        <time>2026-07-15T11:31:35.910Z</time>
      </trkpt>
      <trkpt lat="47.863639" lon="8.046499">
        <ele>1244.550105</ele>
        <time>2026-07-15T11:32:06.142Z</time>
      </trkpt>
      <trkpt lat="47.863334" lon="8.045743">
        <ele>1253.182438</ele>
        <time>2026-07-15T11:32:55.550Z</time>
      </trkpt>
      <trkpt lat="47.863280" lon="8.045504">
        <ele>1255.346014</ele>
        <time>2026-07-15T11:33:09.810Z</time>
      </trkpt>
      <trkpt lat="47.863258" lon="8.045086">
        <ele>1258.638554</ele>
        <time>2026-07-15T11:33:33.019Z</time>
      </trkpt>
      <trkpt lat="47.863175" lon="8.044774">
        <ele>1261.274199</ele>
        <time>2026-07-15T11:33:50.856Z</time>
      </trkpt>
      <trkpt lat="47.863208" lon="8.044648">
        <ele>1262.336369</ele>
        <time>2026-07-15T11:33:57.839Z</time>
      </trkpt>
      <trkpt lat="47.863347" lon="8.044511">
        <ele>1264.286862</ele>
        <time>2026-07-15T11:34:10.368Z</time>
      </trkpt>
      <trkpt lat="47.863481" lon="8.044329">
        <ele>1266.408798</ele>
        <time>2026-07-15T11:34:23.446Z</time>
      </trkpt>
      <trkpt lat="47.863522" lon="8.043981">
        <ele>1269.183365</ele>
        <time>2026-07-15T11:34:39.577Z</time>
      </trkpt>
      <trkpt lat="47.863592" lon="8.043786">
        <ele>1270.920065</ele>
        <time>2026-07-15T11:34:48.922Z</time>
      </trkpt>
      <trkpt lat="47.863698" lon="8.043648">
        <ele>1272.567397</ele>
        <time>2026-07-15T11:34:57.357Z</time>
      </trkpt>
      <trkpt lat="47.863910" lon="8.043174">
        <ele>1275.465344</ele>
        <time>2026-07-15T11:35:18.312Z</time>
      </trkpt>
      <trkpt lat="47.864221" lon="8.042935">
        <ele>1276.125288</ele>
        <time>2026-07-15T11:35:35.458Z</time>
      </trkpt>
      <trkpt lat="47.864602" lon="8.042812">
        <ele>1276.860549</ele>
        <time>2026-07-15T11:35:52.863Z</time>
      </trkpt>
      <trkpt lat="47.864759" lon="8.042646">
        <ele>1277.223597</ele>
        <time>2026-07-15T11:36:00.995Z</time>
      </trkpt>
      <trkpt lat="47.864874" lon="8.042337">
        <ele>1277.670721</ele>
        <time>2026-07-15T11:36:10.776Z</time>
      </trkpt>
      <trkpt lat="47.864968" lon="8.042235">
        <ele>1277.890016</ele>
        <time>2026-07-15T11:36:15.505Z</time>
      </trkpt>
      <trkpt lat="47.865125" lon="8.042203">
        <ele>1278.188887</ele>
        <time>2026-07-15T11:36:21.876Z</time>
      </trkpt>
      <trkpt lat="47.865253" lon="8.042077">
        <ele>1278.478199</ele>
        <time>2026-07-15T11:36:27.953Z</time>
      </trkpt>
      <trkpt lat="47.865437" lon="8.041759">
        <ele>1277.723434</ele>
        <time>2026-07-15T11:36:38.878Z</time>
      </trkpt>
      <trkpt lat="47.865551" lon="8.041630">
        <ele>1277.229423</ele>
        <time>2026-07-15T11:36:44.277Z</time>
      </trkpt>
      <trkpt lat="47.865605" lon="8.041467">
        <ele>1276.808480</ele>
        <time>2026-07-15T11:36:48.843Z</time>
      </trkpt>
      <trkpt lat="47.865606" lon="8.041292">
        <ele>1276.403247</ele>
        <time>2026-07-15T11:36:53.172Z</time>
      </trkpt>
      <trkpt lat="47.865553" lon="8.041122">
        <ele>1275.969177</ele>
        <time>2026-07-15T11:36:57.822Z</time>
      </trkpt>
      <trkpt lat="47.865555" lon="8.041007">
        <ele>1275.702801</ele>
        <time>2026-07-15T11:37:00.644Z</time>
      </trkpt>
      <trkpt lat="47.865671" lon="8.040771">
        <ele>1275.025360</ele>
        <time>2026-07-15T11:37:07.853Z</time>
      </trkpt>
      <trkpt lat="47.865685" lon="8.040628">
        <ele>1274.690732</ele>
        <time>2026-07-15T11:37:11.455Z</time>
      </trkpt>
      <trkpt lat="47.865491" lon="8.039929">
        <ele>1272.939136</ele>
        <time>2026-07-15T11:37:30.338Z</time>
      </trkpt>
      <trkpt lat="47.865325" lon="8.039510">
        <ele>1272.236635</ele>
        <time>2026-07-15T11:37:42.756Z</time>
      </trkpt>
      <trkpt lat="47.865199" lon="8.039380">
        <ele>1272.127426</ele>
        <time>2026-07-15T11:37:48.668Z</time>
      </trkpt>
      <trkpt lat="47.864897" lon="8.039293">
        <ele>1271.908216</ele>
        <time>2026-07-15T11:38:00.669Z</time>
      </trkpt>
      <trkpt lat="47.864649" lon="8.039147">
        <ele>1271.718187</ele>
        <time>2026-07-15T11:38:11.425Z</time>
      </trkpt>
      <trkpt lat="47.864534" lon="8.038888">
        <ele>1271.569689</ele>
        <time>2026-07-15T11:38:20.116Z</time>
      </trkpt>
      <trkpt lat="47.864398" lon="8.038681">
        <ele>1271.431163</ele>
        <time>2026-07-15T11:38:28.360Z</time>
      </trkpt>
      <trkpt lat="47.864249" lon="8.038534">
        <ele>1271.303822</ele>
        <time>2026-07-15T11:38:35.940Z</time>
      </trkpt>
      <trkpt lat="47.864140" lon="8.038383">
        <ele>1271.197771</ele>
        <time>2026-07-15T11:38:42.317Z</time>
      </trkpt>
      <trkpt lat="47.863586" lon="8.037520">
        <ele>1273.124071</ele>
        <time>2026-07-15T11:39:16.561Z</time>
      </trkpt>
      <trkpt lat="47.863617" lon="8.037390">
        <ele>1273.433799</ele>
        <time>2026-07-15T11:39:20.499Z</time>
      </trkpt>
      <trkpt lat="47.863590" lon="8.037297">
        <ele>1273.661288</ele>
        <time>2026-07-15T11:39:23.546Z</time>
      </trkpt>
      <trkpt lat="47.863461" lon="8.037129">
        <ele>1274.234497</ele>
        <time>2026-07-15T11:39:31.135Z</time>
      </trkpt>
      <trkpt lat="47.863241" lon="8.036981">
        <ele>1275.042159</ele>
        <time>2026-07-15T11:39:42.232Z</time>
      </trkpt>
      <trkpt lat="47.863123" lon="8.036809">
        <ele>1275.594430</ele>
        <time>2026-07-15T11:39:50.015Z</time>
      </trkpt>
      <trkpt lat="47.863109" lon="8.036749">
        <ele>1275.737041</ele>
        <time>2026-07-15T11:39:52.095Z</time>
      </trkpt>
      <trkpt lat="47.863127" lon="8.036687">
        <ele>1275.888701</ele>
        <time>2026-07-15T11:39:54.267Z</time>
      </trkpt>
      <trkpt lat="47.863147" lon="8.036482">
        <ele>1276.353758</ele>
        <time>2026-07-15T11:40:01.230Z</time>
      </trkpt>
      <trkpt lat="47.863287" lon="8.035208">
        <ele>1286.473741</ele>
        <time>2026-07-15T11:41:02.066Z</time>
      </trkpt>
      <trkpt lat="47.863343" lon="8.035096">
        <ele>1287.831792</ele>
        <time>2026-07-15T11:41:09.933Z</time>
      </trkpt>
      <trkpt lat="47.863450" lon="8.034980">
        <ele>1289.749154</ele>
        <time>2026-07-15T11:41:21.719Z</time>
      </trkpt>
      <trkpt lat="47.863563" lon="8.034891">
        <ele>1291.601258</ele>
        <time>2026-07-15T11:41:33.958Z</time>
      </trkpt>
      <trkpt lat="47.863688" lon="8.034871">
        <ele>1293.423109</ele>
        <time>2026-07-15T11:41:46.779Z</time>
      </trkpt>
      <trkpt lat="47.863990" lon="8.034454">
        <ele>1299.388836</ele>
        <time>2026-07-15T11:42:32.790Z</time>
      </trkpt>
      <trkpt lat="47.864110" lon="8.034161">
        <ele>1302.726312</ele>
        <time>2026-07-15T11:43:01.160Z</time>
      </trkpt>
      <trkpt lat="47.864122" lon="8.034076">
        <ele>1303.878208</ele>
        <time>2026-07-15T11:43:08.782Z</time>
      </trkpt>
      <trkpt lat="47.864272" lon="8.033398">
        <ele>1315.876209</ele>
        <time>2026-07-15T11:44:13.243Z</time>
      </trkpt>
      <trkpt lat="47.864305" lon="8.033276">
        <ele>1318.086905</ele>
        <time>2026-07-15T11:44:25.463Z</time>
      </trkpt>
      <trkpt lat="47.864384" lon="8.032936">
        <ele>1324.133899</ele>
        <time>2026-07-15T11:44:59.712Z</time>
      </trkpt>
      <trkpt lat="47.864451" lon="8.032645">
        <ele>1329.304389</ele>
        <time>2026-07-15T11:45:29.918Z</time>
      </trkpt>
      <trkpt lat="47.864594" lon="8.032308">
        <ele>1336.005732</ele>
        <time>2026-07-15T11:46:10.386Z</time>
      </trkpt>
      <trkpt lat="47.864634" lon="8.032069">
        <ele>1340.145417</ele>
        <time>2026-07-15T11:46:34.969Z</time>
      </trkpt>
      <trkpt lat="47.864651" lon="8.031785">
        <ele>1344.937224</ele>
        <time>2026-07-15T11:47:02.865Z</time>
      </trkpt>
      <trkpt lat="47.864597" lon="8.031405">
        <ele>1351.236619</ele>
        <time>2026-07-15T11:47:40.386Z</time>
      </trkpt>
      <trkpt lat="47.864934" lon="8.030612">
        <ele>1365.906546</ele>
        <time>2026-07-15T11:49:11.070Z</time>
      </trkpt>
      <trkpt lat="47.864957" lon="8.030485">
        <ele>1367.962306</ele>
        <time>2026-07-15T11:49:23.269Z</time>
      </trkpt>
      <trkpt lat="47.864944" lon="8.029955">
        <ele>1376.250513</ele>
        <time>2026-07-15T11:50:10.609Z</time>
      </trkpt>
      <trkpt lat="47.864880" lon="8.029766">
        <ele>1379.559070</ele>
        <time>2026-07-15T11:50:28.622Z</time>
      </trkpt>
      <trkpt lat="47.864811" lon="8.028901">
        <ele>1392.366773</ele>
        <time>2026-07-15T11:51:36.131Z</time>
      </trkpt>
      <trkpt lat="47.864829" lon="8.028293">
        <ele>1399.381320</ele>
        <time>2026-07-15T11:52:18.970Z</time>
      </trkpt>
      <trkpt lat="47.864786" lon="8.027831">
        <ele>1404.757271</ele>
        <time>2026-07-15T11:52:50.243Z</time>
      </trkpt>
      <trkpt lat="47.864808" lon="8.027597">
        <ele>1407.480680</ele>
        <time>2026-07-15T11:53:06.039Z</time>
      </trkpt>
      <trkpt lat="47.864967" lon="8.027138">
        <ele>1413.434658</ele>
        <time>2026-07-15T11:53:41.127Z</time>
      </trkpt>
      <trkpt lat="47.865398" lon="8.026324">
        <ele>1423.240521</ele>
        <time>2026-07-15T11:54:50.861Z</time>
      </trkpt>
      <trkpt lat="47.865419" lon="8.026236">
        <ele>1423.789833</ele>
        <time>2026-07-15T11:54:56.719Z</time>
      </trkpt>
      <trkpt lat="47.865411" lon="8.025768">
        <ele>1426.543121</ele>
        <time>2026-07-15T11:55:24.691Z</time>
      </trkpt>
      <trkpt lat="47.865443" lon="8.025645">
        <ele>1427.318996</ele>
        <time>2026-07-15T11:55:32.176Z</time>
      </trkpt>
      <trkpt lat="47.865538" lon="8.025653">
        <ele>1428.153136</ele>
        <time>2026-07-15T11:55:39.785Z</time>
      </trkpt>
      <trkpt lat="47.865628" lon="8.025502">
        <ele>1429.341048</ele>
        <time>2026-07-15T11:55:48.537Z</time>
      </trkpt>
      <trkpt lat="47.865701" lon="8.025453">
        <ele>1430.042890</ele>
        <time>2026-07-15T11:55:53.457Z</time>
      </trkpt>
      <trkpt lat="47.865711" lon="8.025381">
        <ele>1430.475313</ele>
        <time>2026-07-15T11:55:56.339Z</time>
      </trkpt>
      <trkpt lat="47.865711" lon="8.025381">
        <ele>1430.475313</ele>
        <time>2026-07-15T11:55:56.339Z</time>
      </trkpt>
      <trkpt lat="47.865794" lon="8.024689">
        <ele>1434.609598</ele>
        <time>2026-07-15T11:56:20.648Z</time>
      </trkpt>
      <trkpt lat="47.865771" lon="8.023681">
        <ele>1435.198646</ele>
        <time>2026-07-15T11:56:48.057Z</time>
      </trkpt>
      <trkpt lat="47.865702" lon="8.023108">
        <ele>1433.769351</ele>
        <time>2026-07-15T11:57:02.565Z</time>
      </trkpt>
      <trkpt lat="47.865748" lon="8.022783">
        <ele>1432.953856</ele>
        <time>2026-07-15T11:57:10.687Z</time>
      </trkpt>
      <trkpt lat="47.865902" lon="8.022279">
        <ele>1431.594151</ele>
        <time>2026-07-15T11:57:24.120Z</time>
      </trkpt>
      <trkpt lat="47.866184" lon="8.021684">
        <ele>1429.580866</ele>
        <time>2026-07-15T11:57:41.604Z</time>
      </trkpt>
      <trkpt lat="47.866428" lon="8.020730">
        <ele>1425.607886</ele>
        <time>2026-07-15T11:58:05.853Z</time>
      </trkpt>
      <trkpt lat="47.867157" lon="8.018690">
        <ele>1419.638081</ele>
        <time>2026-07-15T11:59:01.916Z</time>
      </trkpt>
      <trkpt lat="47.867287" lon="8.018021">
        <ele>1419.535849</ele>
        <time>2026-07-15T11:59:20.495Z</time>
      </trkpt>
      <trkpt lat="47.867287" lon="8.018021">
        <ele>1419.535849</ele>
        <time>2026-07-15T11:59:20.495Z</time>
      </trkpt>
      <trkpt lat="47.867306" lon="8.017931">
        <ele>1419.522000</ele>
        <time>2026-07-15T11:59:23.142Z</time>
      </trkpt>
      <trkpt lat="47.867359" lon="8.017657">
        <ele>1419.480144</ele>
        <time>2026-07-15T11:59:31.371Z</time>
      </trkpt>
      <trkpt lat="47.867411" lon="8.017425">
        <ele>1419.444241</ele>
        <time>2026-07-15T11:59:38.804Z</time>
      </trkpt>
      <trkpt lat="47.867476" lon="8.017253">
        <ele>1419.415265</ele>
        <time>2026-07-15T11:59:45.066Z</time>
      </trkpt>
      <trkpt lat="47.867579" lon="8.017073">
        <ele>1419.380539</ele>
        <time>2026-07-15T11:59:52.932Z</time>
      </trkpt>
      <trkpt lat="47.867841" lon="8.016683">
        <ele>1422.167687</ele>
        <time>2026-07-15T12:00:12.972Z</time>
      </trkpt>
      <trkpt lat="47.868382" lon="8.016064">
        <ele>1428.750577</ele>
        <time>2026-07-15T12:00:56.749Z</time>
      </trkpt>
      <trkpt lat="47.868523" lon="8.015811">
        <ele>1430.880386</ele>
        <time>2026-07-15T12:01:12.417Z</time>
      </trkpt>
      <trkpt lat="47.868789" lon="8.015179">
        <ele>1435.711463</ele>
        <time>2026-07-15T12:01:48.670Z</time>
      </trkpt>
      <trkpt lat="47.869221" lon="8.014394">
        <ele>1441.481905</ele>
        <time>2026-07-15T12:02:38.017Z</time>
      </trkpt>
      <trkpt lat="47.869643" lon="8.013517">
        <ele>1447.460017</ele>
        <time>2026-07-15T12:03:22.414Z</time>
      </trkpt>
      <trkpt lat="47.869990" lon="8.012604">
        <ele>1452.036628</ele>
        <time>2026-07-15T12:03:56.483Z</time>
      </trkpt>
      <trkpt lat="47.870291" lon="8.012051">
        <ele>1453.108348</ele>
        <time>2026-07-15T12:04:16.546Z</time>
      </trkpt>
      <trkpt lat="47.870836" lon="8.010947">
        <ele>1455.171168</ele>
        <time>2026-07-15T12:04:55.264Z</time>
      </trkpt>
      <trkpt lat="47.871648" lon="8.009154">
        <ele>1463.011321</ele>
        <time>2026-07-15T12:06:08.584Z</time>
      </trkpt>
      <trkpt lat="47.871937" lon="8.008611">
        <ele>1465.752642</ele>
        <time>2026-07-15T12:06:36.574Z</time>
      </trkpt>
      <trkpt lat="47.871991" lon="8.008436">
        <ele>1466.575604</ele>
        <time>2026-07-15T12:06:44.487Z</time>
      </trkpt>
      <trkpt lat="47.872054" lon="8.008059">
        <ele>1468.426085</ele>
        <time>2026-07-15T12:07:00.556Z</time>
      </trkpt>
      <trkpt lat="47.872166" lon="8.007801">
        <ele>1469.889781</ele>
        <time>2026-07-15T12:07:13.126Z</time>
      </trkpt>
      <trkpt lat="47.872230" lon="8.007668">
        <ele>1470.669378</ele>
        <time>2026-07-15T12:07:19.865Z</time>
      </trkpt>
      <trkpt lat="47.872420" lon="8.007500">
        <ele>1472.237898</ele>
        <time>2026-07-15T12:07:33.006Z</time>
      </trkpt>
      <trkpt lat="47.872718" lon="8.007092">
        <ele>1475.110744</ele>
        <time>2026-07-15T12:07:55.842Z</time>
      </trkpt>
      <trkpt lat="47.872847" lon="8.006663">
        <ele>1477.349894</ele>
        <time>2026-07-15T12:08:12.463Z</time>
      </trkpt>
      <trkpt lat="47.872886" lon="8.006539">
        <ele>1478.002177</ele>
        <time>2026-07-15T12:08:17.085Z</time>
      </trkpt>
      <trkpt lat="47.873239" lon="8.005427">
        <ele>1478.840997</ele>
        <time>2026-07-15T12:08:57.042Z</time>
      </trkpt>
      <trkpt lat="47.873390" lon="8.005157">
        <ele>1478.791120</ele>
        <time>2026-07-15T12:09:07.398Z</time>
      </trkpt>
      <trkpt lat="47.873531" lon="8.004990">
        <ele>1478.753028</ele>
        <time>2026-07-15T12:09:14.943Z</time>
      </trkpt>
      <trkpt lat="47.873620" lon="8.005079">
        <ele>1478.730360</ele>
        <time>2026-07-15T12:09:20.018Z</time>
      </trkpt>
      <trkpt lat="47.873676" lon="8.004933">
        <ele>1478.706497</ele>
        <time>2026-07-15T12:09:25.229Z</time>
      </trkpt>
      <trkpt lat="47.873716" lon="8.004878">
        <ele>1478.694987</ele>
        <time>2026-07-15T12:09:27.707Z</time>
      </trkpt>
      <trkpt lat="47.873676" lon="8.004933">
        <ele>1478.683477</ele>
        <time>2026-07-15T12:09:30.085Z</time>
      </trkpt>
      <trkpt lat="47.873620" lon="8.005079">
        <ele>1478.659614</ele>
        <time>2026-07-15T12:09:35.045Z</time>
      </trkpt>
      <trkpt lat="47.873531" lon="8.004990">
        <ele>1478.636946</ele>
        <time>2026-07-15T12:09:39.557Z</time>
      </trkpt>
      <trkpt lat="47.873390" lon="8.005157">
        <ele>1478.181888</ele>
        <time>2026-07-15T12:09:45.881Z</time>
      </trkpt>
      <trkpt lat="47.873146" lon="8.005121">
        <ele>1475.006582</ele>
        <time>2026-07-15T12:09:55.581Z</time>
      </trkpt>
      <trkpt lat="47.873086" lon="8.005065">
        <ele>1474.089851</ele>
        <time>2026-07-15T12:09:58.345Z</time>
      </trkpt>
      <trkpt lat="47.872855" lon="8.004566">
        <ele>1468.823100</ele>
        <time>2026-07-15T12:10:13.759Z</time>
      </trkpt>
      <trkpt lat="47.872788" lon="8.004371">
        <ele>1466.919889</ele>
        <time>2026-07-15T12:10:19.308Z</time>
      </trkpt>
      <trkpt lat="47.872619" lon="8.003615">
        <ele>1459.997587</ele>
        <time>2026-07-15T12:10:39.425Z</time>
      </trkpt>
      <trkpt lat="47.872588" lon="8.002741">
        <ele>1451.706323</ele>
        <time>2026-07-15T12:11:01.480Z</time>
      </trkpt>
      <trkpt lat="47.872622" lon="8.002104">
        <ele>1444.845855</ele>
        <time>2026-07-15T12:11:17.619Z</time>
      </trkpt>
      <trkpt lat="47.872571" lon="8.002017">
        <ele>1443.605406</ele>
        <time>2026-07-15T12:11:20.535Z</time>
      </trkpt>
      <trkpt lat="47.872360" lon="8.002188">
        <ele>1439.761544</ele>
        <time>2026-07-15T12:11:29.576Z</time>
      </trkpt>
      <trkpt lat="47.872079" lon="8.002295">
        <ele>1435.119672</ele>
        <time>2026-07-15T12:11:40.497Z</time>
      </trkpt>
      <trkpt lat="47.871819" lon="8.002452">
        <ele>1430.629889</ele>
        <time>2026-07-15T12:11:51.072Z</time>
      </trkpt>
      <trkpt lat="47.871487" lon="8.002532">
        <ele>1425.154092</ele>
        <time>2026-07-15T12:12:03.669Z</time>
      </trkpt>
      <trkpt lat="47.871272" lon="8.002701">
        <ele>1420.980546</ele>
        <time>2026-07-15T12:12:12.777Z</time>
      </trkpt>
      <trkpt lat="47.871190" lon="8.002605">
        <ele>1419.190224</ele>
        <time>2026-07-15T12:12:16.663Z</time>
      </trkpt>
      <trkpt lat="47.871178" lon="8.002507">
        <ele>1418.042772</ele>
        <time>2026-07-15T12:12:19.162Z</time>
      </trkpt>
      <trkpt lat="47.871176" lon="8.002173">
        <ele>1414.195487</ele>
        <time>2026-07-15T12:12:27.560Z</time>
      </trkpt>
      <trkpt lat="47.871165" lon="8.002090">
        <ele>1413.220983</ele>
        <time>2026-07-15T12:12:29.667Z</time>
      </trkpt>
      <trkpt lat="47.871123" lon="8.002053">
        <ele>1412.383286</ele>
        <time>2026-07-15T12:12:31.476Z</time>
      </trkpt>
      <trkpt lat="47.870871" lon="8.002200">
        <ele>1407.736691</ele>
        <time>2026-07-15T12:12:41.610Z</time>
      </trkpt>
      <trkpt lat="47.870711" lon="8.002348">
        <ele>1404.503401</ele>
        <time>2026-07-15T12:12:48.687Z</time>
      </trkpt>
      <trkpt lat="47.870537" lon="8.002603">
        <ele>1400.313654</ele>
        <time>2026-07-15T12:12:57.856Z</time>
      </trkpt>
      <trkpt lat="47.870500" lon="8.002622">
        <ele>1399.641687</ele>
        <time>2026-07-15T12:12:59.337Z</time>
      </trkpt>
      <trkpt lat="47.870476" lon="8.002584">
        <ele>1399.040508</ele>
        <time>2026-07-15T12:13:00.645Z</time>
      </trkpt>
      <trkpt lat="47.870434" lon="8.002324">
        <ele>1395.960082</ele>
        <time>2026-07-15T12:13:07.382Z</time>
      </trkpt>
      <trkpt lat="47.870213" lon="8.001431">
        <ele>1385.675052</ele>
        <time>2026-07-15T12:13:31.402Z</time>
      </trkpt>
      <trkpt lat="47.870091" lon="8.001183">
        <ele>1382.358516</ele>
        <time>2026-07-15T12:13:39.166Z</time>
      </trkpt>
      <trkpt lat="47.870047" lon="8.000904">
        <ele>1379.267715</ele>
        <time>2026-07-15T12:13:46.404Z</time>
      </trkpt>
      <trkpt lat="47.869991" lon="8.000723">
        <ele>1377.118178</ele>
        <time>2026-07-15T12:13:51.432Z</time>
      </trkpt>
      <trkpt lat="47.869759" lon="8.000395">
        <ele>1371.977915</ele>
        <time>2026-07-15T12:14:03.453Z</time>
      </trkpt>
      <trkpt lat="47.869704" lon="8.000362">
        <ele>1371.024793</ele>
        <time>2026-07-15T12:14:05.680Z</time>
      </trkpt>
      <trkpt lat="47.869556" lon="8.000425">
        <ele>1368.550417</ele>
        <time>2026-07-15T12:14:11.473Z</time>
      </trkpt>
      <trkpt lat="47.869180" lon="8.001005">
        <ele>1359.799984</ele>
        <time>2026-07-15T12:14:31.744Z</time>
      </trkpt>
      <trkpt lat="47.869066" lon="8.001139">
        <ele>1357.448406</ele>
        <time>2026-07-15T12:14:37.170Z</time>
      </trkpt>
      <trkpt lat="47.868908" lon="8.001264">
        <ele>1354.551025</ele>
        <time>2026-07-15T12:14:43.898Z</time>
      </trkpt>
      <trkpt lat="47.868829" lon="8.001272">
        <ele>1353.268433</ele>
        <time>2026-07-15T12:14:46.849Z</time>
      </trkpt>
      <trkpt lat="47.868766" lon="8.001127">
        <ele>1351.391243</ele>
        <time>2026-07-15T12:14:51.214Z</time>
      </trkpt>
      <trkpt lat="47.868544" lon="8.000406">
        <ele>1342.770904</ele>
        <time>2026-07-15T12:15:11.239Z</time>
      </trkpt>
      <trkpt lat="47.868339" lon="8.000108">
        <ele>1338.132823</ele>
        <time>2026-07-15T12:15:22.000Z</time>
      </trkpt>
      <trkpt lat="47.868153" lon="7.999778">
        <ele>1334.749188</ele>
        <time>2026-07-15T12:15:32.897Z</time>
      </trkpt>
      <trkpt lat="47.868099" lon="7.999529">
        <ele>1332.798157</ele>
        <time>2026-07-15T12:15:39.521Z</time>
      </trkpt>
      <trkpt lat="47.868031" lon="7.999421">
        <ele>1331.693853</ele>
        <time>2026-07-15T12:15:43.274Z</time>
      </trkpt>
      <trkpt lat="47.867402" lon="8.000015">
        <ele>1323.418537</ele>
        <time>2026-07-15T12:16:11.692Z</time>
      </trkpt>
      <trkpt lat="47.867289" lon="8.000249">
        <ele>1321.268909</ele>
        <time>2026-07-15T12:16:19.382Z</time>
      </trkpt>
      <trkpt lat="47.867190" lon="8.000320">
        <ele>1320.047927</ele>
        <time>2026-07-15T12:16:23.071Z</time>
      </trkpt>
      <trkpt lat="47.867055" lon="7.999835">
        <ele>1317.213140</ele>
        <time>2026-07-15T12:16:35.333Z</time>
      </trkpt>
      <trkpt lat="47.867057" lon="7.999473">
        <ele>1316.500077</ele>
        <time>2026-07-15T12:16:43.967Z</time>
      </trkpt>
      <trkpt lat="47.867185" lon="7.998995">
        <ele>1315.486313</ele>
        <time>2026-07-15T12:16:56.949Z</time>
      </trkpt>
      <trkpt lat="47.867199" lon="7.998871">
        <ele>1315.238634</ele>
        <time>2026-07-15T12:17:00.215Z</time>
      </trkpt>
      <trkpt lat="47.867196" lon="7.998778">
        <ele>1315.055238</ele>
        <time>2026-07-15T12:17:02.640Z</time>
      </trkpt>
      <trkpt lat="47.867227" lon="7.998679">
        <ele>1314.840040</ele>
        <time>2026-07-15T12:17:05.571Z</time>
      </trkpt>
      <trkpt lat="47.867205" lon="7.998401">
        <ele>1314.288662</ele>
        <time>2026-07-15T12:17:12.984Z</time>
      </trkpt>
      <trkpt lat="47.867184" lon="7.998069">
        <ele>1313.631816</ele>
        <time>2026-07-15T12:17:21.691Z</time>
      </trkpt>
      <trkpt lat="47.867121" lon="7.997532">
        <ele>1312.558025</ele>
        <time>2026-07-15T12:17:36.270Z</time>
      </trkpt>
      <trkpt lat="47.867147" lon="7.997059">
        <ele>1313.258322</ele>
        <time>2026-07-15T12:17:49.838Z</time>
      </trkpt>
      <trkpt lat="47.867175" lon="7.996711">
        <ele>1314.188294</ele>
        <time>2026-07-15T12:18:00.590Z</time>
      </trkpt>
      <trkpt lat="47.867217" lon="7.996550">
        <ele>1314.646640</ele>
        <time>2026-07-15T12:18:06.198Z</time>
      </trkpt>
      <trkpt lat="47.867477" lon="7.996126">
        <ele>1316.170816</ele>
        <time>2026-07-15T12:18:25.633Z</time>
      </trkpt>
      <trkpt lat="47.867981" lon="7.995490">
        <ele>1318.782569</ele>
        <time>2026-07-15T12:19:00.093Z</time>
      </trkpt>
      <trkpt lat="47.868062" lon="7.995240">
        <ele>1319.487647</ele>
        <time>2026-07-15T12:19:09.959Z</time>
      </trkpt>
      <trkpt lat="47.868183" lon="7.994504">
        <ele>1320.755490</ele>
        <time>2026-07-15T12:19:35.688Z</time>
      </trkpt>
      <trkpt lat="47.868233" lon="7.994013">
        <ele>1321.586393</ele>
        <time>2026-07-15T12:19:51.297Z</time>
      </trkpt>
      <trkpt lat="47.868333" lon="7.993852">
        <ele>1321.953492</ele>
        <time>2026-07-15T12:19:57.832Z</time>
      </trkpt>
      <trkpt lat="47.868260" lon="7.993695">
        <ele>1322.273096</ele>
        <time>2026-07-15T12:20:03.384Z</time>
      </trkpt>
      <trkpt lat="47.868229" lon="7.993477">
        <ele>1322.645936</ele>
        <time>2026-07-15T12:20:09.772Z</time>
      </trkpt>
      <trkpt lat="47.868238" lon="7.993243">
        <ele>1323.038084</ele>
        <time>2026-07-15T12:20:17.534Z</time>
      </trkpt>
      <trkpt lat="47.868209" lon="7.993045">
        <ele>1323.377161</ele>
        <time>2026-07-15T12:20:24.162Z</time>
      </trkpt>
      <trkpt lat="47.868110" lon="7.992703">
        <ele>1323.898056</ele>
        <time>2026-07-15T12:20:36.142Z</time>
      </trkpt>
      <trkpt lat="47.868075" lon="7.992412">
        <ele>1323.765480</ele>
        <time>2026-07-15T12:20:45.491Z</time>
      </trkpt>
      <trkpt lat="47.867694" lon="7.990771">
        <ele>1322.986767</ele>
        <time>2026-07-15T12:21:40.517Z</time>
      </trkpt>
      <trkpt lat="47.867699" lon="7.990635">
        <ele>1322.925688</ele>
        <time>2026-07-15T12:21:44.880Z</time>
      </trkpt>
      <trkpt lat="47.867755" lon="7.990416">
        <ele>1322.820587</ele>
        <time>2026-07-15T12:21:52.330Z</time>
      </trkpt>
      <trkpt lat="47.867768" lon="7.990110">
        <ele>1322.747093</ele>
        <time>2026-07-15T12:22:02.098Z</time>
      </trkpt>
      <trkpt lat="47.867733" lon="7.989839">
        <ele>1322.854585</ele>
        <time>2026-07-15T12:22:10.920Z</time>
      </trkpt>
      <trkpt lat="47.867747" lon="7.989644">
        <ele>1322.930970</ele>
        <time>2026-07-15T12:22:17.221Z</time>
      </trkpt>
      <trkpt lat="47.867730" lon="7.989549">
        <ele>1322.969266</ele>
        <time>2026-07-15T12:22:20.392Z</time>
      </trkpt>
      <trkpt lat="47.867681" lon="7.989454">
        <ele>1323.015941</ele>
        <time>2026-07-15T12:22:24.228Z</time>
      </trkpt>
      <trkpt lat="47.867519" lon="7.988583">
        <ele>1323.367991</ele>
        <time>2026-07-15T12:22:53.800Z</time>
      </trkpt>
      <trkpt lat="47.867367" lon="7.988156">
        <ele>1323.556272</ele>
        <time>2026-07-15T12:23:09.979Z</time>
      </trkpt>
      <trkpt lat="47.867046" lon="7.987440">
        <ele>1324.721806</ele>
        <time>2026-07-15T12:23:39.855Z</time>
      </trkpt>
      <trkpt lat="47.866964" lon="7.987107">
        <ele>1325.741877</ele>
        <time>2026-07-15T12:23:52.769Z</time>
      </trkpt>
      <trkpt lat="47.866924" lon="7.986818">
        <ele>1326.590449</ele>
        <time>2026-07-15T12:24:03.803Z</time>
      </trkpt>
      <trkpt lat="47.866814" lon="7.986488">
        <ele>1327.650110</ele>
        <time>2026-07-15T12:24:18.037Z</time>
      </trkpt>
      <trkpt lat="47.866775" lon="7.986092">
        <ele>1328.801084</ele>
        <time>2026-07-15T12:24:33.998Z</time>
      </trkpt>
      <trkpt lat="47.866750" lon="7.985380">
        <ele>1330.851371</ele>
        <time>2026-07-15T12:25:03.855Z</time>
      </trkpt>
      <trkpt lat="47.866867" lon="7.983311">
        <ele>1336.766926</ele>
        <time>2026-07-15T12:26:30.086Z</time>
      </trkpt>
      <trkpt lat="47.866822" lon="7.982251">
        <ele>1339.137917</ele>
        <time>2026-07-15T12:27:06.391Z</time>
      </trkpt>
      <trkpt lat="47.866761" lon="7.981644">
        <ele>1339.229212</ele>
        <time>2026-07-15T12:27:25.716Z</time>
      </trkpt>
      <trkpt lat="47.866627" lon="7.981057">
        <ele>1339.321442</ele>
        <time>2026-07-15T12:27:44.943Z</time>
      </trkpt>
      <trkpt lat="47.866587" lon="7.980732">
        <ele>1339.370590</ele>
        <time>2026-07-15T12:27:55.350Z</time>
      </trkpt>
      <trkpt lat="47.866560" lon="7.979791">
        <ele>1339.856008</ele>
        <time>2026-07-15T12:28:26.384Z</time>
      </trkpt>
      <trkpt lat="47.866543" lon="7.979457">
        <ele>1341.641580</ele>
        <time>2026-07-15T12:28:38.530Z</time>
      </trkpt>
      <trkpt lat="47.866337" lon="7.978826">
        <ele>1345.382403</ele>
        <time>2026-07-15T12:29:02.874Z</time>
      </trkpt>
      <trkpt lat="47.866244" lon="7.978418">
        <ele>1347.679456</ele>
        <time>2026-07-15T12:29:20.273Z</time>
      </trkpt>
      <trkpt lat="47.866232" lon="7.978254">
        <ele>1348.558881</ele>
        <time>2026-07-15T12:29:27.554Z</time>
      </trkpt>
      <trkpt lat="47.866251" lon="7.978118">
        <ele>1349.299414</ele>
        <time>2026-07-15T12:29:33.958Z</time>
      </trkpt>
      <trkpt lat="47.866304" lon="7.977952">
        <ele>1350.279419</ele>
        <time>2026-07-15T12:29:42.653Z</time>
      </trkpt>
      <trkpt lat="47.866365" lon="7.977843">
        <ele>1351.036098</ele>
        <time>2026-07-15T12:29:49.440Z</time>
      </trkpt>
      <trkpt lat="47.866396" lon="7.977685">
        <ele>1351.913633</ele>
        <time>2026-07-15T12:29:57.464Z</time>
      </trkpt>
      <trkpt lat="47.866483" lon="7.976400">
        <ele>1361.016999</ele>
        <time>2026-07-15T12:31:03.041Z</time>
      </trkpt>
      <trkpt lat="47.866575" lon="7.975767">
        <ele>1365.999939</ele>
        <time>2026-07-15T12:31:35.657Z</time>
      </trkpt>
      <trkpt lat="47.866661" lon="7.975499">
        <ele>1368.285525</ele>
        <time>2026-07-15T12:31:50.063Z</time>
      </trkpt>
      <trkpt lat="47.866807" lon="7.975168">
        <ele>1371.333181</ele>
        <time>2026-07-15T12:32:08.128Z</time>
      </trkpt>
      <trkpt lat="47.866993" lon="7.974906">
        <ele>1374.267952</ele>
        <time>2026-07-15T12:32:23.625Z</time>
      </trkpt>
      <trkpt lat="47.867123" lon="7.974596">
        <ele>1375.192440</ele>
        <time>2026-07-15T12:32:37.353Z</time>
      </trkpt>
      <trkpt lat="47.867197" lon="7.974222">
        <ele>1376.063490</ele>
        <time>2026-07-15T12:32:51.114Z</time>
      </trkpt>
      <trkpt lat="47.867304" lon="7.973550">
        <ele>1377.606354</ele>
        <time>2026-07-15T12:33:13.471Z</time>
      </trkpt>
      <trkpt lat="47.867472" lon="7.973078">
        <ele>1378.799953</ele>
        <time>2026-07-15T12:33:29.418Z</time>
      </trkpt>
      <trkpt lat="47.867639" lon="7.972650">
        <ele>1379.906004</ele>
        <time>2026-07-15T12:33:43.415Z</time>
      </trkpt>
      <trkpt lat="47.868287" lon="7.971462">
        <ele>1377.015186</ele>
        <time>2026-07-15T12:34:23.272Z</time>
      </trkpt>
      <trkpt lat="47.868435" lon="7.971174">
        <ele>1376.072296</ele>
        <time>2026-07-15T12:34:32.131Z</time>
      </trkpt>
      <trkpt lat="47.868755" lon="7.970397">
        <ele>1373.702696</ele>
        <time>2026-07-15T12:34:54.052Z</time>
      </trkpt>
      <trkpt lat="47.869095" lon="7.969825">
        <ele>1370.762828</ele>
        <time>2026-07-15T12:35:12.198Z</time>
      </trkpt>
      <trkpt lat="47.869613" lon="7.968835">
        <ele>1365.695154</ele>
        <time>2026-07-15T12:35:42.352Z</time>
      </trkpt>
      <trkpt lat="47.869708" lon="7.968477">
        <ele>1364.141230</ele>
        <time>2026-07-15T12:35:51.660Z</time>
      </trkpt>
      <trkpt lat="47.869723" lon="7.968306">
        <ele>1363.445157</ele>
        <time>2026-07-15T12:35:55.841Z</time>
      </trkpt>
      <trkpt lat="47.869837" lon="7.967747">
        <ele>1360.779026</ele>
        <time>2026-07-15T12:36:09.955Z</time>
      </trkpt>
      <trkpt lat="47.870007" lon="7.967145">
        <ele>1357.612695</ele>
        <time>2026-07-15T12:36:25.547Z</time>
      </trkpt>
      <trkpt lat="47.870124" lon="7.966872">
        <ele>1356.042255</ele>
        <time>2026-07-15T12:36:33.186Z</time>
      </trkpt>
      <trkpt lat="47.870475" lon="7.966337">
        <ele>1352.414585</ele>
        <time>2026-07-15T12:36:50.525Z</time>
      </trkpt>
      <trkpt lat="47.870571" lon="7.966122">
        <ele>1351.162573</ele>
        <time>2026-07-15T12:36:56.461Z</time>
      </trkpt>
      <trkpt lat="47.870624" lon="7.965940">
        <ele>1350.200762</ele>
        <time>2026-07-15T12:37:00.991Z</time>
      </trkpt>
      <trkpt lat="47.870723" lon="7.965313">
        <ele>1346.150127</ele>
        <time>2026-07-15T12:37:15.536Z</time>
      </trkpt>
      <trkpt lat="47.870830" lon="7.964663">
        <ele>1341.721300</ele>
        <time>2026-07-15T12:37:30.443Z</time>
      </trkpt>
      <trkpt lat="47.871006" lon="7.963914">
        <ele>1336.469706</ele>
        <time>2026-07-15T12:37:47.879Z</time>
      </trkpt>
      <trkpt lat="47.871192" lon="7.963491">
        <ele>1333.122856</ele>
        <time>2026-07-15T12:37:58.966Z</time>
      </trkpt>
      <trkpt lat="47.871349" lon="7.963220">
        <ele>1330.796330</ele>
        <time>2026-07-15T12:38:06.790Z</time>
      </trkpt>
      <trkpt lat="47.871673" lon="7.962386">
        <ele>1324.662501</ele>
        <time>2026-07-15T12:38:28.082Z</time>
      </trkpt>
      <trkpt lat="47.871842" lon="7.962097">
        <ele>1322.222401</ele>
        <time>2026-07-15T12:38:36.656Z</time>
      </trkpt>
      <trkpt lat="47.871997" lon="7.961714">
        <ele>1319.375585</ele>
        <time>2026-07-15T12:38:46.751Z</time>
      </trkpt>
      <trkpt lat="47.872487" lon="7.960364">
        <ele>1310.645734</ele>
        <time>2026-07-15T12:39:21.744Z</time>
      </trkpt>
      <trkpt lat="47.872698" lon="7.959855">
        <ele>1307.597774</ele>
        <time>2026-07-15T12:39:35.690Z</time>
      </trkpt>
      <trkpt lat="47.873229" lon="7.958263">
        <ele>1298.311477</ele>
        <time>2026-07-15T12:40:17.583Z</time>
      </trkpt>
      <trkpt lat="47.873505" lon="7.957598">
        <ele>1293.977955</ele>
        <time>2026-07-15T12:40:35.821Z</time>
      </trkpt>
      <trkpt lat="47.873674" lon="7.957005">
        <ele>1290.407520</ele>
        <time>2026-07-15T12:40:50.546Z</time>
      </trkpt>
      <trkpt lat="47.873779" lon="7.956821">
        <ele>1289.068810</ele>
        <time>2026-07-15T12:40:55.987Z</time>
      </trkpt>
      <trkpt lat="47.874701" lon="7.955570">
        <ele>1276.965019</ele>
        <time>2026-07-15T12:41:37.021Z</time>
      </trkpt>
      <trkpt lat="47.875317" lon="7.954408">
        <ele>1266.746657</ele>
        <time>2026-07-15T12:42:09.587Z</time>
      </trkpt>
      <trkpt lat="47.875447" lon="7.954173">
        <ele>1264.570856</ele>
        <time>2026-07-15T12:42:16.322Z</time>
      </trkpt>
      <trkpt lat="47.875600" lon="7.953859">
        <ele>1261.798669</ele>
        <time>2026-07-15T12:42:24.881Z</time>
      </trkpt>
      <trkpt lat="47.875633" lon="7.953711">
        <ele>1260.684653</ele>
        <time>2026-07-15T12:42:28.905Z</time>
      </trkpt>
      <trkpt lat="47.875692" lon="7.952599">
        <ele>1252.717046</ele>
        <time>2026-07-15T12:42:57.425Z</time>
      </trkpt>
      <trkpt lat="47.875761" lon="7.951752">
        <ele>1246.676448</ele>
        <time>2026-07-15T12:43:19.329Z</time>
      </trkpt>
      <trkpt lat="47.875870" lon="7.950830">
        <ele>1240.161050</ele>
        <time>2026-07-15T12:43:43.537Z</time>
      </trkpt>
      <trkpt lat="47.875887" lon="7.950493">
        <ele>1237.809138</ele>
        <time>2026-07-15T12:43:52.344Z</time>
      </trkpt>
      <trkpt lat="47.876363" lon="7.950411">
        <ele>1232.837497</ele>
        <time>2026-07-15T12:44:14.353Z</time>
      </trkpt>
      <trkpt lat="47.876564" lon="7.950522">
        <ele>1230.613536</ele>
        <time>2026-07-15T12:44:24.235Z</time>
      </trkpt>
      <trkpt lat="47.876860" lon="7.950959">
        <ele>1223.983207</ele>
        <time>2026-07-15T12:44:43.368Z</time>
      </trkpt>
      <trkpt lat="47.876964" lon="7.951165">
        <ele>1221.088613</ele>
        <time>2026-07-15T12:44:51.133Z</time>
      </trkpt>
      <trkpt lat="47.877174" lon="7.951893">
        <ele>1212.191885</ele>
        <time>2026-07-15T12:45:14.838Z</time>
      </trkpt>
      <trkpt lat="47.877206" lon="7.952209">
        <ele>1208.604099</ele>
        <time>2026-07-15T12:45:24.301Z</time>
      </trkpt>
      <trkpt lat="47.877257" lon="7.952195">
        <ele>1207.736114</ele>
        <time>2026-07-15T12:45:26.563Z</time>
      </trkpt>
      <trkpt lat="47.877352" lon="7.951950">
        <ele>1204.559064</ele>
        <time>2026-07-15T12:45:34.866Z</time>
      </trkpt>
      <trkpt lat="47.877396" lon="7.951970">
        <ele>1203.789128</ele>
        <time>2026-07-15T12:45:36.900Z</time>
      </trkpt>
      <trkpt lat="47.877414" lon="7.952270">
        <ele>1200.407736</ele>
        <time>2026-07-15T12:45:46.011Z</time>
      </trkpt>
      <trkpt lat="47.877494" lon="7.952421">
        <ele>1196.272685</ele>
        <time>2026-07-15T12:45:52.017Z</time>
      </trkpt>
      <trkpt lat="47.877664" lon="7.952237">
        <ele>1188.677792</ele>
        <time>2026-07-15T12:46:02.012Z</time>
      </trkpt>
      <trkpt lat="47.877853" lon="7.952769">
        <ele>1174.079518</ele>
        <time>2026-07-15T12:46:21.882Z</time>
      </trkpt>
      <trkpt lat="47.877967" lon="7.952645">
        <ele>1168.977754</ele>
        <time>2026-07-15T12:46:29.370Z</time>
      </trkpt>
      <trkpt lat="47.877993" lon="7.952371">
        <ele>1162.267451</ele>
        <time>2026-07-15T12:46:39.926Z</time>
      </trkpt>
      <trkpt lat="47.878033" lon="7.952216">
        <ele>1158.240294</ele>
        <time>2026-07-15T12:46:46.677Z</time>
      </trkpt>
      <trkpt lat="47.878093" lon="7.952103">
        <ele>1154.745492</ele>
        <time>2026-07-15T12:46:52.853Z</time>
      </trkpt>
      <trkpt lat="47.878164" lon="7.952106">
        <ele>1152.177552</ele>
        <time>2026-07-15T12:46:57.254Z</time>
      </trkpt>
      <trkpt lat="47.878232" lon="7.952197">
        <ele>1148.874047</ele>
        <time>2026-07-15T12:47:03.326Z</time>
      </trkpt>
      <trkpt lat="47.878435" lon="7.952181">
        <ele>1141.524606</ele>
        <time>2026-07-15T12:47:16.505Z</time>
      </trkpt>
      <trkpt lat="47.879073" lon="7.952503">
        <ele>1118.048783</ele>
        <time>2026-07-15T12:47:50.578Z</time>
      </trkpt>
      <trkpt lat="47.879272" lon="7.952524">
        <ele>1111.192130</ele>
        <time>2026-07-15T12:47:59.603Z</time>
      </trkpt>
      <trkpt lat="47.879437" lon="7.952510">
        <ele>1105.511976</ele>
        <time>2026-07-15T12:48:07.065Z</time>
      </trkpt>
      <trkpt lat="47.879827" lon="7.952161">
        <ele>1089.878954</ele>
        <time>2026-07-15T12:48:27.062Z</time>
      </trkpt>
      <trkpt lat="47.880130" lon="7.952189">
        <ele>1079.444994</ele>
        <time>2026-07-15T12:48:39.255Z</time>
      </trkpt>
      <trkpt lat="47.880770" lon="7.951885">
        <ele>1062.524114</ele>
        <time>2026-07-15T12:49:04.250Z</time>
      </trkpt>
      <trkpt lat="47.881153" lon="7.951613">
        <ele>1053.311776</ele>
        <time>2026-07-15T12:49:20.027Z</time>
      </trkpt>
      <trkpt lat="47.881365" lon="7.951552">
        <ele>1048.623118</ele>
        <time>2026-07-15T12:49:28.133Z</time>
      </trkpt>
      <trkpt lat="47.881842" lon="7.951809">
        <ele>1037.609243</ele>
        <time>2026-07-15T12:49:47.011Z</time>
      </trkpt>
      <trkpt lat="47.882155" lon="7.951759">
        <ele>1031.513204</ele>
        <time>2026-07-15T12:50:00.876Z</time>
      </trkpt>
      <trkpt lat="47.882387" lon="7.951605">
        <ele>1027.245581</ele>
        <time>2026-07-15T12:50:12.070Z</time>
      </trkpt>
      <trkpt lat="47.882498" lon="7.951660">
        <ele>1025.279937</ele>
        <time>2026-07-15T12:50:17.276Z</time>
      </trkpt>
      <trkpt lat="47.882757" lon="7.951623">
        <ele>1020.907531</ele>
        <time>2026-07-15T12:50:28.766Z</time>
      </trkpt>
      <trkpt lat="47.883108" lon="7.951704">
        <ele>1014.938778</ele>
        <time>2026-07-15T12:50:44.533Z</time>
      </trkpt>
      <trkpt lat="47.883412" lon="7.951586">
        <ele>1009.659824</ele>
        <time>2026-07-15T12:50:58.486Z</time>
      </trkpt>
      <trkpt lat="47.883633" lon="7.951498">
        <ele>1005.815793</ele>
        <time>2026-07-15T12:51:05.819Z</time>
      </trkpt>
      <trkpt lat="47.883726" lon="7.951396">
        <ele>1003.875697</ele>
        <time>2026-07-15T12:51:09.525Z</time>
      </trkpt>
      <trkpt lat="47.884099" lon="7.950686">
        <ele>997.027426</ele>
        <time>2026-07-15T12:51:28.952Z</time>
      </trkpt>
      <trkpt lat="47.884148" lon="7.950634">
        <ele>996.348331</ele>
        <time>2026-07-15T12:51:30.863Z</time>
      </trkpt>
      <trkpt lat="47.884253" lon="7.950618">
        <ele>995.156556</ele>
        <time>2026-07-15T12:51:34.291Z</time>
      </trkpt>
      <trkpt lat="47.884512" lon="7.950764">
        <ele>992.030080</ele>
        <time>2026-07-15T12:51:43.251Z</time>
      </trkpt>
      <trkpt lat="47.884970" lon="7.950857">
        <ele>986.810876</ele>
        <time>2026-07-15T12:51:58.329Z</time>
      </trkpt>
      <trkpt lat="47.885348" lon="7.950929">
        <ele>982.631790</ele>
        <time>2026-07-15T12:52:11.444Z</time>
      </trkpt>
      <trkpt lat="47.885790" lon="7.951056">
        <ele>978.177096</ele>
        <time>2026-07-15T12:52:27.955Z</time>
      </trkpt>
      <trkpt lat="47.886032" lon="7.951075">
        <ele>975.778839</ele>
        <time>2026-07-15T12:52:36.306Z</time>
      </trkpt>
      <trkpt lat="47.886149" lon="7.951012">
        <ele>974.547778</ele>
        <time>2026-07-15T12:52:40.386Z</time>
      </trkpt>
      <trkpt lat="47.886472" lon="7.950675">
        <ele>970.646493</ele>
        <time>2026-07-15T12:52:53.123Z</time>
      </trkpt>
      <trkpt lat="47.886584" lon="7.950632">
        <ele>969.501944</ele>
        <time>2026-07-15T12:52:56.845Z</time>
      </trkpt>
      <trkpt lat="47.886722" lon="7.950651">
        <ele>968.130425</ele>
        <time>2026-07-15T12:53:01.324Z</time>
      </trkpt>
      <trkpt lat="47.886778" lon="7.950828">
        <ele>966.831587</ele>
        <time>2026-07-15T12:53:05.559Z</time>
      </trkpt>
      <trkpt lat="47.886782" lon="7.950954">
        <ele>965.994447</ele>
        <time>2026-07-15T12:53:08.286Z</time>
      </trkpt>
      <trkpt lat="47.886711" lon="7.951199">
        <ele>963.992839</ele>
        <time>2026-07-15T12:53:14.049Z</time>
      </trkpt>
      <trkpt lat="47.886588" lon="7.951429">
        <ele>961.737967</ele>
        <time>2026-07-15T12:53:20.420Z</time>
      </trkpt>
      <trkpt lat="47.886393" lon="7.951780">
        <ele>958.244261</ele>
        <time>2026-07-15T12:53:30.214Z</time>
      </trkpt>
      <trkpt lat="47.886268" lon="7.951948">
        <ele>956.320846</ele>
        <time>2026-07-15T12:53:35.629Z</time>
      </trkpt>
      <trkpt lat="47.885725" lon="7.952513">
        <ele>948.752784</ele>
        <time>2026-07-15T12:53:57.038Z</time>
      </trkpt>
      <trkpt lat="47.885573" lon="7.952733">
        <ele>946.331614</ele>
        <time>2026-07-15T12:54:04.337Z</time>
      </trkpt>
      <trkpt lat="47.885474" lon="7.952995">
        <ele>944.298133</ele>
        <time>2026-07-15T12:54:11.295Z</time>
      </trkpt>
      <trkpt lat="47.885437" lon="7.953182">
        <ele>943.164624</ele>
        <time>2026-07-15T12:54:15.795Z</time>
      </trkpt>
      <trkpt lat="47.885441" lon="7.953486">
        <ele>941.396894</ele>
        <time>2026-07-15T12:54:22.779Z</time>
      </trkpt>
      <trkpt lat="47.885540" lon="7.953890">
        <ele>938.896231</ele>
        <time>2026-07-15T12:54:32.570Z</time>
      </trkpt>
      <trkpt lat="47.885664" lon="7.954106">
        <ele>937.243178</ele>
        <time>2026-07-15T12:54:38.987Z</time>
      </trkpt>
      <trkpt lat="47.886804" lon="7.955371">
        <ele>923.977773</ele>
        <time>2026-07-15T12:55:27.231Z</time>
      </trkpt>
      <trkpt lat="47.886647" lon="7.954484">
        <ele>917.555384</ele>
        <time>2026-07-15T12:55:47.782Z</time>
      </trkpt>
      <trkpt lat="47.886651" lon="7.954402">
        <ele>916.979799</ele>
        <time>2026-07-15T12:55:49.590Z</time>
      </trkpt>
      <trkpt lat="47.886701" lon="7.954282">
        <ele>915.990743</ele>
        <time>2026-07-15T12:55:52.656Z</time>
      </trkpt>
      <trkpt lat="47.886864" lon="7.954001">
        <ele>913.389658</ele>
        <time>2026-07-15T12:56:00.707Z</time>
      </trkpt>
      <trkpt lat="47.887118" lon="7.954325">
        <ele>909.473351</ele>
        <time>2026-07-15T12:56:13.383Z</time>
      </trkpt>
      <trkpt lat="47.887189" lon="7.954343">
        <ele>908.357104</ele>
        <time>2026-07-15T12:56:16.078Z</time>
      </trkpt>
      <trkpt lat="47.887476" lon="7.954287">
        <ele>903.870859</ele>
        <time>2026-07-15T12:56:26.987Z</time>
      </trkpt>
      <trkpt lat="47.887957" lon="7.954267">
        <ele>896.412752</ele>
        <time>2026-07-15T12:56:45.020Z</time>
      </trkpt>
      <trkpt lat="47.888715" lon="7.954110">
        <ele>884.551428</ele>
        <time>2026-07-15T12:57:13.865Z</time>
      </trkpt>
      <trkpt lat="47.888804" lon="7.954068">
        <ele>883.104561</ele>
        <time>2026-07-15T12:57:17.344Z</time>
      </trkpt>
      <trkpt lat="47.888904" lon="7.953699">
        <ele>877.687736</ele>
        <time>2026-07-15T12:57:27.366Z</time>
      </trkpt>
      <trkpt lat="47.889288" lon="7.953342">
        <ele>868.392158</ele>
        <time>2026-07-15T12:57:44.324Z</time>
      </trkpt>
      <trkpt lat="47.889465" lon="7.953230">
        <ele>864.442400</ele>
        <time>2026-07-15T12:57:51.514Z</time>
      </trkpt>
      <trkpt lat="47.890379" lon="7.952790">
        <ele>844.437138</ele>
        <time>2026-07-15T12:58:27.541Z</time>
      </trkpt>
      <trkpt lat="47.891319" lon="7.952201">
        <ele>818.844575</ele>
        <time>2026-07-15T12:59:07.700Z</time>
      </trkpt>
      <trkpt lat="47.891329" lon="7.952584">
        <ele>812.393452</ele>
        <time>2026-07-15T12:59:17.488Z</time>
      </trkpt>
      <trkpt lat="47.891383" lon="7.952798">
        <ele>808.545045</ele>
        <time>2026-07-15T12:59:23.315Z</time>
      </trkpt>
      <trkpt lat="47.891611" lon="7.952620">
        <ele>802.085379</ele>
        <time>2026-07-15T12:59:33.019Z</time>
      </trkpt>
      <trkpt lat="47.891900" lon="7.952296">
        <ele>793.629635</ele>
        <time>2026-07-15T12:59:46.790Z</time>
      </trkpt>
      <trkpt lat="47.892553" lon="7.951853">
        <ele>777.053216</ele>
        <time>2026-07-15T13:00:13.832Z</time>
      </trkpt>
      <trkpt lat="47.893064" lon="7.951450">
        <ele>763.696452</ele>
        <time>2026-07-15T13:00:35.565Z</time>
      </trkpt>
      <trkpt lat="47.893144" lon="7.951486">
        <ele>761.765604</ele>
        <time>2026-07-15T13:00:38.283Z</time>
      </trkpt>
      <trkpt lat="47.893192" lon="7.951459">
        <ele>760.580219</ele>
        <time>2026-07-15T13:00:39.904Z</time>
      </trkpt>
      <trkpt lat="47.893422" lon="7.951009">
        <ele>755.571044</ele>
        <time>2026-07-15T13:00:51.917Z</time>
      </trkpt>
      <trkpt lat="47.893467" lon="7.950976">
        <ele>754.998029</ele>
        <time>2026-07-15T13:00:53.504Z</time>
      </trkpt>
      <trkpt lat="47.893529" lon="7.950982">
        <ele>754.288065</ele>
        <time>2026-07-15T13:00:55.462Z</time>
      </trkpt>
      <trkpt lat="47.893574" lon="7.950996">
        <ele>753.762781</ele>
        <time>2026-07-15T13:00:56.918Z</time>
      </trkpt>
      <trkpt lat="47.894067" lon="7.950544">
        <ele>747.149919</ele>
        <time>2026-07-15T13:01:15.491Z</time>
      </trkpt>
      <trkpt lat="47.894134" lon="7.950695">
        <ele>745.762598</ele>
        <time>2026-07-15T13:01:20.463Z</time>
      </trkpt>
      <trkpt lat="47.894183" lon="7.950755">
        <ele>745.038135</ele>
        <time>2026-07-15T13:01:22.703Z</time>
      </trkpt>
      <trkpt lat="47.894232" lon="7.950813">
        <ele>744.323298</ele>
        <time>2026-07-15T13:01:24.959Z</time>
      </trkpt>
      <trkpt lat="47.894244" lon="7.950827">
        <ele>744.149204</ele>
        <time>2026-07-15T13:01:25.500Z</time>
      </trkpt>
      <trkpt lat="47.894302" lon="7.950894">
        <ele>743.310886</ele>
        <time>2026-07-15T13:01:28.207Z</time>
      </trkpt>
      <trkpt lat="47.894269" lon="7.951054">
        <ele>742.028310</ele>
        <time>2026-07-15T13:01:32.438Z</time>
      </trkpt>
      <trkpt lat="47.894283" lon="7.951142">
        <ele>741.335351</ele>
        <time>2026-07-15T13:01:34.831Z</time>
      </trkpt>
      <trkpt lat="47.894307" lon="7.951162">
        <ele>741.021197</ele>
        <time>2026-07-15T13:01:35.927Z</time>
      </trkpt>
      <trkpt lat="47.894328" lon="7.951179">
        <ele>740.748159</ele>
        <time>2026-07-15T13:01:36.894Z</time>
      </trkpt>
      <trkpt lat="47.894381" lon="7.951151">
        <ele>740.105655</ele>
        <time>2026-07-15T13:01:39.104Z</time>
      </trkpt>
      <trkpt lat="47.894238" lon="7.951555">
        <ele>739.754659</ele>
        <time>2026-07-15T13:01:52.131Z</time>
      </trkpt>
      <trkpt lat="47.894206" lon="7.951943">
        <ele>741.275572</ele>
        <time>2026-07-15T13:02:04.828Z</time>
      </trkpt>
      <trkpt lat="47.894209" lon="7.952209">
        <ele>742.310608</ele>
        <time>2026-07-15T13:02:14.306Z</time>
      </trkpt>
      <trkpt lat="47.894267" lon="7.952405">
        <ele>743.144120</ele>
        <time>2026-07-15T13:02:22.230Z</time>
      </trkpt>
      <trkpt lat="47.894392" lon="7.952551">
        <ele>744.065379</ele>
        <time>2026-07-15T13:02:31.507Z</time>
      </trkpt>
      <trkpt lat="47.893858" lon="7.953365">
        <ele>748.495975</ele>
        <time>2026-07-15T13:03:18.472Z</time>
      </trkpt>
      <trkpt lat="47.894024" lon="7.953320">
        <ele>749.577385</ele>
        <time>2026-07-15T13:03:30.170Z</time>
      </trkpt>
      <trkpt lat="47.894026" lon="7.953422">
        <ele>750.092483</ele>
        <time>2026-07-15T13:03:34.866Z</time>
      </trkpt>
      <trkpt lat="47.893725" lon="7.954426">
        <ele>755.644049</ele>
        <time>2026-07-15T13:04:20.987Z</time>
      </trkpt>
      <trkpt lat="47.893643" lon="7.954566">
        <ele>756.582409</ele>
        <time>2026-07-15T13:04:28.551Z</time>
      </trkpt>
      <trkpt lat="47.893449" lon="7.954771">
        <ele>758.372361</ele>
        <time>2026-07-15T13:04:44.062Z</time>
      </trkpt>
      <trkpt lat="47.893329" lon="7.954947">
        <ele>759.639424</ele>
        <time>2026-07-15T13:04:55.287Z</time>
      </trkpt>
      <trkpt lat="47.893099" lon="7.955146">
        <ele>761.641246</ele>
        <time>2026-07-15T13:05:12.932Z</time>
      </trkpt>
      <trkpt lat="47.892973" lon="7.955425">
        <ele>763.789399</ele>
        <time>2026-07-15T13:05:28.739Z</time>
      </trkpt>
      <trkpt lat="47.892854" lon="7.955465">
        <ele>765.326821</ele>
        <time>2026-07-15T13:05:38.458Z</time>
      </trkpt>
      <trkpt lat="47.892816" lon="7.955537">
        <ele>766.101155</ele>
        <time>2026-07-15T13:05:43.629Z</time>
      </trkpt>
      <trkpt lat="47.892657" lon="7.955888">
        <ele>769.680864</ele>
        <time>2026-07-15T13:06:08.380Z</time>
      </trkpt>
      <trkpt lat="47.892964" lon="7.956186">
        <ele>774.297464</ele>
        <time>2026-07-15T13:06:35.252Z</time>
      </trkpt>
      <trkpt lat="47.893116" lon="7.956207">
        <ele>776.221378</ele>
        <time>2026-07-15T13:06:46.918Z</time>
      </trkpt>
      <trkpt lat="47.893442" lon="7.955972">
        <ele>780.784850</ele>
        <time>2026-07-15T13:07:16.109Z</time>
      </trkpt>
      <trkpt lat="47.893849" lon="7.955696">
        <ele>786.304360</ele>
        <time>2026-07-15T13:07:51.533Z</time>
      </trkpt>
      <trkpt lat="47.894330" lon="7.955279">
        <ele>792.566461</ele>
        <time>2026-07-15T13:08:33.627Z</time>
      </trkpt>
      <trkpt lat="47.894516" lon="7.955051">
        <ele>795.276352</ele>
        <time>2026-07-15T13:08:48.617Z</time>
      </trkpt>
      <trkpt lat="47.894661" lon="7.954794">
        <ele>797.811168</ele>
        <time>2026-07-15T13:09:02.787Z</time>
      </trkpt>
      <trkpt lat="47.894906" lon="7.954072">
        <ele>803.917972</ele>
        <time>2026-07-15T13:09:37.964Z</time>
      </trkpt>
      <trkpt lat="47.895163" lon="7.953597">
        <ele>808.625160</ele>
        <time>2026-07-15T13:10:04.252Z</time>
      </trkpt>
      <trkpt lat="47.895911" lon="7.952693">
        <ele>819.833544</ele>
        <time>2026-07-15T13:11:09.554Z</time>
      </trkpt>
      <trkpt lat="47.896285" lon="7.952133">
        <ele>826.003316</ele>
        <time>2026-07-15T13:11:49.131Z</time>
      </trkpt>
      <trkpt lat="47.896666" lon="7.951717">
        <ele>834.272191</ele>
        <time>2026-07-15T13:12:27.628Z</time>
      </trkpt>
      <trkpt lat="47.896849" lon="7.951617">
        <ele>837.805177</ele>
        <time>2026-07-15T13:12:44.632Z</time>
      </trkpt>
      <trkpt lat="47.897087" lon="7.951602">
        <ele>842.123392</ele>
        <time>2026-07-15T13:13:06.188Z</time>
      </trkpt>
      <trkpt lat="47.897501" lon="7.951493">
        <ele>849.744240</ele>
        <time>2026-07-15T13:13:45.639Z</time>
      </trkpt>
      <trkpt lat="47.897618" lon="7.951524">
        <ele>851.898373</ele>
        <time>2026-07-15T13:13:57.424Z</time>
      </trkpt>
      <trkpt lat="47.897790" lon="7.951655">
        <ele>855.399300</ele>
        <time>2026-07-15T13:14:17.674Z</time>
      </trkpt>
      <trkpt lat="47.897925" lon="7.951826">
        <ele>858.609935</ele>
        <time>2026-07-15T13:14:36.383Z</time>
      </trkpt>
      <trkpt lat="47.898035" lon="7.951907">
        <ele>861.252313</ele>
        <time>2026-07-15T13:14:49.336Z</time>
      </trkpt>
      <trkpt lat="47.898266" lon="7.951964">
        <ele>866.539510</ele>
        <time>2026-07-15T13:15:14.094Z</time>
      </trkpt>
      <trkpt lat="47.898387" lon="7.951938">
        <ele>869.300064</ele>
        <time>2026-07-15T13:15:27.137Z</time>
      </trkpt>
      <trkpt lat="47.898700" lon="7.951760">
        <ele>876.864347</ele>
        <time>2026-07-15T13:16:03.314Z</time>
      </trkpt>
      <trkpt lat="47.899178" lon="7.951594">
        <ele>887.946951</ele>
        <time>2026-07-15T13:16:58.117Z</time>
      </trkpt>
      <trkpt lat="47.899709" lon="7.951462">
        <ele>900.019141</ele>
        <time>2026-07-15T13:18:02.674Z</time>
      </trkpt>
      <trkpt lat="47.899805" lon="7.951503">
        <ele>901.744292</ele>
        <time>2026-07-15T13:18:14.253Z</time>
      </trkpt>
      <trkpt lat="47.899884" lon="7.951685">
        <ele>904.255535</ele>
        <time>2026-07-15T13:18:30.891Z</time>
      </trkpt>
      <trkpt lat="47.899966" lon="7.952695">
        <ele>916.039187</ele>
        <time>2026-07-15T13:19:38.114Z</time>
      </trkpt>
      <trkpt lat="47.900001" lon="7.952838">
        <ele>917.802385</ele>
        <time>2026-07-15T13:19:46.777Z</time>
      </trkpt>
      <trkpt lat="47.900072" lon="7.952909">
        <ele>919.279140</ele>
        <time>2026-07-15T13:19:53.842Z</time>
      </trkpt>
      <trkpt lat="47.900189" lon="7.952927">
        <ele>921.311165</ele>
        <time>2026-07-15T13:20:03.371Z</time>
      </trkpt>
      <trkpt lat="47.900291" lon="7.952845">
        <ele>923.312972</ele>
        <time>2026-07-15T13:20:12.310Z</time>
      </trkpt>
      <trkpt lat="47.900642" lon="7.952288">
        <ele>931.654237</ele>
        <time>2026-07-15T13:20:48.464Z</time>
      </trkpt>
      <trkpt lat="47.900967" lon="7.951610">
        <ele>937.635374</ele>
        <time>2026-07-15T13:21:21.224Z</time>
      </trkpt>
      <trkpt lat="47.901260" lon="7.951338">
        <ele>941.329419</ele>
        <time>2026-07-15T13:21:42.694Z</time>
      </trkpt>
      <trkpt lat="47.901369" lon="7.951171">
        <ele>943.001966</ele>
        <time>2026-07-15T13:21:53.624Z</time>
      </trkpt>
      <trkpt lat="47.901534" lon="7.950769">
        <ele>946.384436</ele>
        <time>2026-07-15T13:22:16.769Z</time>
      </trkpt>
      <trkpt lat="47.901804" lon="7.950211">
        <ele>951.603645</ele>
        <time>2026-07-15T13:22:50.566Z</time>
      </trkpt>
      <trkpt lat="47.901923" lon="7.950053">
        <ele>953.692055</ele>
        <time>2026-07-15T13:23:01.927Z</time>
      </trkpt>
      <trkpt lat="47.902096" lon="7.949916">
        <ele>956.259657</ele>
        <time>2026-07-15T13:23:15.926Z</time>
      </trkpt>
      <trkpt lat="47.902159" lon="7.949830">
        <ele>957.379138</ele>
        <time>2026-07-15T13:23:21.911Z</time>
      </trkpt>
      <trkpt lat="47.902201" lon="7.949696">
        <ele>958.679095</ele>
        <time>2026-07-15T13:23:29.060Z</time>
      </trkpt>
      <trkpt lat="47.902211" lon="7.948992">
        <ele>964.867317</ele>
        <time>2026-07-15T13:24:04.100Z</time>
      </trkpt>
      <trkpt lat="47.902293" lon="7.948763">
        <ele>967.148877</ele>
        <time>2026-07-15T13:24:17.588Z</time>
      </trkpt>
      <trkpt lat="47.902558" lon="7.948404">
        <ele>971.841535</ele>
        <time>2026-07-15T13:24:45.905Z</time>
      </trkpt>
      <trkpt lat="47.902951" lon="7.948155">
        <ele>976.986981</ele>
        <time>2026-07-15T13:25:19.510Z</time>
      </trkpt>
      <trkpt lat="47.903172" lon="7.947883">
        <ele>980.294984</ele>
        <time>2026-07-15T13:25:41.574Z</time>
      </trkpt>
      <trkpt lat="47.903377" lon="7.947472">
        <ele>984.260050</ele>
        <time>2026-07-15T13:26:07.836Z</time>
      </trkpt>
      <trkpt lat="47.903451" lon="7.947247">
        <ele>986.199842</ele>
        <time>2026-07-15T13:26:20.597Z</time>
      </trkpt>
      <trkpt lat="47.903494" lon="7.947050">
        <ele>987.803409</ele>
        <time>2026-07-15T13:26:30.850Z</time>
      </trkpt>
      <trkpt lat="47.903510" lon="7.946847">
        <ele>989.385450</ele>
        <time>2026-07-15T13:26:40.122Z</time>
      </trkpt>
      <trkpt lat="47.903486" lon="7.946519">
        <ele>991.939246</ele>
        <time>2026-07-15T13:26:53.106Z</time>
      </trkpt>
      <trkpt lat="47.903502" lon="7.946385">
        <ele>992.992728</ele>
        <time>2026-07-15T13:26:58.201Z</time>
      </trkpt>
      <trkpt lat="47.903578" lon="7.946237">
        <ele>994.428471</ele>
        <time>2026-07-15T13:27:04.744Z</time>
      </trkpt>
      <trkpt lat="47.903650" lon="7.946217">
        <ele>994.954276</ele>
        <time>2026-07-15T13:27:08.509Z</time>
      </trkpt>
      <trkpt lat="47.903712" lon="7.946241">
        <ele>995.414144</ele>
        <time>2026-07-15T13:27:11.746Z</time>
      </trkpt>
      <trkpt lat="47.903843" lon="7.945728">
        <ele>998.056241</ele>
        <time>2026-07-15T13:27:29.914Z</time>
      </trkpt>
      <trkpt lat="47.903929" lon="7.945206">
        <ele>1000.643342</ele>
        <time>2026-07-15T13:27:48.355Z</time>
      </trkpt>
      <trkpt lat="47.904447" lon="7.944853">
        <ele>1004.731982</ele>
        <time>2026-07-15T13:28:26.951Z</time>
      </trkpt>
      <trkpt lat="47.904631" lon="7.944776">
        <ele>1006.103994</ele>
        <time>2026-07-15T13:28:40.038Z</time>
      </trkpt>
      <trkpt lat="47.904791" lon="7.944660">
        <ele>1007.378909</ele>
        <time>2026-07-15T13:28:52.563Z</time>
      </trkpt>
      <trkpt lat="47.905423" lon="7.944566">
        <ele>1011.736679</ele>
        <time>2026-07-15T13:29:42.328Z</time>
      </trkpt>
      <trkpt lat="47.905951" lon="7.944247">
        <ele>1015.645223</ele>
        <time>2026-07-15T13:30:22.221Z</time>
      </trkpt>
      <trkpt lat="47.906119" lon="7.944204">
        <ele>1016.814746</ele>
        <time>2026-07-15T13:30:32.470Z</time>
      </trkpt>
      <trkpt lat="47.906295" lon="7.944285">
        <ele>1018.078477</ele>
        <time>2026-07-15T13:30:43.059Z</time>
      </trkpt>
      <trkpt lat="47.906613" lon="7.944443">
        <ele>1019.627479</ele>
        <time>2026-07-15T13:30:58.062Z</time>
      </trkpt>
      <trkpt lat="47.907330" lon="7.944682">
        <ele>1019.319950</ele>
        <time>2026-07-15T13:31:28.469Z</time>
      </trkpt>
      <trkpt lat="47.907852" lon="7.945121">
        <ele>1019.069118</ele>
        <time>2026-07-15T13:31:51.505Z</time>
      </trkpt>
      <trkpt lat="47.908379" lon="7.945469">
        <ele>1018.985207</ele>
        <time>2026-07-15T13:32:14.059Z</time>
      </trkpt>
      <trkpt lat="47.908824" lon="7.945671">
        <ele>1019.131335</ele>
        <time>2026-07-15T13:32:33.675Z</time>
      </trkpt>
      <trkpt lat="47.908933" lon="7.945763">
        <ele>1019.170679</ele>
        <time>2026-07-15T13:32:39.136Z</time>
      </trkpt>
      <trkpt lat="47.909138" lon="7.946055">
        <ele>1019.259722</ele>
        <time>2026-07-15T13:32:51.700Z</time>
      </trkpt>
      <trkpt lat="47.909435" lon="7.946594">
        <ele>1019.406653</ele>
        <time>2026-07-15T13:33:11.856Z</time>
      </trkpt>
      <trkpt lat="47.909741" lon="7.947274">
        <ele>1018.034636</ele>
        <time>2026-07-15T13:33:34.352Z</time>
      </trkpt>
      <trkpt lat="47.909943" lon="7.947517">
        <ele>1016.808893</ele>
        <time>2026-07-15T13:33:44.859Z</time>
      </trkpt>
      <trkpt lat="47.910230" lon="7.947682">
        <ele>1015.356020</ele>
        <time>2026-07-15T13:33:56.726Z</time>
      </trkpt>
      <trkpt lat="47.910537" lon="7.948113">
        <ele>1013.364727</ele>
        <time>2026-07-15T13:34:11.671Z</time>
      </trkpt>
      <trkpt lat="47.910861" lon="7.948488">
        <ele>1011.427694</ele>
        <time>2026-07-15T13:34:25.500Z</time>
      </trkpt>
      <trkpt lat="47.911227" lon="7.948701">
        <ele>1008.013956</ele>
        <time>2026-07-15T13:34:38.367Z</time>
      </trkpt>
      <trkpt lat="47.911519" lon="7.948689">
        <ele>1005.114481</ele>
        <time>2026-07-15T13:34:47.852Z</time>
      </trkpt>
      <trkpt lat="47.911869" lon="7.948616">
        <ele>1001.606616</ele>
        <time>2026-07-15T13:34:59.367Z</time>
      </trkpt>
      <trkpt lat="47.912198" lon="7.948415">
        <ele>998.077784</ele>
        <time>2026-07-15T13:35:10.850Z</time>
      </trkpt>
      <trkpt lat="47.912491" lon="7.948276">
        <ele>995.025994</ele>
        <time>2026-07-15T13:35:20.955Z</time>
      </trkpt>
      <trkpt lat="47.912602" lon="7.948334">
        <ele>993.858597</ele>
        <time>2026-07-15T13:35:24.963Z</time>
      </trkpt>
      <trkpt lat="47.912673" lon="7.948412">
        <ele>992.978045</ele>
        <time>2026-07-15T13:35:27.966Z</time>
      </trkpt>
      <trkpt lat="47.913382" lon="7.949471">
        <ele>982.663668</ele>
        <time>2026-07-15T13:36:03.646Z</time>
      </trkpt>
      <trkpt lat="47.913525" lon="7.949757">
        <ele>980.204918</ele>
        <time>2026-07-15T13:36:11.561Z</time>
      </trkpt>
      <trkpt lat="47.913618" lon="7.950087">
        <ele>977.738100</ele>
        <time>2026-07-15T13:36:19.241Z</time>
      </trkpt>
      <trkpt lat="47.913639" lon="7.950748">
        <ele>972.243559</ele>
        <time>2026-07-15T13:36:33.415Z</time>
      </trkpt>
      <trkpt lat="47.913669" lon="7.950844">
        <ele>971.047530</ele>
        <time>2026-07-15T13:36:35.706Z</time>
      </trkpt>
      <trkpt lat="47.913778" lon="7.950947">
        <ele>968.873892</ele>
        <time>2026-07-15T13:36:39.828Z</time>
      </trkpt>
      <trkpt lat="47.914030" lon="7.950978">
        <ele>964.614064</ele>
        <time>2026-07-15T13:36:47.871Z</time>
      </trkpt>
      <trkpt lat="47.914172" lon="7.951062">
        <ele>962.040634</ele>
        <time>2026-07-15T13:36:52.709Z</time>
      </trkpt>
      <trkpt lat="47.914669" lon="7.951693">
        <ele>951.046538</ele>
        <time>2026-07-15T13:37:13.439Z</time>
      </trkpt>
      <trkpt lat="47.914664" lon="7.951588">
        <ele>949.857950</ele>
        <time>2026-07-15T13:37:15.684Z</time>
      </trkpt>
      <trkpt lat="47.914577" lon="7.951410">
        <ele>947.370419</ele>
        <time>2026-07-15T13:37:20.376Z</time>
      </trkpt>
      <trkpt lat="47.914526" lon="7.951176">
        <ele>944.592034</ele>
        <time>2026-07-15T13:37:25.668Z</time>
      </trkpt>
      <trkpt lat="47.914735" lon="7.951415">
        <ele>940.948123</ele>
        <time>2026-07-15T13:37:35.824Z</time>
      </trkpt>
      <trkpt lat="47.914747" lon="7.951132">
        <ele>938.352583</ele>
        <time>2026-07-15T13:37:43.031Z</time>
      </trkpt>
      <trkpt lat="47.914715" lon="7.950937">
        <ele>936.514984</ele>
        <time>2026-07-15T13:37:48.164Z</time>
      </trkpt>
      <trkpt lat="47.914634" lon="7.950671">
        <ele>933.840715</ele>
        <time>2026-07-15T13:37:55.568Z</time>
      </trkpt>
      <trkpt lat="47.914505" lon="7.950355">
        <ele>930.454009</ele>
        <time>2026-07-15T13:38:04.978Z</time>
      </trkpt>
      <trkpt lat="47.914374" lon="7.950250">
        <ele>928.423165</ele>
        <time>2026-07-15T13:38:10.614Z</time>
      </trkpt>
      <trkpt lat="47.914332" lon="7.950143">
        <ele>927.288165</ele>
        <time>2026-07-15T13:38:13.746Z</time>
      </trkpt>
      <trkpt lat="47.914361" lon="7.950000">
        <ele>925.920641</ele>
        <time>2026-07-15T13:38:17.499Z</time>
      </trkpt>
      <trkpt lat="47.914569" lon="7.949373">
        <ele>919.451385</ele>
        <time>2026-07-15T13:38:35.239Z</time>
      </trkpt>
      <trkpt lat="47.914675" lon="7.948857">
        <ele>913.261082</ele>
        <time>2026-07-15T13:38:48.880Z</time>
      </trkpt>
      <trkpt lat="47.914627" lon="7.948678">
        <ele>911.049715</ele>
        <time>2026-07-15T13:38:53.755Z</time>
      </trkpt>
      <trkpt lat="47.914623" lon="7.948555">
        <ele>909.637239</ele>
        <time>2026-07-15T13:38:56.867Z</time>
      </trkpt>
      <trkpt lat="47.914728" lon="7.948404">
        <ele>907.141519</ele>
        <time>2026-07-15T13:39:02.314Z</time>
      </trkpt>
      <trkpt lat="47.914862" lon="7.948077">
        <ele>902.745332</ele>
        <time>2026-07-15T13:39:11.971Z</time>
      </trkpt>
      <trkpt lat="47.914933" lon="7.947790">
        <ele>899.236362</ele>
        <time>2026-07-15T13:39:19.635Z</time>
      </trkpt>
      <trkpt lat="47.914952" lon="7.947466">
        <ele>895.505892</ele>
        <time>2026-07-15T13:39:27.798Z</time>
      </trkpt>
      <trkpt lat="47.915069" lon="7.947029">
        <ele>890.108395</ele>
        <time>2026-07-15T13:39:39.594Z</time>
      </trkpt>
      <trkpt lat="47.915150" lon="7.946852">
        <ele>887.145748</ele>
        <time>2026-07-15T13:39:44.959Z</time>
      </trkpt>
      <trkpt lat="47.915409" lon="7.946642">
        <ele>880.209962</ele>
        <time>2026-07-15T13:39:55.913Z</time>
      </trkpt>
      <trkpt lat="47.915462" lon="7.946582">
        <ele>878.644579</ele>
        <time>2026-07-15T13:39:58.403Z</time>
      </trkpt>
      <trkpt lat="47.915560" lon="7.946471">
        <ele>875.749559</ele>
        <time>2026-07-15T13:40:03.037Z</time>
      </trkpt>
      <trkpt lat="47.915704" lon="7.946160">
        <ele>869.788565</ele>
        <time>2026-07-15T13:40:12.656Z</time>
      </trkpt>
      <trkpt lat="47.915769" lon="7.946101">
        <ele>867.998383</ele>
        <time>2026-07-15T13:40:15.564Z</time>
      </trkpt>
      <trkpt lat="47.915855" lon="7.945945">
        <ele>864.812998</ele>
        <time>2026-07-15T13:40:20.755Z</time>
      </trkpt>
      <trkpt lat="47.916015" lon="7.945830">
        <ele>860.634278</ele>
        <time>2026-07-15T13:40:27.565Z</time>
      </trkpt>
      <trkpt lat="47.916266" lon="7.945741">
        <ele>854.563954</ele>
        <time>2026-07-15T13:40:37.458Z</time>
      </trkpt>
      <trkpt lat="47.916655" lon="7.945457">
        <ele>844.183649</ele>
        <time>2026-07-15T13:40:54.270Z</time>
      </trkpt>
      <trkpt lat="47.916809" lon="7.945301">
        <ele>839.441376</ele>
        <time>2026-07-15T13:41:01.516Z</time>
      </trkpt>
      <trkpt lat="47.917128" lon="7.944832">
        <ele>828.031606</ele>
        <time>2026-07-15T13:41:19.073Z</time>
      </trkpt>
      <trkpt lat="47.917347" lon="7.944690">
        <ele>821.948037</ele>
        <time>2026-07-15T13:41:28.488Z</time>
      </trkpt>
      <trkpt lat="47.917514" lon="7.944553">
        <ele>817.092674</ele>
        <time>2026-07-15T13:41:36.001Z</time>
      </trkpt>
      <trkpt lat="47.917586" lon="7.944421">
        <ele>814.186674</ele>
        <time>2026-07-15T13:41:40.554Z</time>
      </trkpt>
      <trkpt lat="47.917611" lon="7.944204">
        <ele>810.427097</ele>
        <time>2026-07-15T13:41:46.370Z</time>
      </trkpt>
      <trkpt lat="47.917457" lon="7.943405">
        <ele>798.471524</ele>
        <time>2026-07-15T13:42:07.881Z</time>
      </trkpt>
      <trkpt lat="47.917336" lon="7.943000">
        <ele>794.572287</ele>
        <time>2026-07-15T13:42:18.975Z</time>
      </trkpt>
      <trkpt lat="47.917245" lon="7.942823">
        <ele>792.610605</ele>
        <time>2026-07-15T13:42:24.624Z</time>
      </trkpt>
      <trkpt lat="47.917038" lon="7.942592">
        <ele>789.219007</ele>
        <time>2026-07-15T13:42:34.409Z</time>
      </trkpt>
      <trkpt lat="47.917314" lon="7.942610">
        <ele>785.594213</ele>
        <time>2026-07-15T13:42:43.476Z</time>
      </trkpt>
      <trkpt lat="47.917366" lon="7.942655">
        <ele>784.805484</ele>
        <time>2026-07-15T13:42:45.442Z</time>
      </trkpt>
      <trkpt lat="47.917708" lon="7.943143">
        <ele>778.596560</ele>
        <time>2026-07-15T13:43:01.947Z</time>
      </trkpt>
      <trkpt lat="47.917864" lon="7.943509">
        <ele>776.897547</ele>
        <time>2026-07-15T13:43:12.470Z</time>
      </trkpt>
      <trkpt lat="47.918060" lon="7.943792">
        <ele>776.385577</ele>
        <time>2026-07-15T13:43:22.811Z</time>
      </trkpt>
      <trkpt lat="47.918167" lon="7.944084">
        <ele>775.966909</ele>
        <time>2026-07-15T13:43:32.420Z</time>
      </trkpt>
      <trkpt lat="47.918355" lon="7.944385">
        <ele>775.449296</ele>
        <time>2026-07-15T13:43:43.863Z</time>
      </trkpt>
      <trkpt lat="47.918495" lon="7.944555">
        <ele>775.110475</ele>
        <time>2026-07-15T13:43:51.009Z</time>
      </trkpt>
      <trkpt lat="47.918530" lon="7.944621">
        <ele>775.004597</ele>
        <time>2026-07-15T13:43:53.267Z</time>
      </trkpt>
      <trkpt lat="47.918514" lon="7.944829">
        <ele>774.741212</ele>
        <time>2026-07-15T13:43:58.881Z</time>
      </trkpt>
      <trkpt lat="47.918323" lon="7.945214">
        <ele>774.138613</ele>
        <time>2026-07-15T13:44:11.769Z</time>
      </trkpt>
      <trkpt lat="47.918123" lon="7.945705">
        <ele>772.554228</ele>
        <time>2026-07-15T13:44:27.369Z</time>
      </trkpt>
      <trkpt lat="47.918070" lon="7.945941">
        <ele>771.652894</ele>
        <time>2026-07-15T13:44:34.214Z</time>
      </trkpt>
      <trkpt lat="47.917723" lon="7.946436">
        <ele>769.058907</ele>
        <time>2026-07-15T13:44:53.208Z</time>
      </trkpt>
      <trkpt lat="47.917501" lon="7.946927">
        <ele>766.914034</ele>
        <time>2026-07-15T13:45:07.178Z</time>
      </trkpt>
      <trkpt lat="47.917386" lon="7.947365">
        <ele>765.210508</ele>
        <time>2026-07-15T13:45:17.432Z</time>
      </trkpt>
      <trkpt lat="47.917259" lon="7.947725">
        <ele>763.710334</ele>
        <time>2026-07-15T13:45:26.225Z</time>
      </trkpt>
      <trkpt lat="47.917241" lon="7.947926">
        <ele>762.928747</ele>
        <time>2026-07-15T13:45:30.596Z</time>
      </trkpt>
      <trkpt lat="47.917302" lon="7.948097">
        <ele>762.182128</ele>
        <time>2026-07-15T13:45:34.771Z</time>
      </trkpt>
      <trkpt lat="47.917420" lon="7.948190">
        <ele>761.414677</ele>
        <time>2026-07-15T13:45:39.088Z</time>
      </trkpt>
      <trkpt lat="47.917526" lon="7.948232">
        <ele>760.783960</ele>
        <time>2026-07-15T13:45:42.672Z</time>
      </trkpt>
      <trkpt lat="47.917658" lon="7.948232">
        <ele>760.024848</ele>
        <time>2026-07-15T13:45:47.122Z</time>
      </trkpt>
      <trkpt lat="47.917837" lon="7.948129">
        <ele>758.921552</ele>
        <time>2026-07-15T13:45:53.831Z</time>
      </trkpt>
      <trkpt lat="47.918117" lon="7.948048">
        <ele>757.281330</ele>
        <time>2026-07-15T13:46:04.545Z</time>
      </trkpt>
      <trkpt lat="47.918215" lon="7.948057">
        <ele>756.716680</ele>
        <time>2026-07-15T13:46:08.495Z</time>
      </trkpt>
      <trkpt lat="47.918268" lon="7.948146">
        <ele>756.257809</ele>
        <time>2026-07-15T13:46:11.846Z</time>
      </trkpt>
      <trkpt lat="47.918484" lon="7.948849">
        <ele>753.404812</ele>
        <time>2026-07-15T13:46:33.493Z</time>
      </trkpt>
      <trkpt lat="47.918727" lon="7.949394">
        <ele>751.484130</ele>
        <time>2026-07-15T13:46:51.412Z</time>
      </trkpt>
      <trkpt lat="47.918824" lon="7.949497">
        <ele>750.962895</ele>
        <time>2026-07-15T13:46:56.269Z</time>
      </trkpt>
      <trkpt lat="47.918942" lon="7.949497">
        <ele>750.446276</ele>
        <time>2026-07-15T13:47:01.101Z</time>
      </trkpt>
      <trkpt lat="47.919171" lon="7.949252">
        <ele>749.212603</ele>
        <time>2026-07-15T13:47:12.066Z</time>
      </trkpt>
      <trkpt lat="47.919546" lon="7.948759">
        <ele>747.024475</ele>
        <time>2026-07-15T13:47:29.989Z</time>
      </trkpt>
      <trkpt lat="47.919708" lon="7.948600">
        <ele>746.175542</ele>
        <time>2026-07-15T13:47:36.327Z</time>
      </trkpt>
      <trkpt lat="47.919875" lon="7.948584">
        <ele>745.000338</ele>
        <time>2026-07-15T13:47:41.685Z</time>
      </trkpt>
      <trkpt lat="47.920310" lon="7.948983">
        <ele>740.763546</ele>
        <time>2026-07-15T13:47:58.019Z</time>
      </trkpt>
      <trkpt lat="47.920533" lon="7.949012">
        <ele>738.906199</ele>
        <time>2026-07-15T13:48:05.266Z</time>
      </trkpt>
      <trkpt lat="47.920822" lon="7.948896">
        <ele>736.422995</ele>
        <time>2026-07-15T13:48:15.365Z</time>
      </trkpt>
      <trkpt lat="47.921300" lon="7.948887">
        <ele>732.456494</ele>
        <time>2026-07-15T13:48:32.995Z</time>
      </trkpt>
      <trkpt lat="47.921403" lon="7.948922">
        <ele>731.579977</ele>
        <time>2026-07-15T13:48:37.240Z</time>
      </trkpt>
      <trkpt lat="47.921988" lon="7.950264">
        <ele>726.699283</ele>
        <time>2026-07-15T13:49:20.993Z</time>
      </trkpt>
      <trkpt lat="47.922277" lon="7.950747">
        <ele>724.835889</ele>
        <time>2026-07-15T13:49:37.731Z</time>
      </trkpt>
      <trkpt lat="47.922424" lon="7.950837">
        <ele>724.153559</ele>
        <time>2026-07-15T13:49:43.208Z</time>
      </trkpt>
      <trkpt lat="47.922579" lon="7.950805">
        <ele>723.481602</ele>
        <time>2026-07-15T13:49:48.344Z</time>
      </trkpt>
      <trkpt lat="47.923016" lon="7.950541">
        <ele>718.044257</ele>
        <time>2026-07-15T13:50:03.422Z</time>
      </trkpt>
      <trkpt lat="47.923711" lon="7.949709">
        <ele>707.090715</ele>
        <time>2026-07-15T13:50:31.791Z</time>
      </trkpt>
      <trkpt lat="47.924015" lon="7.949202">
        <ele>701.486073</ele>
        <time>2026-07-15T13:50:47.303Z</time>
      </trkpt>
      <trkpt lat="47.924244" lon="7.948891">
        <ele>701.915600</ele>
        <time>2026-07-15T13:50:59.615Z</time>
      </trkpt>
      <trkpt lat="47.924434" lon="7.948796">
        <ele>702.435450</ele>
        <time>2026-07-15T13:51:08.491Z</time>
      </trkpt>
      <trkpt lat="47.924681" lon="7.948946">
        <ele>703.127271</ele>
        <time>2026-07-15T13:51:21.370Z</time>
      </trkpt>
      <trkpt lat="47.924664" lon="7.949036">
        <ele>703.289829</ele>
        <time>2026-07-15T13:51:24.718Z</time>
      </trkpt>
      <trkpt lat="47.924660" lon="7.949311">
        <ele>703.768018</ele>
        <time>2026-07-15T13:51:34.648Z</time>
      </trkpt>
      <trkpt lat="47.924674" lon="7.949484">
        <ele>704.070957</ele>
        <time>2026-07-15T13:51:41.254Z</time>
      </trkpt>
      <trkpt lat="47.924723" lon="7.950068">
        <ele>705.094144</ele>
        <time>2026-07-15T13:52:04.394Z</time>
      </trkpt>
      <trkpt lat="47.924761" lon="7.951184">
        <ele>704.692872</ele>
        <time>2026-07-15T13:52:40.629Z</time>
      </trkpt>
      <trkpt lat="47.924735" lon="7.951762">
        <ele>703.721492</ele>
        <time>2026-07-15T13:52:55.303Z</time>
      </trkpt>
      <trkpt lat="47.924530" lon="7.953328">
        <ele>701.059018</ele>
        <time>2026-07-15T13:53:33.390Z</time>
      </trkpt>
      <trkpt lat="47.924426" lon="7.953877">
        <ele>700.144437</ele>
        <time>2026-07-15T13:53:46.998Z</time>
      </trkpt>
      <trkpt lat="47.924239" lon="7.954532">
        <ele>699.003094</ele>
        <time>2026-07-15T13:54:04.806Z</time>
      </trkpt>
      <trkpt lat="47.924028" lon="7.955064">
        <ele>698.012068</ele>
        <time>2026-07-15T13:54:21.301Z</time>
      </trkpt>
      <trkpt lat="47.923935" lon="7.955239">
        <ele>697.654017</ele>
        <time>2026-07-15T13:54:27.688Z</time>
      </trkpt>
      <trkpt lat="47.923800" lon="7.955338">
        <ele>697.294172</ele>
        <time>2026-07-15T13:54:34.389Z</time>
      </trkpt>
      <trkpt lat="47.923434" lon="7.955412">
        <ele>697.532134</ele>
        <time>2026-07-15T13:54:51.601Z</time>
      </trkpt>
      <trkpt lat="47.923334" lon="7.955464">
        <ele>697.730168</ele>
        <time>2026-07-15T13:54:56.617Z</time>
      </trkpt>
      <trkpt lat="47.923259" lon="7.955567">
        <ele>697.920777</ele>
        <time>2026-07-15T13:55:01.580Z</time>
      </trkpt>
      <trkpt lat="47.923156" lon="7.955799">
        <ele>698.269530</ele>
        <time>2026-07-15T13:55:10.668Z</time>
      </trkpt>
      <trkpt lat="47.923029" lon="7.955858">
        <ele>698.518270</ele>
        <time>2026-07-15T13:55:17.220Z</time>
      </trkpt>
      <trkpt lat="47.922859" lon="7.955838">
        <ele>698.837165</ele>
        <time>2026-07-15T13:55:25.442Z</time>
      </trkpt>
      <trkpt lat="47.922769" lon="7.955878">
        <ele>699.012777</ele>
        <time>2026-07-15T13:55:29.880Z</time>
      </trkpt>
      <trkpt lat="47.922633" lon="7.955966">
        <ele>699.289984</ele>
        <time>2026-07-15T13:55:36.771Z</time>
      </trkpt>
      <trkpt lat="47.922473" lon="7.956139">
        <ele>699.659482</ele>
        <time>2026-07-15T13:55:45.604Z</time>
      </trkpt>
      <trkpt lat="47.922284" lon="7.956408">
        <ele>700.147911</ele>
        <time>2026-07-15T13:55:56.948Z</time>
      </trkpt>
      <trkpt lat="47.922084" lon="7.957039">
        <ele>696.770089</ele>
        <time>2026-07-15T13:56:15.420Z</time>
      </trkpt>
      <trkpt lat="47.921773" lon="7.957361">
        <ele>692.615090</ele>
        <time>2026-07-15T13:56:28.371Z</time>
      </trkpt>
      <trkpt lat="47.921689" lon="7.957498">
        <ele>691.249163</ele>
        <time>2026-07-15T13:56:32.385Z</time>
      </trkpt>
      <trkpt lat="47.921678" lon="7.957561">
        <ele>690.770265</ele>
        <time>2026-07-15T13:56:33.794Z</time>
      </trkpt>
      <trkpt lat="47.921666" lon="7.957639">
        <ele>690.181574</ele>
        <time>2026-07-15T13:56:35.526Z</time>
      </trkpt>
      <trkpt lat="47.921703" lon="7.957770">
        <ele>689.135851</ele>
        <time>2026-07-15T13:56:38.562Z</time>
      </trkpt>
      <trkpt lat="47.921969" lon="7.957955">
        <ele>685.914494</ele>
        <time>2026-07-15T13:56:47.943Z</time>
      </trkpt>
      <trkpt lat="47.922122" lon="7.958024">
        <ele>684.160040</ele>
        <time>2026-07-15T13:56:53.059Z</time>
      </trkpt>
      <trkpt lat="47.922419" lon="7.958111">
        <ele>680.837746</ele>
        <time>2026-07-15T13:57:02.698Z</time>
      </trkpt>
      <trkpt lat="47.922904" lon="7.958059">
        <ele>673.419238</ele>
        <time>2026-07-15T13:57:18.163Z</time>
      </trkpt>
      <trkpt lat="47.922902" lon="7.957963">
        <ele>672.427809</ele>
        <time>2026-07-15T13:57:20.212Z</time>
      </trkpt>
      <trkpt lat="47.922872" lon="7.957906">
        <ele>671.679658</ele>
        <time>2026-07-15T13:57:21.778Z</time>
      </trkpt>
      <trkpt lat="47.922772" lon="7.957838">
        <ele>669.986909</ele>
        <time>2026-07-15T13:57:25.302Z</time>
      </trkpt>
      <trkpt lat="47.922778" lon="7.957800">
        <ele>669.583916</ele>
        <time>2026-07-15T13:57:26.139Z</time>
      </trkpt>
      <trkpt lat="47.923137" lon="7.957627">
        <ele>663.772842</ele>
        <time>2026-07-15T13:57:38.244Z</time>
      </trkpt>
      <trkpt lat="47.923062" lon="7.957528">
        <ele>662.230457</ele>
        <time>2026-07-15T13:57:41.445Z</time>
      </trkpt>
      <trkpt lat="47.923237" lon="7.957275">
        <ele>658.477243</ele>
        <time>2026-07-15T13:57:49.253Z</time>
      </trkpt>
      <trkpt lat="47.923193" lon="7.957111">
        <ele>656.653747</ele>
        <time>2026-07-15T13:57:53.055Z</time>
      </trkpt>
      <trkpt lat="47.923199" lon="7.957055">
        <ele>656.068354</ele>
        <time>2026-07-15T13:57:54.276Z</time>
      </trkpt>
      <trkpt lat="47.923255" lon="7.956974">
        <ele>654.867039</ele>
        <time>2026-07-15T13:57:56.790Z</time>
      </trkpt>
      <trkpt lat="47.923654" lon="7.956695">
        <ele>648.296955</ele>
        <time>2026-07-15T13:58:10.944Z</time>
      </trkpt>
      <trkpt lat="47.923967" lon="7.956641">
        <ele>643.659776</ele>
        <time>2026-07-15T13:58:21.045Z</time>
      </trkpt>
      <trkpt lat="47.924407" lon="7.956712">
        <ele>637.146443</ele>
        <time>2026-07-15T13:58:35.198Z</time>
      </trkpt>
      <trkpt lat="47.924539" lon="7.956679">
        <ele>635.176695</ele>
        <time>2026-07-15T13:58:39.468Z</time>
      </trkpt>
      <trkpt lat="47.925324" lon="7.956237">
        <ele>623.439109</ele>
        <time>2026-07-15T13:59:06.331Z</time>
      </trkpt>
      <trkpt lat="47.925475" lon="7.956115">
        <ele>621.334048</ele>
        <time>2026-07-15T13:59:11.881Z</time>
      </trkpt>
      <trkpt lat="47.925849" lon="7.955953">
        <ele>616.559804</ele>
        <time>2026-07-15T13:59:24.888Z</time>
      </trkpt>
      <trkpt lat="47.925980" lon="7.955997">
        <ele>614.913650</ele>
        <time>2026-07-15T13:59:29.358Z</time>
      </trkpt>
      <trkpt lat="47.926209" lon="7.956150">
        <ele>611.837739</ele>
        <time>2026-07-15T13:59:37.534Z</time>
      </trkpt>
      <trkpt lat="47.926307" lon="7.956105">
        <ele>610.580733</ele>
        <time>2026-07-15T13:59:40.852Z</time>
      </trkpt>
      <trkpt lat="47.926472" lon="7.955855">
        <ele>607.698125</ele>
        <time>2026-07-15T13:59:48.455Z</time>
      </trkpt>
      <trkpt lat="47.926497" lon="7.955815">
        <ele>607.248785</ele>
        <time>2026-07-15T13:59:49.631Z</time>
      </trkpt>
      <trkpt lat="47.926606" lon="7.955640">
        <ele>605.286060</ele>
        <time>2026-07-15T13:59:54.774Z</time>
      </trkpt>
      <trkpt lat="47.926755" lon="7.955556">
        <ele>603.025612</ele>
        <time>2026-07-15T13:59:59.894Z</time>
      </trkpt>
      <trkpt lat="47.927036" lon="7.955452">
        <ele>598.483396</ele>
        <time>2026-07-15T14:00:09.184Z</time>
      </trkpt>
      <trkpt lat="47.927647" lon="7.955387">
        <ele>588.872973</ele>
        <time>2026-07-15T14:00:28.788Z</time>
      </trkpt>
      <trkpt lat="47.927962" lon="7.955368">
        <ele>583.926842</ele>
        <time>2026-07-15T14:00:38.838Z</time>
      </trkpt>
      <trkpt lat="47.928418" lon="7.955358">
        <ele>576.771797</ele>
        <time>2026-07-15T14:00:53.366Z</time>
      </trkpt>
      <trkpt lat="47.928657" lon="7.955680">
        <ele>571.713231</ele>
        <time>2026-07-15T14:01:03.658Z</time>
      </trkpt>
      <trkpt lat="47.928726" lon="7.955811">
        <ele>569.958826</ele>
        <time>2026-07-15T14:01:07.237Z</time>
      </trkpt>
      <trkpt lat="47.928740" lon="7.955891">
        <ele>569.088268</ele>
        <time>2026-07-15T14:01:08.996Z</time>
      </trkpt>
      <trkpt lat="47.928679" lon="7.955993">
        <ele>567.648791</ele>
        <time>2026-07-15T14:01:11.924Z</time>
      </trkpt>
      <trkpt lat="47.928497" lon="7.955987">
        <ele>564.788262</ele>
        <time>2026-07-15T14:01:17.742Z</time>
      </trkpt>
      <trkpt lat="47.928420" lon="7.956063">
        <ele>563.337664</ele>
        <time>2026-07-15T14:01:20.668Z</time>
      </trkpt>
      <trkpt lat="47.928157" lon="7.956784">
        <ele>554.694352</ele>
        <time>2026-07-15T14:01:38.280Z</time>
      </trkpt>
      <trkpt lat="47.928153" lon="7.956916">
        <ele>553.303114</ele>
        <time>2026-07-15T14:01:41.115Z</time>
      </trkpt>
      <trkpt lat="47.928269" lon="7.957201">
        <ele>549.792152</ele>
        <time>2026-07-15T14:01:48.267Z</time>
      </trkpt>
      <trkpt lat="47.928358" lon="7.957618">
        <ele>545.800021</ele>
        <time>2026-07-15T14:01:57.674Z</time>
      </trkpt>
      <trkpt lat="47.928351" lon="7.958235">
        <ele>540.748449</ele>
        <time>2026-07-15T14:02:10.960Z</time>
      </trkpt>
      <trkpt lat="47.928256" lon="7.958651">
        <ele>537.150667</ele>
        <time>2026-07-15T14:02:20.452Z</time>
      </trkpt>
      <trkpt lat="47.928272" lon="7.959014">
        <ele>534.172671</ele>
        <time>2026-07-15T14:02:28.308Z</time>
      </trkpt>
      <trkpt lat="47.928307" lon="7.959143">
        <ele>533.033372</ele>
        <time>2026-07-15T14:02:31.340Z</time>
      </trkpt>
      <trkpt lat="47.928376" lon="7.959234">
        <ele>531.908409</ele>
        <time>2026-07-15T14:02:34.321Z</time>
      </trkpt>
      <trkpt lat="47.928612" lon="7.959347">
        <ele>528.880433</ele>
        <time>2026-07-15T14:02:42.448Z</time>
      </trkpt>
      <trkpt lat="47.928715" lon="7.959299">
        <ele>527.562157</ele>
        <time>2026-07-15T14:02:45.990Z</time>
      </trkpt>
      <trkpt lat="47.928909" lon="7.959300">
        <ele>525.254750</ele>
        <time>2026-07-15T14:02:52.447Z</time>
      </trkpt>
      <trkpt lat="47.929035" lon="7.959300">
        <ele>523.838297</ele>
        <time>2026-07-15T14:02:56.599Z</time>
      </trkpt>
      <trkpt lat="47.929128" lon="7.959287">
        <ele>522.788244</ele>
        <time>2026-07-15T14:02:59.690Z</time>
      </trkpt>
      <trkpt lat="47.929452" lon="7.959105">
        <ele>518.896484</ele>
        <time>2026-07-15T14:03:11.103Z</time>
      </trkpt>
      <trkpt lat="47.929494" lon="7.959077">
        <ele>518.379368</ele>
        <time>2026-07-15T14:03:12.609Z</time>
      </trkpt>
      <trkpt lat="47.929659" lon="7.958969">
        <ele>516.353939</ele>
        <time>2026-07-15T14:03:18.434Z</time>
      </trkpt>
      <trkpt lat="47.929955" lon="7.958774">
        <ele>512.716640</ele>
        <time>2026-07-15T14:03:28.851Z</time>
      </trkpt>
      <trkpt lat="47.930024" lon="7.958758">
        <ele>511.931657</ele>
        <time>2026-07-15T14:03:31.115Z</time>
      </trkpt>
      <trkpt lat="47.930573" lon="7.958481">
        <ele>505.384580</ele>
        <time>2026-07-15T14:03:49.809Z</time>
      </trkpt>
      <trkpt lat="47.931168" lon="7.958102">
        <ele>497.424231</ele>
        <time>2026-07-15T14:04:10.740Z</time>
      </trkpt>
      <trkpt lat="47.931761" lon="7.957527">
        <ele>488.722686</ele>
        <time>2026-07-15T14:04:33.472Z</time>
      </trkpt>
      <trkpt lat="47.932012" lon="7.957345">
        <ele>485.288952</ele>
        <time>2026-07-15T14:04:42.464Z</time>
      </trkpt>
      <trkpt lat="47.932251" lon="7.957210">
        <ele>482.384909</ele>
        <time>2026-07-15T14:04:50.720Z</time>
      </trkpt>
      <trkpt lat="47.932439" lon="7.957095">
        <ele>480.290625</ele>
        <time>2026-07-15T14:04:57.289Z</time>
      </trkpt>
      <trkpt lat="47.932615" lon="7.956986">
        <ele>478.326491</ele>
        <time>2026-07-15T14:05:03.430Z</time>
      </trkpt>
      <trkpt lat="47.932843" lon="7.956766">
        <ele>475.527979</ele>
        <time>2026-07-15T14:05:12.216Z</time>
      </trkpt>
      <trkpt lat="47.933089" lon="7.956527">
        <ele>472.502403</ele>
        <time>2026-07-15T14:05:21.760Z</time>
      </trkpt>
      <trkpt lat="47.933317" lon="7.956219">
        <ele>469.332591</ele>
        <time>2026-07-15T14:05:32.050Z</time>
      </trkpt>
      <trkpt lat="47.933593" lon="7.955870">
        <ele>465.603952</ele>
        <time>2026-07-15T14:05:44.439Z</time>
      </trkpt>
      <trkpt lat="47.933723" lon="7.955748">
        <ele>464.400013</ele>
        <time>2026-07-15T14:05:49.811Z</time>
      </trkpt>
      <trkpt lat="47.934286" lon="7.955573">
        <ele>460.582030</ele>
        <time>2026-07-15T14:06:09.853Z</time>
      </trkpt>
      <trkpt lat="47.934428" lon="7.955576">
        <ele>459.639190</ele>
        <time>2026-07-15T14:06:14.780Z</time>
      </trkpt>
      <trkpt lat="47.934548" lon="7.955604">
        <ele>458.832827</ele>
        <time>2026-07-15T14:06:19.053Z</time>
      </trkpt>
      <trkpt lat="47.934847" lon="7.955808">
        <ele>456.650191</ele>
        <time>2026-07-15T14:06:30.698Z</time>
      </trkpt>
      <trkpt lat="47.934934" lon="7.955825">
        <ele>456.067664</ele>
        <time>2026-07-15T14:06:33.835Z</time>
      </trkpt>
      <trkpt lat="47.935343" lon="7.955780">
        <ele>453.344923</ele>
        <time>2026-07-15T14:06:48.613Z</time>
      </trkpt>
      <trkpt lat="47.935353" lon="7.955689">
        <ele>453.026742</ele>
        <time>2026-07-15T14:06:50.877Z</time>
      </trkpt>
      <trkpt lat="47.935543" lon="7.955086">
        <ele>451.362975</ele>
        <time>2026-07-15T14:07:07.377Z</time>
      </trkpt>
      <trkpt lat="47.935618" lon="7.954746">
        <ele>450.469234</ele>
        <time>2026-07-15T14:07:16.209Z</time>
      </trkpt>
      <trkpt lat="47.935628" lon="7.954379">
        <ele>449.552154</ele>
        <time>2026-07-15T14:07:25.468Z</time>
      </trkpt>
      <trkpt lat="47.935603" lon="7.954133">
        <ele>448.930917</ele>
        <time>2026-07-15T14:07:31.869Z</time>
      </trkpt>
      <trkpt lat="47.935507" lon="7.953690">
        <ele>447.768415</ele>
        <time>2026-07-15T14:07:43.953Z</time>
      </trkpt>
      <trkpt lat="47.935519" lon="7.953583">
        <ele>447.497541</ele>
        <time>2026-07-15T14:07:46.748Z</time>
      </trkpt>
      <trkpt lat="47.935557" lon="7.953529">
        <ele>447.302007</ele>
        <time>2026-07-15T14:07:48.783Z</time>
      </trkpt>
      <trkpt lat="47.935608" lon="7.953514">
        <ele>447.108288</ele>
        <time>2026-07-15T14:07:50.818Z</time>
      </trkpt>
      <trkpt lat="47.936244" lon="7.953382">
        <ele>445.737642</ele>
        <time>2026-07-15T14:08:15.474Z</time>
      </trkpt>
      <trkpt lat="47.936584" lon="7.953256">
        <ele>445.205365</ele>
        <time>2026-07-15T14:08:28.890Z</time>
      </trkpt>
      <trkpt lat="47.936955" lon="7.953163">
        <ele>444.633778</ele>
        <time>2026-07-15T14:08:43.595Z</time>
      </trkpt>
      <trkpt lat="47.937379" lon="7.953179">
        <ele>443.989350</ele>
        <time>2026-07-15T14:09:00.375Z</time>
      </trkpt>
      <trkpt lat="47.936955" lon="7.953163">
        <ele>445.141704</ele>
        <time>2026-07-15T14:09:18.163Z</time>
      </trkpt>
      <trkpt lat="47.937040" lon="7.952418">
        <ele>448.173809</ele>
        <time>2026-07-15T14:09:47.832Z</time>
      </trkpt>
      <trkpt lat="47.937315" lon="7.952104">
        <ele>450.247326</ele>
        <time>2026-07-15T14:10:11.518Z</time>
      </trkpt>
      <trkpt lat="47.937382" lon="7.952064">
        <ele>450.679479</ele>
        <time>2026-07-15T14:10:16.529Z</time>
      </trkpt>
      <trkpt lat="47.937429" lon="7.951984">
        <ele>451.106386</ele>
        <time>2026-07-15T14:10:21.631Z</time>
      </trkpt>
      <trkpt lat="47.937448" lon="7.951861">
        <ele>451.612828</ele>
        <time>2026-07-15T14:10:26.700Z</time>
      </trkpt>
      <trkpt lat="47.937436" lon="7.951682">
        <ele>452.334587</ele>
        <time>2026-07-15T14:10:33.951Z</time>
      </trkpt>
      <trkpt lat="47.937435" lon="7.951541">
        <ele>452.900330</ele>
        <time>2026-07-15T14:10:39.832Z</time>
      </trkpt>
      <trkpt lat="47.937435" lon="7.951460">
        <ele>453.225313</ele>
        <time>2026-07-15T14:10:43.155Z</time>
      </trkpt>
      <trkpt lat="47.937445" lon="7.951270">
        <ele>453.989968</ele>
        <time>2026-07-15T14:10:51.294Z</time>
      </trkpt>
      <trkpt lat="47.937250" lon="7.951315">
        <ele>455.142320</ele>
        <time>2026-07-15T14:11:06.143Z</time>
      </trkpt>
      <trkpt lat="47.936756" lon="7.951258">
        <ele>457.983712</ele>
        <time>2026-07-15T14:11:42.770Z</time>
      </trkpt>
      <trkpt lat="47.936241" lon="7.951363">
        <ele>460.964505</ele>
        <time>2026-07-15T14:12:15.988Z</time>
      </trkpt>
      <trkpt lat="47.935115" lon="7.951724">
        <ele>465.003465</ele>
        <time>2026-07-15T14:13:16.333Z</time>
      </trkpt>
      <trkpt lat="47.935175" lon="7.951598">
        <ele>465.048118</ele>
        <time>2026-07-15T14:13:21.263Z</time>
      </trkpt>
      <trkpt lat="47.934825" lon="7.951671">
        <ele>465.200488</ele>
        <time>2026-07-15T14:13:37.867Z</time>
      </trkpt>
      <trkpt lat="47.934657" lon="7.951646">
        <ele>465.273281</ele>
        <time>2026-07-15T14:13:45.760Z</time>
      </trkpt>
      <trkpt lat="47.934484" lon="7.951620">
        <ele>465.348248</ele>
        <time>2026-07-15T14:13:53.948Z</time>
      </trkpt>
      <trkpt lat="47.934433" lon="7.951545">
        <ele>465.379117</ele>
        <time>2026-07-15T14:13:57.349Z</time>
      </trkpt>
      <trkpt lat="47.934418" lon="7.951406">
        <ele>465.419787</ele>
        <time>2026-07-15T14:14:01.851Z</time>
      </trkpt>
      <trkpt lat="47.934380" lon="7.951496">
        <ele>465.450517</ele>
        <time>2026-07-15T14:14:05.294Z</time>
      </trkpt>
      <trkpt lat="47.934163" lon="7.951250">
        <ele>465.568004</ele>
        <time>2026-07-15T14:14:18.708Z</time>
      </trkpt>
      <trkpt lat="47.934078" lon="7.950802">
        <ele>466.081307</ele>
        <time>2026-07-15T14:14:34.576Z</time>
      </trkpt>
      <trkpt lat="47.934047" lon="7.950293">
        <ele>466.652250</ele>
        <time>2026-07-15T14:14:52.147Z</time>
      </trkpt>
      <trkpt lat="47.934085" lon="7.949690">
        <ele>467.328828</ele>
        <time>2026-07-15T14:15:13.261Z</time>
      </trkpt>
      <trkpt lat="47.934067" lon="7.949402">
        <ele>467.651947</ele>
        <time>2026-07-15T14:15:23.593Z</time>
      </trkpt>
      <trkpt lat="47.933433" lon="7.948257">
        <ele>470.093136</ele>
        <time>2026-07-15T14:16:15.605Z</time>
      </trkpt>
      <trkpt lat="47.933212" lon="7.947508">
        <ele>471.970753</ele>
        <time>2026-07-15T14:16:43.850Z</time>
      </trkpt>
      <trkpt lat="47.933171" lon="7.947322">
        <ele>472.419978</ele>
        <time>2026-07-15T14:16:50.900Z</time>
      </trkpt>
      <trkpt lat="47.933157" lon="7.947112">
        <ele>472.904143</ele>
        <time>2026-07-15T14:16:58.630Z</time>
      </trkpt>
      <trkpt lat="47.933273" lon="7.947325">
        <ele>473.533882</ele>
        <time>2026-07-15T14:17:09.069Z</time>
      </trkpt>
      <trkpt lat="47.933330" lon="7.947511">
        <ele>474.003124</ele>
        <time>2026-07-15T14:17:17.058Z</time>
      </trkpt>
      <trkpt lat="47.933338" lon="7.946798">
        <ele>476.526391</ele>
        <time>2026-07-15T14:17:47.250Z</time>
      </trkpt>
      <trkpt lat="47.933692" lon="7.947769">
        <ele>481.532957</ele>
        <time>2026-07-15T14:18:46.331Z</time>
      </trkpt>
      <trkpt lat="47.933879" lon="7.948075">
        <ele>483.408730</ele>
        <time>2026-07-15T14:19:04.837Z</time>
      </trkpt>
      <trkpt lat="47.934048" lon="7.948238">
        <ele>484.768897</ele>
        <time>2026-07-15T14:19:16.602Z</time>
      </trkpt>
      <trkpt lat="47.934136" lon="7.948158">
        <ele>485.465412</ele>
        <time>2026-07-15T14:19:22.616Z</time>
      </trkpt>
      <trkpt lat="47.934064" lon="7.948050">
        <ele>486.155430</ele>
        <time>2026-07-15T14:19:27.170Z</time>
      </trkpt>
      <trkpt lat="47.933992" lon="7.947638">
        <ele>486.622919</ele>
        <time>2026-07-15T14:19:40.200Z</time>
      </trkpt>
      <trkpt lat="47.933995" lon="7.947498">
        <ele>486.483126</ele>
        <time>2026-07-15T14:19:44.706Z</time>
      </trkpt>
      <trkpt lat="47.933817" lon="7.947003">
        <ele>485.922452</ele>
        <time>2026-07-15T14:20:00.573Z</time>
      </trkpt>
      <trkpt lat="47.933760" lon="7.946767">
        <ele>485.672084</ele>
        <time>2026-07-15T14:20:07.136Z</time>
      </trkpt>
      <trkpt lat="47.933760" lon="7.946521">
        <ele>485.426573</ele>
        <time>2026-07-15T14:20:13.169Z</time>
      </trkpt>
      <trkpt lat="47.933810" lon="7.946233">
        <ele>485.129652</ele>
        <time>2026-07-15T14:20:20.449Z</time>
      </trkpt>
      <trkpt lat="47.933836" lon="7.945896">
        <ele>484.791099</ele>
        <time>2026-07-15T14:20:28.652Z</time>
      </trkpt>
      <trkpt lat="47.933805" lon="7.945565">
        <ele>484.457545</ele>
        <time>2026-07-15T14:20:36.808Z</time>
      </trkpt>
      <trkpt lat="47.933655" lon="7.945429">
        <ele>484.218121</ele>
        <time>2026-07-15T14:20:43.576Z</time>
      </trkpt>
      <trkpt lat="47.933536" lon="7.945261">
        <ele>484.447464</ele>
        <time>2026-07-15T14:20:50.009Z</time>
      </trkpt>
      <trkpt lat="47.933449" lon="7.944948">
        <ele>484.765349</ele>
        <time>2026-07-15T14:20:58.938Z</time>
      </trkpt>
      <trkpt lat="47.933326" lon="7.944688">
        <ele>485.063924</ele>
        <time>2026-07-15T14:21:07.491Z</time>
      </trkpt>
      <trkpt lat="47.933021" lon="7.944200">
        <ele>485.689971</ele>
        <time>2026-07-15T14:21:26.114Z</time>
      </trkpt>
      <trkpt lat="47.932853" lon="7.944010">
        <ele>485.985096</ele>
        <time>2026-07-15T14:21:35.808Z</time>
      </trkpt>
      <trkpt lat="47.932674" lon="7.943874">
        <ele>486.266325</ele>
        <time>2026-07-15T14:21:45.307Z</time>
      </trkpt>
      <trkpt lat="47.932901" lon="7.943559">
        <ele>486.700303</ele>
        <time>2026-07-15T14:22:01.037Z</time>
      </trkpt>
      <trkpt lat="47.933138" lon="7.942838">
        <ele>492.683919</ele>
        <time>2026-07-15T14:22:31.801Z</time>
      </trkpt>
      <trkpt lat="47.933313" lon="7.942079">
        <ele>498.847603</ele>
        <time>2026-07-15T14:23:09.625Z</time>
      </trkpt>
      <trkpt lat="47.933371" lon="7.941584">
        <ele>502.706303</ele>
        <time>2026-07-15T14:23:34.829Z</time>
      </trkpt>
      <trkpt lat="47.933248" lon="7.941051">
        <ele>507.035085</ele>
        <time>2026-07-15T14:24:04.675Z</time>
      </trkpt>
      <trkpt lat="47.933083" lon="7.940729">
        <ele>511.932439</ele>
        <time>2026-07-15T14:24:28.671Z</time>
      </trkpt>
      <trkpt lat="47.932936" lon="7.940513">
        <ele>515.799203</ele>
        <time>2026-07-15T14:24:48.764Z</time>
      </trkpt>
      <trkpt lat="47.932666" lon="7.939914">
        <ele>524.866135</ele>
        <time>2026-07-15T14:25:39.158Z</time>
      </trkpt>
      <trkpt lat="47.932617" lon="7.939814">
        <ele>526.422081</ele>
        <time>2026-07-15T14:25:47.387Z</time>
      </trkpt>
      <trkpt lat="47.932560" lon="7.939854">
        <ele>527.602750</ele>
        <time>2026-07-15T14:25:55.020Z</time>
      </trkpt>
      <trkpt lat="47.932417" lon="7.939815">
        <ele>530.327657</ele>
        <time>2026-07-15T14:26:11.762Z</time>
      </trkpt>
      <trkpt lat="47.932209" lon="7.939723">
        <ele>534.394205</ele>
        <time>2026-07-15T14:26:36.085Z</time>
      </trkpt>
      <trkpt lat="47.932063" lon="7.939574">
        <ele>537.709583</ele>
        <time>2026-07-15T14:26:55.317Z</time>
      </trkpt>
      <trkpt lat="47.931968" lon="7.939687">
        <ele>539.986701</ele>
        <time>2026-07-15T14:27:08.584Z</time>
      </trkpt>
      <trkpt lat="47.931905" lon="7.939939">
        <ele>543.174525</ele>
        <time>2026-07-15T14:27:27.566Z</time>
      </trkpt>
      <trkpt lat="47.931771" lon="7.940127">
        <ele>546.337853</ele>
        <time>2026-07-15T14:27:46.602Z</time>
      </trkpt>
      <trkpt lat="47.931665" lon="7.940197">
        <ele>548.331605</ele>
        <time>2026-07-15T14:27:58.695Z</time>
      </trkpt>
      <trkpt lat="47.931496" lon="7.940450">
        <ele>552.448819</ele>
        <time>2026-07-15T14:28:22.103Z</time>
      </trkpt>
      <trkpt lat="47.931256" lon="7.940619">
        <ele>557.013331</ele>
        <time>2026-07-15T14:28:46.919Z</time>
      </trkpt>
      <trkpt lat="47.930840" lon="7.939956">
        <ele>567.481533</ele>
        <time>2026-07-15T14:29:44.628Z</time>
      </trkpt>
      <trkpt lat="47.930742" lon="7.939609">
        <ele>571.821379</ele>
        <time>2026-07-15T14:30:11.792Z</time>
      </trkpt>
      <trkpt lat="47.930275" lon="7.938579">
        <ele>592.361207</ele>
        <time>2026-07-15T14:32:00.682Z</time>
      </trkpt>
      <trkpt lat="47.929992" lon="7.937932">
        <ele>605.169004</ele>
        <time>2026-07-15T14:33:17.467Z</time>
      </trkpt>
      <trkpt lat="47.929826" lon="7.937699">
        <ele>610.806603</ele>
        <time>2026-07-15T14:33:52.285Z</time>
      </trkpt>
      <trkpt lat="47.929680" lon="7.937235">
        <ele>619.485850</ele>
        <time>2026-07-15T14:34:45.721Z</time>
      </trkpt>
      <trkpt lat="47.929713" lon="7.936911">
        <ele>625.269555</ele>
        <time>2026-07-15T14:35:20.423Z</time>
      </trkpt>
      <trkpt lat="47.929831" lon="7.936531">
        <ele>632.661054</ele>
        <time>2026-07-15T14:36:07.582Z</time>
      </trkpt>
      <trkpt lat="47.929720" lon="7.935964">
        <ele>643.085930</ele>
        <time>2026-07-15T14:37:17.106Z</time>
      </trkpt>
      <trkpt lat="47.929600" lon="7.935605">
        <ele>650.166264</ele>
        <time>2026-07-15T14:37:58.131Z</time>
      </trkpt>
      <trkpt lat="47.929487" lon="7.935401">
        <ele>654.837468</ele>
        <time>2026-07-15T14:38:22.720Z</time>
      </trkpt>
      <trkpt lat="47.929245" lon="7.934746">
        <ele>664.939669</ele>
        <time>2026-07-15T14:39:11.256Z</time>
      </trkpt>
      <trkpt lat="47.929119" lon="7.935413">
        <ele>668.090009</ele>
        <time>2026-07-15T14:39:46.276Z</time>
      </trkpt>
      <trkpt lat="47.929037" lon="7.935671">
        <ele>669.388119</ele>
        <time>2026-07-15T14:39:58.166Z</time>
      </trkpt>
      <trkpt lat="47.928920" lon="7.935862">
        <ele>670.564555</ele>
        <time>2026-07-15T14:40:07.205Z</time>
      </trkpt>
      <trkpt lat="47.928776" lon="7.936026">
        <ele>671.793495</ele>
        <time>2026-07-15T14:40:15.172Z</time>
      </trkpt>
      <trkpt lat="47.928606" lon="7.936098">
        <ele>672.992402</ele>
        <time>2026-07-15T14:40:21.967Z</time>
      </trkpt>
      <trkpt lat="47.928416" lon="7.936122">
        <ele>674.286065</ele>
        <time>2026-07-15T14:40:29.029Z</time>
      </trkpt>
      <trkpt lat="47.928114" lon="7.936050">
        <ele>676.300867</ele>
        <time>2026-07-15T14:40:40.512Z</time>
      </trkpt>
      <trkpt lat="47.927799" lon="7.935871">
        <ele>678.119260</ele>
        <time>2026-07-15T14:40:53.818Z</time>
      </trkpt>
      <trkpt lat="47.927514" lon="7.935659">
        <ele>679.837192</ele>
        <time>2026-07-15T14:41:07.467Z</time>
      </trkpt>
      <trkpt lat="47.927413" lon="7.935372">
        <ele>681.009054</ele>
        <time>2026-07-15T14:41:17.713Z</time>
      </trkpt>
      <trkpt lat="47.927401" lon="7.935241">
        <ele>681.487013</ele>
        <time>2026-07-15T14:41:22.131Z</time>
      </trkpt>
      <trkpt lat="47.927374" lon="7.934932">
        <ele>682.613481</ele>
        <time>2026-07-15T14:41:33.240Z</time>
      </trkpt>
      <trkpt lat="47.927419" lon="7.934145">
        <ele>685.468764</ele>
        <time>2026-07-15T14:42:09.293Z</time>
      </trkpt>
      <trkpt lat="47.927444" lon="7.933535">
        <ele>692.044291</ele>
        <time>2026-07-15T14:42:44.902Z</time>
      </trkpt>
      <trkpt lat="47.927550" lon="7.932957">
        <ele>699.170369</ele>
        <time>2026-07-15T14:43:22.204Z</time>
      </trkpt>
      <trkpt lat="47.927905" lon="7.932105">
        <ele>711.100955</ele>
        <time>2026-07-15T14:44:26.035Z</time>
      </trkpt>
      <trkpt lat="47.927818" lon="7.931977">
        <ele>713.269046</ele>
        <time>2026-07-15T14:44:37.782Z</time>
      </trkpt>
      <trkpt lat="47.927818" lon="7.930922">
        <ele>726.067201</ele>
        <time>2026-07-15T14:45:45.227Z</time>
      </trkpt>
      <trkpt lat="47.927969" lon="7.930488">
        <ele>732.063204</ele>
        <time>2026-07-15T14:46:13.810Z</time>
      </trkpt>
      <trkpt lat="47.927948" lon="7.930314">
        <ele>734.230998</ele>
        <time>2026-07-15T14:46:24.213Z</time>
      </trkpt>
      <trkpt lat="47.928057" lon="7.929767">
        <ele>741.228211</ele>
        <time>2026-07-15T14:46:58.722Z</time>
      </trkpt>
      <trkpt lat="47.927713" lon="7.929374">
        <ele>749.155603</ele>
        <time>2026-07-15T14:47:38.317Z</time>
      </trkpt>
      <trkpt lat="47.927642" lon="7.929210">
        <ele>751.548587</ele>
        <time>2026-07-15T14:47:50.311Z</time>
      </trkpt>
      <trkpt lat="47.927611" lon="7.929085">
        <ele>753.181015</ele>
        <time>2026-07-15T14:47:58.567Z</time>
      </trkpt>
      <trkpt lat="47.927378" lon="7.926971">
        <ele>779.420187</ele>
        <time>2026-07-15T14:50:10.292Z</time>
      </trkpt>
      <trkpt lat="47.927305" lon="7.925759">
        <ele>794.589567</ele>
        <time>2026-07-15T14:51:24.085Z</time>
      </trkpt>
      <trkpt lat="47.927372" lon="7.925394">
        <ele>799.338102</ele>
        <time>2026-07-15T14:51:47.245Z</time>
      </trkpt>
      <trkpt lat="47.927397" lon="7.925269">
        <ele>800.974897</ele>
        <time>2026-07-15T14:51:55.208Z</time>
      </trkpt>
      <trkpt lat="47.927382" lon="7.925073">
        <ele>803.450171</ele>
        <time>2026-07-15T14:52:07.332Z</time>
      </trkpt>
      <trkpt lat="47.927326" lon="7.924852">
        <ele>806.414794</ele>
        <time>2026-07-15T14:52:21.955Z</time>
      </trkpt>
      <trkpt lat="47.927460" lon="7.925053">
        <ele>809.972422</ele>
        <time>2026-07-15T14:52:39.696Z</time>
      </trkpt>
      <trkpt lat="47.927630" lon="7.925025">
        <ele>813.175072</ele>
        <time>2026-07-15T14:52:55.903Z</time>
      </trkpt>
      <trkpt lat="47.927756" lon="7.924886">
        <ele>816.109111</ele>
        <time>2026-07-15T14:53:10.777Z</time>
      </trkpt>
      <trkpt lat="47.927792" lon="7.924769">
        <ele>817.799351</ele>
        <time>2026-07-15T14:53:19.018Z</time>
      </trkpt>
      <trkpt lat="47.928025" lon="7.922563">
        <ele>849.531574</ele>
        <time>2026-07-15T14:55:53.332Z</time>
      </trkpt>
      <trkpt lat="47.928131" lon="7.922252">
        <ele>854.489409</ele>
        <time>2026-07-15T14:56:19.445Z</time>
      </trkpt>
      <trkpt lat="47.928256" lon="7.922017">
        <ele>858.911797</ele>
        <time>2026-07-15T14:56:42.267Z</time>
      </trkpt>
      <trkpt lat="47.928405" lon="7.921812">
        <ele>863.407249</ele>
        <time>2026-07-15T14:57:05.531Z</time>
      </trkpt>
      <trkpt lat="47.928695" lon="7.921504">
        <ele>871.302906</ele>
        <time>2026-07-15T14:57:46.785Z</time>
      </trkpt>
      <trkpt lat="47.928737" lon="7.921410">
        <ele>872.982229</ele>
        <time>2026-07-15T14:57:55.451Z</time>
      </trkpt>
      <trkpt lat="47.929339" lon="7.920504">
        <ele>891.947235</ele>
        <time>2026-07-15T14:59:44.768Z</time>
      </trkpt>
      <trkpt lat="47.929986" lon="7.920254">
        <ele>904.517218</ele>
        <time>2026-07-15T15:01:00.782Z</time>
      </trkpt>
      <trkpt lat="47.930621" lon="7.920081">
        <ele>916.045497</ele>
        <time>2026-07-15T15:02:11.005Z</time>
      </trkpt>
      <trkpt lat="47.930759" lon="7.919966">
        <ele>918.868294</ele>
        <time>2026-07-15T15:02:27.313Z</time>
      </trkpt>
      <trkpt lat="47.931021" lon="7.919903">
        <ele>923.607863</ele>
        <time>2026-07-15T15:02:53.169Z</time>
      </trkpt>
      <trkpt lat="47.931331" lon="7.919699">
        <ele>928.879576</ele>
        <time>2026-07-15T15:03:24.325Z</time>
      </trkpt>
      <trkpt lat="47.931472" lon="7.919734">
        <ele>930.581049</ele>
        <time>2026-07-15T15:03:35.237Z</time>
      </trkpt>
      <trkpt lat="47.931486" lon="7.919679">
        <ele>931.050301</ele>
        <time>2026-07-15T15:03:38.879Z</time>
      </trkpt>
      <trkpt lat="47.931625" lon="7.919637">
        <ele>932.738478</ele>
        <time>2026-07-15T15:03:51.638Z</time>
      </trkpt>
      <trkpt lat="47.931671" lon="7.919649">
        <ele>933.294348</ele>
        <time>2026-07-15T15:03:55.809Z</time>
      </trkpt>
      <trkpt lat="47.931726" lon="7.919734">
        <ele>934.236804</ele>
        <time>2026-07-15T15:04:02.945Z</time>
      </trkpt>
      <trkpt lat="47.931851" lon="7.919669">
        <ele>935.812487</ele>
        <time>2026-07-15T15:04:14.935Z</time>
      </trkpt>
      <trkpt lat="47.932010" lon="7.919458">
        <ele>938.345123</ele>
        <time>2026-07-15T15:04:34.479Z</time>
      </trkpt>
      <trkpt lat="47.932054" lon="7.919514">
        <ele>939.033460</ele>
        <time>2026-07-15T15:04:39.824Z</time>
      </trkpt>
      <trkpt lat="47.932183" lon="7.919829">
        <ele>941.977891</ele>
        <time>2026-07-15T15:05:00.454Z</time>
      </trkpt>
      <trkpt lat="47.932334" lon="7.919861">
        <ele>943.793374</ele>
        <time>2026-07-15T15:05:11.294Z</time>
      </trkpt>
      <trkpt lat="47.932382" lon="7.919624">
        <ele>945.768049</ele>
        <time>2026-07-15T15:05:22.177Z</time>
      </trkpt>
      <trkpt lat="47.932460" lon="7.919404">
        <ele>947.753187</ele>
        <time>2026-07-15T15:05:32.698Z</time>
      </trkpt>
      <trkpt lat="47.932475" lon="7.919182">
        <ele>949.407408</ele>
        <time>2026-07-15T15:05:42.661Z</time>
      </trkpt>
      <trkpt lat="47.932386" lon="7.918892">
        <ele>951.552740</ele>
        <time>2026-07-15T15:05:58.531Z</time>
      </trkpt>
      <trkpt lat="47.932585" lon="7.919151">
        <ele>954.203189</ele>
        <time>2026-07-15T15:06:14.627Z</time>
      </trkpt>
      <trkpt lat="47.932866" lon="7.919574">
        <ele>958.209489</ele>
        <time>2026-07-15T15:06:39.719Z</time>
      </trkpt>
      <trkpt lat="47.933041" lon="7.919760">
        <ele>960.366085</ele>
        <time>2026-07-15T15:06:54.076Z</time>
      </trkpt>
      <trkpt lat="47.933090" lon="7.919812">
        <ele>960.969620</ele>
        <time>2026-07-15T15:06:57.968Z</time>
      </trkpt>
      <trkpt lat="47.933187" lon="7.919822">
        <ele>961.945652</ele>
        <time>2026-07-15T15:07:04.553Z</time>
      </trkpt>
      <trkpt lat="47.933295" lon="7.919869">
        <ele>963.074929</ele>
        <time>2026-07-15T15:07:12.745Z</time>
      </trkpt>
      <trkpt lat="47.933459" lon="7.919828">
        <ele>964.744139</ele>
        <time>2026-07-15T15:07:26.423Z</time>
      </trkpt>
      <trkpt lat="47.933742" lon="7.919654">
        <ele>967.962527</ele>
        <time>2026-07-15T15:07:52.842Z</time>
      </trkpt>
      <trkpt lat="47.933820" lon="7.919536">
        <ele>969.235622</ele>
        <time>2026-07-15T15:08:02.726Z</time>
      </trkpt>
      <trkpt lat="47.933996" lon="7.919383">
        <ele>971.570390</ele>
        <time>2026-07-15T15:08:21.707Z</time>
      </trkpt>
      <trkpt lat="47.934086" lon="7.919306">
        <ele>972.759546</ele>
        <time>2026-07-15T15:08:30.910Z</time>
      </trkpt>
      <trkpt lat="47.934073" lon="7.918786">
        <ele>976.755998</ele>
        <time>2026-07-15T15:09:00.962Z</time>
      </trkpt>
      <trkpt lat="47.933909" lon="7.918397">
        <ele>980.285852</ele>
        <time>2026-07-15T15:09:27.855Z</time>
      </trkpt>
      <trkpt lat="47.933790" lon="7.917977">
        <ele>983.788105</ele>
        <time>2026-07-15T15:09:53.250Z</time>
      </trkpt>
      <trkpt lat="47.933650" lon="7.917504">
        <ele>987.469340</ele>
        <time>2026-07-15T15:10:18.860Z</time>
      </trkpt>
      <trkpt lat="47.933561" lon="7.917287">
        <ele>987.817761</ele>
        <time>2026-07-15T15:10:30.365Z</time>
      </trkpt>
      <trkpt lat="47.933236" lon="7.916620">
        <ele>988.947171</ele>
        <time>2026-07-15T15:11:05.324Z</time>
      </trkpt>
      <trkpt lat="47.933001" lon="7.916258">
        <ele>989.637432</ele>
        <time>2026-07-15T15:11:23.925Z</time>
      </trkpt>
      <trkpt lat="47.932731" lon="7.915959">
        <ele>990.324605</ele>
        <time>2026-07-15T15:11:40.202Z</time>
      </trkpt>
      <trkpt lat="47.932838" lon="7.915847">
        <ele>990.591728</ele>
        <time>2026-07-15T15:11:47.241Z</time>
      </trkpt>
      <trkpt lat="47.933307" lon="7.915514">
        <ele>987.357165</ele>
        <time>2026-07-15T15:12:12.687Z</time>
      </trkpt>
      <trkpt lat="47.933457" lon="7.915478">
        <ele>985.329719</ele>
        <time>2026-07-15T15:12:19.513Z</time>
      </trkpt>
      <trkpt lat="47.933818" lon="7.915222">
        <ele>979.996116</ele>
        <time>2026-07-15T15:12:37.310Z</time>
      </trkpt>
      <trkpt lat="47.934140" lon="7.915153">
        <ele>975.655004</ele>
        <time>2026-07-15T15:12:51.782Z</time>
      </trkpt>
      <trkpt lat="47.934565" lon="7.915146">
        <ele>969.983083</ele>
        <time>2026-07-15T15:13:10.577Z</time>
      </trkpt>
      <trkpt lat="47.935050" lon="7.915228">
        <ele>963.021919</ele>
        <time>2026-07-15T15:13:32.144Z</time>
      </trkpt>
      <trkpt lat="47.935677" lon="7.915114">
        <ele>953.548098</ele>
        <time>2026-07-15T15:14:00.247Z</time>
      </trkpt>
      <trkpt lat="47.936018" lon="7.915097">
        <ele>948.430624</ele>
        <time>2026-07-15T15:14:15.527Z</time>
      </trkpt>
      <trkpt lat="47.936295" lon="7.915137">
        <ele>944.256532</ele>
        <time>2026-07-15T15:14:27.913Z</time>
      </trkpt>
      <trkpt lat="47.936575" lon="7.915104">
        <ele>940.048039</ele>
        <time>2026-07-15T15:14:40.447Z</time>
      </trkpt>
      <trkpt lat="47.936736" lon="7.915118">
        <ele>937.805463</ele>
        <time>2026-07-15T15:14:47.641Z</time>
      </trkpt>
      <trkpt lat="47.937185" lon="7.915104">
        <ele>931.560546</ele>
        <time>2026-07-15T15:15:07.660Z</time>
      </trkpt>
      <trkpt lat="47.938161" lon="7.914557">
        <ele>917.063696</ele>
        <time>2026-07-15T15:15:54.101Z</time>
      </trkpt>
      <trkpt lat="47.938301" lon="7.914633">
        <ele>915.000999</ele>
        <time>2026-07-15T15:16:00.773Z</time>
      </trkpt>
      <trkpt lat="47.938366" lon="7.914871">
        <ele>912.819485</ele>
        <time>2026-07-15T15:16:08.485Z</time>
      </trkpt>
      <trkpt lat="47.938345" lon="7.915202">
        <ele>909.997450</ele>
        <time>2026-07-15T15:16:18.459Z</time>
      </trkpt>
      <trkpt lat="47.938251" lon="7.915569">
        <ele>906.662518</ele>
        <time>2026-07-15T15:16:30.259Z</time>
      </trkpt>
      <trkpt lat="47.938545" lon="7.915403">
        <ele>902.680053</ele>
        <time>2026-07-15T15:16:44.393Z</time>
      </trkpt>
      <trkpt lat="47.938716" lon="7.915156">
        <ele>899.665253</ele>
        <time>2026-07-15T15:16:55.055Z</time>
      </trkpt>
      <trkpt lat="47.938808" lon="7.915091">
        <ele>898.375668</ele>
        <time>2026-07-15T15:16:59.592Z</time>
      </trkpt>
      <trkpt lat="47.938873" lon="7.914992">
        <ele>897.199113</ele>
        <time>2026-07-15T15:17:03.745Z</time>
      </trkpt>
      <trkpt lat="47.938939" lon="7.914711">
        <ele>894.671725</ele>
        <time>2026-07-15T15:17:12.692Z</time>
      </trkpt>
      <trkpt lat="47.938993" lon="7.914331">
        <ele>891.354271</ele>
        <time>2026-07-15T15:17:24.285Z</time>
      </trkpt>
      <trkpt lat="47.939000" lon="7.913383">
        <ele>883.130973</ele>
        <time>2026-07-15T15:17:52.588Z</time>
      </trkpt>
      <trkpt lat="47.939330" lon="7.914092">
        <ele>875.642644</ele>
        <time>2026-07-15T15:18:18.403Z</time>
      </trkpt>
      <trkpt lat="47.939443" lon="7.913172">
        <ele>867.654887</ele>
        <time>2026-07-15T15:18:46.540Z</time>
      </trkpt>
      <trkpt lat="47.939605" lon="7.913573">
        <ele>863.935387</ele>
        <time>2026-07-15T15:19:01.134Z</time>
      </trkpt>
      <trkpt lat="47.939668" lon="7.913841">
        <ele>861.679404</ele>
        <time>2026-07-15T15:19:09.869Z</time>
      </trkpt>
      <trkpt lat="47.939708" lon="7.913971">
        <ele>860.543104</ele>
        <time>2026-07-15T15:19:14.278Z</time>
      </trkpt>
      <trkpt lat="47.939762" lon="7.914405">
        <ele>857.036888</ele>
        <time>2026-07-15T15:19:27.631Z</time>
      </trkpt>
      <trkpt lat="47.939825" lon="7.914534">
        <ele>855.768868</ele>
        <time>2026-07-15T15:19:32.417Z</time>
      </trkpt>
      <trkpt lat="47.939803" lon="7.914220">
        <ele>853.261166</ele>
        <time>2026-07-15T15:19:40.452Z</time>
      </trkpt>
      <trkpt lat="47.939872" lon="7.913784">
        <ele>849.702703</ele>
        <time>2026-07-15T15:19:53.878Z</time>
      </trkpt>
      <trkpt lat="47.939950" lon="7.913289">
        <ele>844.874281</ele>
        <time>2026-07-15T15:20:09.060Z</time>
      </trkpt>
      <trkpt lat="47.940016" lon="7.913171">
        <ele>843.177401</ele>
        <time>2026-07-15T15:20:13.644Z</time>
      </trkpt>
      <trkpt lat="47.940193" lon="7.914273">
        <ele>830.668088</ele>
        <time>2026-07-15T15:20:47.203Z</time>
      </trkpt>
      <trkpt lat="47.940364" lon="7.914987">
        <ele>822.298006</ele>
        <time>2026-07-15T15:21:09.736Z</time>
      </trkpt>
      <trkpt lat="47.940352" lon="7.915132">
        <ele>820.685246</ele>
        <time>2026-07-15T15:21:14.101Z</time>
      </trkpt>
      <trkpt lat="47.940211" lon="7.915606">
        <ele>814.597883</ele>
        <time>2026-07-15T15:21:29.517Z</time>
      </trkpt>
      <trkpt lat="47.940123" lon="7.916033">
        <ele>809.088147</ele>
        <time>2026-07-15T15:21:42.758Z</time>
      </trkpt>
      <trkpt lat="47.940001" lon="7.916803">
        <ele>799.329765</ele>
        <time>2026-07-15T15:22:06.059Z</time>
      </trkpt>
      <trkpt lat="47.939981" lon="7.917195">
        <ele>794.481232</ele>
        <time>2026-07-15T15:22:17.606Z</time>
      </trkpt>
      <trkpt lat="47.939892" lon="7.917370">
        <ele>791.771473</ele>
        <time>2026-07-15T15:22:24.092Z</time>
      </trkpt>
      <trkpt lat="47.940331" lon="7.917432">
        <ele>784.008337</ele>
        <time>2026-07-15T15:22:43.605Z</time>
      </trkpt>
      <trkpt lat="47.940583" lon="7.917320">
        <ele>780.504948</ele>
        <time>2026-07-15T15:22:55.317Z</time>
      </trkpt>
      <trkpt lat="47.940497" lon="7.917694">
        <ele>776.975443</ele>
        <time>2026-07-15T15:23:07.145Z</time>
      </trkpt>
      <trkpt lat="47.940019" lon="7.918209">
        <ele>769.120771</ele>
        <time>2026-07-15T15:23:33.550Z</time>
      </trkpt>
      <trkpt lat="47.939915" lon="7.918262">
        <ele>767.656514</ele>
        <time>2026-07-15T15:23:38.600Z</time>
      </trkpt>
      <trkpt lat="47.939830" lon="7.918428">
        <ele>765.791513</ele>
        <time>2026-07-15T15:23:45.073Z</time>
      </trkpt>
      <trkpt lat="47.939809" lon="7.918543">
        <ele>764.727559</ele>
        <time>2026-07-15T15:23:48.775Z</time>
      </trkpt>
      <trkpt lat="47.939854" lon="7.918675">
        <ele>763.405525</ele>
        <time>2026-07-15T15:23:53.406Z</time>
      </trkpt>
      <trkpt lat="47.940263" lon="7.919343">
        <ele>753.509826</ele>
        <time>2026-07-15T15:24:20.548Z</time>
      </trkpt>
      <trkpt lat="47.940359" lon="7.919563">
        <ele>750.411514</ele>
        <time>2026-07-15T15:24:28.311Z</time>
      </trkpt>
      <trkpt lat="47.940565" lon="7.919665">
        <ele>746.588352</ele>
        <time>2026-07-15T15:24:37.911Z</time>
      </trkpt>
      <trkpt lat="47.940677" lon="7.919772">
        <ele>744.245990</ele>
        <time>2026-07-15T15:24:43.747Z</time>
      </trkpt>
      <trkpt lat="47.941025" lon="7.920416">
        <ele>734.482268</ele>
        <time>2026-07-15T15:25:08.132Z</time>
      </trkpt>
      <trkpt lat="47.941159" lon="7.920885">
        <ele>728.528511</ele>
        <time>2026-07-15T15:25:23.145Z</time>
      </trkpt>
      <trkpt lat="47.941244" lon="7.921007">
        <ele>726.610216</ele>
        <time>2026-07-15T15:25:28.361Z</time>
      </trkpt>
      <trkpt lat="47.941320" lon="7.920999">
        <ele>725.370759</ele>
        <time>2026-07-15T15:25:31.746Z</time>
      </trkpt>
      <trkpt lat="47.941607" lon="7.920731">
        <ele>719.863524</ele>
        <time>2026-07-15T15:25:46.649Z</time>
      </trkpt>
      <trkpt lat="47.941830" lon="7.920409">
        <ele>714.816249</ele>
        <time>2026-07-15T15:26:00.344Z</time>
      </trkpt>
      <trkpt lat="47.942053" lon="7.920176">
        <ele>710.388090</ele>
        <time>2026-07-15T15:26:12.380Z</time>
      </trkpt>
      <trkpt lat="47.942464" lon="7.919884">
        <ele>702.983224</ele>
        <time>2026-07-15T15:26:32.637Z</time>
      </trkpt>
      <trkpt lat="47.942581" lon="7.919771">
        <ele>700.716216</ele>
        <time>2026-07-15T15:26:38.901Z</time>
      </trkpt>
      <trkpt lat="47.942763" lon="7.919689">
        <ele>699.113386</ele>
        <time>2026-07-15T15:26:47.809Z</time>
      </trkpt>
      <trkpt lat="47.943035" lon="7.919698">
        <ele>697.429599</ele>
        <time>2026-07-15T15:27:01.233Z</time>
      </trkpt>
      <trkpt lat="47.943183" lon="7.919814">
        <ele>696.395075</ele>
        <time>2026-07-15T15:27:09.893Z</time>
      </trkpt>
      <trkpt lat="47.943366" lon="7.920096">
        <ele>694.767353</ele>
        <time>2026-07-15T15:27:23.877Z</time>
      </trkpt>
      <trkpt lat="47.943461" lon="7.920587">
        <ele>692.648603</ele>
        <time>2026-07-15T15:27:41.650Z</time>
      </trkpt>
      <trkpt lat="47.943438" lon="7.920813">
        <ele>691.700923</ele>
        <time>2026-07-15T15:27:49.461Z</time>
      </trkpt>
      <trkpt lat="47.943351" lon="7.921261">
        <ele>689.767174</ele>
        <time>2026-07-15T15:28:05.193Z</time>
      </trkpt>
      <trkpt lat="47.943374" lon="7.921439">
        <ele>689.015634</ele>
        <time>2026-07-15T15:28:11.296Z</time>
      </trkpt>
      <trkpt lat="47.943461" lon="7.921532">
        <ele>688.022793</ele>
        <time>2026-07-15T15:28:16.613Z</time>
      </trkpt>
      <trkpt lat="47.943617" lon="7.921581">
        <ele>686.435757</ele>
        <time>2026-07-15T15:28:24.467Z</time>
      </trkpt>
      <trkpt lat="47.944099" lon="7.921549">
        <ele>681.632546</ele>
        <time>2026-07-15T15:28:47.551Z</time>
      </trkpt>
      <trkpt lat="47.944244" lon="7.921592">
        <ele>680.160818</ele>
        <time>2026-07-15T15:28:54.388Z</time>
      </trkpt>
      <trkpt lat="47.944371" lon="7.921703">
        <ele>678.695745</ele>
        <time>2026-07-15T15:29:01.024Z</time>
      </trkpt>
      <trkpt lat="47.944469" lon="7.921974">
        <ele>676.642025</ele>
        <time>2026-07-15T15:29:10.281Z</time>
      </trkpt>
      <trkpt lat="47.944482" lon="7.922236">
        <ele>674.890070</ele>
        <time>2026-07-15T15:29:18.149Z</time>
      </trkpt>
      <trkpt lat="47.944521" lon="7.922368">
        <ele>673.927995</ele>
        <time>2026-07-15T15:29:22.492Z</time>
      </trkpt>
      <trkpt lat="47.944529" lon="7.922498">
        <ele>673.057430</ele>
        <time>2026-07-15T15:29:26.412Z</time>
      </trkpt>
      <trkpt lat="47.944559" lon="7.922574">
        <ele>672.469165</ele>
        <time>2026-07-15T15:29:29.045Z</time>
      </trkpt>
      <trkpt lat="47.944723" lon="7.922712">
        <ele>670.403484</ele>
        <time>2026-07-15T15:29:37.448Z</time>
      </trkpt>
      <trkpt lat="47.944877" lon="7.922961">
        <ele>667.049257</ele>
        <time>2026-07-15T15:29:47.613Z</time>
      </trkpt>
      <trkpt lat="47.945202" lon="7.922956">
        <ele>662.246996</ele>
        <time>2026-07-15T15:30:02.071Z</time>
      </trkpt>
      <trkpt lat="47.945734" lon="7.923040">
        <ele>654.342641</ele>
        <time>2026-07-15T15:30:25.746Z</time>
      </trkpt>
      <trkpt lat="47.946118" lon="7.922999">
        <ele>648.654395</ele>
        <time>2026-07-15T15:30:42.803Z</time>
      </trkpt>
      <trkpt lat="47.946372" lon="7.922918">
        <ele>644.816778</ele>
        <time>2026-07-15T15:30:54.358Z</time>
      </trkpt>
      <trkpt lat="47.946742" lon="7.922718">
        <ele>643.216388</ele>
        <time>2026-07-15T15:31:11.945Z</time>
      </trkpt>
      <trkpt lat="47.947388" lon="7.922509">
        <ele>641.053729</ele>
        <time>2026-07-15T15:31:45.962Z</time>
      </trkpt>
      <trkpt lat="47.947538" lon="7.922615">
        <ele>640.510753</ele>
        <time>2026-07-15T15:31:55.779Z</time>
      </trkpt>
      <trkpt lat="47.947927" lon="7.923341">
        <ele>638.591531</ele>
        <time>2026-07-15T15:32:37.554Z</time>
      </trkpt>
      <trkpt lat="47.948093" lon="7.923723">
        <ele>639.673493</ele>
        <time>2026-07-15T15:32:59.288Z</time>
      </trkpt>
      <trkpt lat="47.948334" lon="7.924124">
        <ele>640.953636</ele>
        <time>2026-07-15T15:33:26.700Z</time>
      </trkpt>
      <trkpt lat="47.948578" lon="7.924323">
        <ele>641.939944</ele>
        <time>2026-07-15T15:33:46.840Z</time>
      </trkpt>
      <trkpt lat="47.948568" lon="7.924407">
        <ele>642.142662</ele>
        <time>2026-07-15T15:33:50.129Z</time>
      </trkpt>
      <trkpt lat="47.948603" lon="7.924496">
        <ele>642.387888</ele>
        <time>2026-07-15T15:33:54.845Z</time>
      </trkpt>
      <trkpt lat="47.948606" lon="7.924596">
        <ele>642.625734</ele>
        <time>2026-07-15T15:33:59.267Z</time>
      </trkpt>
      <trkpt lat="47.949070" lon="7.924674">
        <ele>644.282152</ele>
        <time>2026-07-15T15:34:23.636Z</time>
      </trkpt>
      <trkpt lat="47.949508" lon="7.924563">
        <ele>644.309529</ele>
        <time>2026-07-15T15:34:44.785Z</time>
      </trkpt>
      <trkpt lat="47.949753" lon="7.924677">
        <ele>643.732020</ele>
        <time>2026-07-15T15:34:56.776Z</time>
      </trkpt>
      <trkpt lat="47.950000" lon="7.924934">
        <ele>643.054500</ele>
        <time>2026-07-15T15:35:10.961Z</time>
      </trkpt>
      <trkpt lat="47.950260" lon="7.925374">
        <ele>642.170083</ele>
        <time>2026-07-15T15:35:29.371Z</time>
      </trkpt>
      <trkpt lat="47.950440" lon="7.925743">
        <ele>641.482022</ele>
        <time>2026-07-15T15:35:43.125Z</time>
      </trkpt>
      <trkpt lat="47.950856" lon="7.926752">
        <ele>635.377630</ele>
        <time>2026-07-15T15:36:16.271Z</time>
      </trkpt>
      <trkpt lat="47.950957" lon="7.927482">
        <ele>630.095628</ele>
        <time>2026-07-15T15:36:35.662Z</time>
      </trkpt>
      <trkpt lat="47.951237" lon="7.928497">
        <ele>622.317178</ele>
        <time>2026-07-15T15:37:03.415Z</time>
      </trkpt>
      <trkpt lat="47.951507" lon="7.929184">
        <ele>616.984751</ele>
        <time>2026-07-15T15:37:23.492Z</time>
      </trkpt>
      <trkpt lat="47.951806" lon="7.929642">
        <ele>612.726588</ele>
        <time>2026-07-15T15:37:40.324Z</time>
      </trkpt>
      <trkpt lat="47.952037" lon="7.930091">
        <ele>608.957134</ele>
        <time>2026-07-15T15:37:56.035Z</time>
      </trkpt>
      <trkpt lat="47.952133" lon="7.929808">
        <ele>606.845123</ele>
        <time>2026-07-15T15:38:05.310Z</time>
      </trkpt>
      <trkpt lat="47.952315" lon="7.929500">
        <ele>604.110546</ele>
        <time>2026-07-15T15:38:16.792Z</time>
      </trkpt>
      <trkpt lat="47.952620" lon="7.929310">
        <ele>599.184920</ele>
        <time>2026-07-15T15:38:30.069Z</time>
      </trkpt>
      <trkpt lat="47.952949" lon="7.929029">
        <ele>593.441758</ele>
        <time>2026-07-15T15:38:44.605Z</time>
      </trkpt>
      <trkpt lat="47.953047" lon="7.928991">
        <ele>591.907557</ele>
        <time>2026-07-15T15:38:48.425Z</time>
      </trkpt>
      <trkpt lat="47.953142" lon="7.929053">
        <ele>590.336570</ele>
        <time>2026-07-15T15:38:52.314Z</time>
      </trkpt>
      <trkpt lat="47.953174" lon="7.929218">
        <ele>588.593326</ele>
        <time>2026-07-15T15:38:56.614Z</time>
      </trkpt>
      <trkpt lat="47.953689" lon="7.930173">
        <ele>576.098527</ele>
        <time>2026-07-15T15:39:22.623Z</time>
      </trkpt>
      <trkpt lat="47.953755" lon="7.930422">
        <ele>573.123156</ele>
        <time>2026-07-15T15:39:28.310Z</time>
      </trkpt>
      <trkpt lat="47.953889" lon="7.930620">
        <ele>569.995601</ele>
        <time>2026-07-15T15:39:34.268Z</time>
      </trkpt>
      <trkpt lat="47.954027" lon="7.930687">
        <ele>567.588211</ele>
        <time>2026-07-15T15:39:38.887Z</time>
      </trkpt>
      <trkpt lat="47.954384" lon="7.930677">
        <ele>561.664579</ele>
        <time>2026-07-15T15:39:50.267Z</time>
      </trkpt>
      <trkpt lat="47.954758" lon="7.930928">
        <ele>554.862048</ele>
        <time>2026-07-15T15:40:03.406Z</time>
      </trkpt>
      <trkpt lat="47.954807" lon="7.930981">
        <ele>553.858272</ele>
        <time>2026-07-15T15:40:05.355Z</time>
      </trkpt>
      <trkpt lat="47.954932" lon="7.931116">
        <ele>551.298948</ele>
        <time>2026-07-15T15:40:10.328Z</time>
      </trkpt>
      <trkpt lat="47.955031" lon="7.931295">
        <ele>548.719664</ele>
        <time>2026-07-15T15:40:15.317Z</time>
      </trkpt>
      <trkpt lat="47.955161" lon="7.931596">
        <ele>545.615246</ele>
        <time>2026-07-15T15:40:23.025Z</time>
      </trkpt>
      <trkpt lat="47.955305" lon="7.932112">
        <ele>541.966909</ele>
        <time>2026-07-15T15:40:35.075Z</time>
      </trkpt>
      <trkpt lat="47.955386" lon="7.932270">
        <ele>540.668287</ele>
        <time>2026-07-15T15:40:39.384Z</time>
      </trkpt>
      <trkpt lat="47.955570" lon="7.932681">
        <ele>537.441783</ele>
        <time>2026-07-15T15:40:52.062Z</time>
      </trkpt>
      <trkpt lat="47.955649" lon="7.933224">
        <ele>533.815281</ele>
        <time>2026-07-15T15:41:06.943Z</time>
      </trkpt>
      <trkpt lat="47.955841" lon="7.934234">
        <ele>527.550224</ele>
        <time>2026-07-15T15:41:36.597Z</time>
      </trkpt>
      <trkpt lat="47.956017" lon="7.934823">
        <ele>524.383662</ele>
        <time>2026-07-15T15:41:55.386Z</time>
      </trkpt>
      <trkpt lat="47.956659" lon="7.936657">
        <ele>512.943880</ele>
        <time>2026-07-15T15:42:51.363Z</time>
      </trkpt>
      <trkpt lat="47.956796" lon="7.937158">
        <ele>508.519208</ele>
        <time>2026-07-15T15:43:05.129Z</time>
      </trkpt>
      <trkpt lat="47.957018" lon="7.937546">
        <ele>504.346620</ele>
        <time>2026-07-15T15:43:18.076Z</time>
      </trkpt>
      <trkpt lat="47.957155" lon="7.937840">
        <ele>501.418122</ele>
        <time>2026-07-15T15:43:27.148Z</time>
      </trkpt>
      <trkpt lat="47.957415" lon="7.938750">
        <ele>493.220308</ele>
        <time>2026-07-15T15:43:52.183Z</time>
      </trkpt>
      <trkpt lat="47.957590" lon="7.939602">
        <ele>485.012011</ele>
        <time>2026-07-15T15:44:14.710Z</time>
      </trkpt>
      <trkpt lat="47.957675" lon="7.940180">
        <ele>479.561415</ele>
        <time>2026-07-15T15:44:29.649Z</time>
      </trkpt>
      <trkpt lat="47.957743" lon="7.940880">
        <ele>473.046502</ele>
        <time>2026-07-15T15:44:47.564Z</time>
      </trkpt>
      <trkpt lat="47.957882" lon="7.941816">
        <ele>466.368365</ele>
        <time>2026-07-15T15:45:08.238Z</time>
      </trkpt>
      <trkpt lat="47.957972" lon="7.942417">
        <ele>463.029192</ele>
        <time>2026-07-15T15:45:24.384Z</time>
      </trkpt>
      <trkpt lat="47.958103" lon="7.943058">
        <ele>459.395380</ele>
        <time>2026-07-15T15:45:42.799Z</time>
      </trkpt>
      <trkpt lat="47.958148" lon="7.943412">
        <ele>457.441683</ele>
        <time>2026-07-15T15:45:53.160Z</time>
      </trkpt>
      <trkpt lat="47.958132" lon="7.944066">
        <ele>454.364343</ele>
        <time>2026-07-15T15:46:12.599Z</time>
      </trkpt>
      <trkpt lat="47.958110" lon="7.944206">
        <ele>453.954624</ele>
        <time>2026-07-15T15:46:16.878Z</time>
      </trkpt>
      <trkpt lat="47.957976" lon="7.944609">
        <ele>452.672659</ele>
        <time>2026-07-15T15:46:30.309Z</time>
      </trkpt>
      <trkpt lat="47.958011" lon="7.944646">
        <ele>452.490211</ele>
        <time>2026-07-15T15:46:32.586Z</time>
      </trkpt>
      <trkpt lat="47.958302" lon="7.944482">
        <ele>451.166891</ele>
        <time>2026-07-15T15:46:48.871Z</time>
      </trkpt>
      <trkpt lat="47.958594" lon="7.944208">
        <ele>449.699636</ele>
        <time>2026-07-15T15:47:06.753Z</time>
      </trkpt>
      <trkpt lat="47.958320" lon="7.944776">
        <ele>447.705160</ele>
        <time>2026-07-15T15:47:30.999Z</time>
      </trkpt>
      <trkpt lat="47.958449" lon="7.944693">
        <ele>446.957353</ele>
        <time>2026-07-15T15:47:38.212Z</time>
      </trkpt>
      <trkpt lat="47.958679" lon="7.944455">
        <ele>444.347775</ele>
        <time>2026-07-15T15:47:52.225Z</time>
      </trkpt>
      <trkpt lat="47.958867" lon="7.944357">
        <ele>442.490784</ele>
        <time>2026-07-15T15:48:01.954Z</time>
      </trkpt>
      <trkpt lat="47.958535" lon="7.944757">
        <ele>438.512547</ele>
        <time>2026-07-15T15:48:22.192Z</time>
      </trkpt>
      <trkpt lat="47.958237" lon="7.945211">
        <ele>434.542385</ele>
        <time>2026-07-15T15:48:41.613Z</time>
      </trkpt>
      <trkpt lat="47.957642" lon="7.946268">
        <ele>425.648303</ele>
        <time>2026-07-15T15:49:22.850Z</time>
      </trkpt>
      <trkpt lat="47.957393" lon="7.946737">
        <ele>421.687762</ele>
        <time>2026-07-15T15:49:40.796Z</time>
      </trkpt>
      <trkpt lat="47.956996" lon="7.947283">
        <ele>416.354495</ele>
        <time>2026-07-15T15:50:06.362Z</time>
      </trkpt>
      <trkpt lat="47.957018" lon="7.947300">
        <ele>416.109721</ele>
        <time>2026-07-15T15:50:07.586Z</time>
      </trkpt>
      <trkpt lat="47.957174" lon="7.947155">
        <ele>414.293985</ele>
        <time>2026-07-15T15:50:16.729Z</time>
      </trkpt>
      <trkpt lat="47.957392" lon="7.947092">
        <ele>412.440023</ele>
        <time>2026-07-15T15:50:27.907Z</time>
      </trkpt>
      <trkpt lat="47.957463" lon="7.947009">
        <ele>412.065388</ele>
        <time>2026-07-15T15:50:32.569Z</time>
      </trkpt>
      <trkpt lat="47.957715" lon="7.946450">
        <ele>410.190470</ele>
        <time>2026-07-15T15:50:55.962Z</time>
      </trkpt>
      <trkpt lat="47.957766" lon="7.946439">
        <ele>409.976377</ele>
        <time>2026-07-15T15:50:58.630Z</time>
      </trkpt>
      <trkpt lat="47.957770" lon="7.946501">
        <ele>409.803072</ele>
        <time>2026-07-15T15:51:00.793Z</time>
      </trkpt>
      <trkpt lat="47.957677" lon="7.946746">
        <ele>409.019499</ele>
        <time>2026-07-15T15:51:10.710Z</time>
      </trkpt>
      <trkpt lat="47.957610" lon="7.947095">
        <ele>408.009339</ele>
        <time>2026-07-15T15:51:23.253Z</time>
      </trkpt>
      <trkpt lat="47.957558" lon="7.947190">
        <ele>407.667952</ele>
        <time>2026-07-15T15:51:27.516Z</time>
      </trkpt>
      <trkpt lat="47.956970" lon="7.947884">
        <ele>404.688118</ele>
        <time>2026-07-15T15:52:06.531Z</time>
      </trkpt>
      <trkpt lat="47.957038" lon="7.947869">
        <ele>404.460590</ele>
        <time>2026-07-15T15:52:09.628Z</time>
      </trkpt>
      <trkpt lat="47.957245" lon="7.947734">
        <ele>403.712904</ele>
        <time>2026-07-15T15:52:19.919Z</time>
      </trkpt>
      <trkpt lat="47.957438" lon="7.947573">
        <ele>402.981130</ele>
        <time>2026-07-15T15:52:30.272Z</time>
      </trkpt>
      <trkpt lat="47.957763" lon="7.947155">
        <ele>401.561328</ele>
        <time>2026-07-15T15:52:50.370Z</time>
      </trkpt>
      <trkpt lat="47.957804" lon="7.947053">
        <ele>401.297623</ele>
        <time>2026-07-15T15:52:53.896Z</time>
      </trkpt>
      <trkpt lat="47.958420" lon="7.946260">
        <ele>398.310501</ele>
        <time>2026-07-15T15:53:29.178Z</time>
      </trkpt>
      <trkpt lat="47.958502" lon="7.946397">
        <ele>397.719668</ele>
        <time>2026-07-15T15:53:34.255Z</time>
      </trkpt>
      <trkpt lat="47.958622" lon="7.946689">
        <ele>396.618046</ele>
        <time>2026-07-15T15:53:43.721Z</time>
      </trkpt>
      <trkpt lat="47.958723" lon="7.947094">
        <ele>395.228409</ele>
        <time>2026-07-15T15:53:55.648Z</time>
      </trkpt>
      <trkpt lat="47.958735" lon="7.947132">
        <ele>395.093317</ele>
        <time>2026-07-15T15:53:56.784Z</time>
      </trkpt>
      <trkpt lat="47.958745" lon="7.947169">
        <ele>394.965021</ele>
        <time>2026-07-15T15:53:57.904Z</time>
      </trkpt>
      <trkpt lat="47.958769" lon="7.948441">
        <ele>390.873319</ele>
        <time>2026-07-15T15:54:34.658Z</time>
      </trkpt>
      <trkpt lat="47.958692" lon="7.948496">
        <ele>390.585638</ele>
        <time>2026-07-15T15:54:38.132Z</time>
      </trkpt>
      <trkpt lat="47.958634" lon="7.948730">
        <ele>390.394591</ele>
        <time>2026-07-15T15:54:44.978Z</time>
      </trkpt>
      <trkpt lat="47.958358" lon="7.948904">
        <ele>390.052051</ele>
        <time>2026-07-15T15:54:57.310Z</time>
      </trkpt>
      <trkpt lat="47.958639" lon="7.949065">
        <ele>389.707927</ele>
        <time>2026-07-15T15:55:09.543Z</time>
      </trkpt>
      <trkpt lat="47.958924" lon="7.949194">
        <ele>389.367427</ele>
        <time>2026-07-15T15:55:21.580Z</time>
      </trkpt>
      <trkpt lat="47.959477" lon="7.949406">
        <ele>388.714641</ele>
        <time>2026-07-15T15:55:44.453Z</time>
      </trkpt>
      <trkpt lat="47.959894" lon="7.949605">
        <ele>388.353346</ele>
        <time>2026-07-15T15:56:01.871Z</time>
      </trkpt>
      <trkpt lat="47.960448" lon="7.950648">
        <ele>387.735887</ele>
        <time>2026-07-15T15:56:37.462Z</time>
      </trkpt>
      <trkpt lat="47.960534" lon="7.950834">
        <ele>387.631052</ele>
        <time>2026-07-15T15:56:43.599Z</time>
      </trkpt>
      <trkpt lat="47.960640" lon="7.950955">
        <ele>387.538642</ele>
        <time>2026-07-15T15:56:49.045Z</time>
      </trkpt>
      <trkpt lat="47.960783" lon="7.951302">
        <ele>387.349666</ele>
        <time>2026-07-15T15:57:00.288Z</time>
      </trkpt>
      <trkpt lat="47.961134" lon="7.951523">
        <ele>387.727494</ele>
        <time>2026-07-15T15:57:16.151Z</time>
      </trkpt>
      <trkpt lat="47.961161" lon="7.951907">
        <ele>388.035937</ele>
        <time>2026-07-15T15:57:27.064Z</time>
      </trkpt>
      <trkpt lat="47.960173" lon="7.953391">
        <ele>389.757995</ele>
        <time>2026-07-15T15:58:28.393Z</time>
      </trkpt>
      <trkpt lat="47.959612" lon="7.954484">
        <ele>391.088527</ele>
        <time>2026-07-15T15:59:08.611Z</time>
      </trkpt>
      <trkpt lat="47.959465" lon="7.954652">
        <ele>391.355603</ele>
        <time>2026-07-15T15:59:16.668Z</time>
      </trkpt>
      <trkpt lat="47.959378" lon="7.954635">
        <ele>391.482196</ele>
        <time>2026-07-15T15:59:20.452Z</time>
      </trkpt>
      <trkpt lat="47.959357" lon="7.954716">
        <ele>391.566116</ele>
        <time>2026-07-15T15:59:22.986Z</time>
      </trkpt>
      <trkpt lat="47.959295" lon="7.954899">
        <ele>391.764267</ele>
        <time>2026-07-15T15:59:28.906Z</time>
      </trkpt>
      <trkpt lat="47.959206" lon="7.955034">
        <ele>391.947302</ele>
        <time>2026-07-15T15:59:34.391Z</time>
      </trkpt>
      <trkpt lat="47.959060" lon="7.955210">
        <ele>392.062309</ele>
        <time>2026-07-15T15:59:42.402Z</time>
      </trkpt>
      <trkpt lat="47.958981" lon="7.955324">
        <ele>392.062309</ele>
        <time>2026-07-15T15:59:47.115Z</time>
      </trkpt>
      <trkpt lat="47.958960" lon="7.955360">
        <ele>392.062309</ele>
        <time>2026-07-15T15:59:48.434Z</time>
      </trkpt>
      <trkpt lat="47.958873" lon="7.955495">
        <ele>392.062309</ele>
        <time>2026-07-15T15:59:53.793Z</time>
      </trkpt>
      <trkpt lat="47.958617" lon="7.956027">
        <ele>392.062309</ele>
        <time>2026-07-15T16:00:12.272Z</time>
      </trkpt>
      <trkpt lat="47.958544" lon="7.956218">
        <ele>392.062309</ele>
        <time>2026-07-15T16:00:18.457Z</time>
      </trkpt>
      <trkpt lat="47.958605" lon="7.956323">
        <ele>392.062309</ele>
        <time>2026-07-15T16:00:22.364Z</time>
      </trkpt>
      <trkpt lat="47.958643" lon="7.956410">
        <ele>392.062309</ele>
        <time>2026-07-15T16:00:25.294Z</time>
      </trkpt>
      <trkpt lat="47.958672" lon="7.956474">
        <ele>392.062309</ele>
        <time>2026-07-15T16:00:27.474Z</time>
      </trkpt>
    </trkseg>
  </trk>
</gpx>